<?xml version="1.0" encoding="UTF-8" standalone="no" ?>
<gpx xmlns="http://www.topografix.com/GPX/1/1" xmlns:xsi="http://www.w3.org/2001/XMLSchema-instance" xsi:schemaLocation="http://www.topografix.com/GPX/1/1 http://www.topografix.com/GPX/1/1/gpx.xsd" version="1.1" creator="VisuGPX - https://www.visugpx.com">
  <metadata>
    <name>Montagne de l'Eyriau</name>
    <desc><![CDATA[Rando CAF Valence du 3 avril 2022 organisée par Marie-Aimée.

D'après un [url=http://www.rando-sud-est.com/2021/03/31/la-montagne-deyriau/]topo de Rando Sud-Est[/url].

Attention : certaines sentes sont très peu marquées et demandent de l'attention.]]></desc>
  </metadata>
  <trk>
    <name><![CDATA[2022-04-03 16:50:33]]></name>
    <trkseg>
      <trkpt lat="44.5093" lon="5.34744">
        <ele>762.46</ele>
        <time>2022-04-03T07:35:42Z</time>
      </trkpt>
      <trkpt lat="44.50927" lon="5.34742">
        <ele>762.46</ele>
        <time>2022-04-03T07:35:48Z</time>
      </trkpt>
      <trkpt lat="44.50917" lon="5.3472">
        <ele>762.46</ele>
        <time>2022-04-03T07:36:05Z</time>
      </trkpt>
      <trkpt lat="44.50916" lon="5.34717">
        <ele>762.46</ele>
        <time>2022-04-03T07:36:07Z</time>
      </trkpt>
      <trkpt lat="44.50909" lon="5.34688">
        <ele>761.02</ele>
        <time>2022-04-03T07:36:24Z</time>
      </trkpt>
      <trkpt lat="44.509" lon="5.3466">
        <ele>758.62</ele>
        <time>2022-04-03T07:36:42Z</time>
      </trkpt>
      <trkpt lat="44.50892" lon="5.34638">
        <ele>757.18</ele>
        <time>2022-04-03T07:36:59Z</time>
      </trkpt>
      <trkpt lat="44.50892" lon="5.34636">
        <ele>757.18</ele>
        <time>2022-04-03T07:37:02Z</time>
      </trkpt>
      <trkpt lat="44.50894" lon="5.34621">
        <ele>758.62</ele>
        <time>2022-04-03T07:37:11Z</time>
      </trkpt>
      <trkpt lat="44.509" lon="5.34602">
        <ele>760.54</ele>
        <time>2022-04-03T07:37:26Z</time>
      </trkpt>
      <trkpt lat="44.50904" lon="5.34587">
        <ele>762.46</ele>
        <time>2022-04-03T07:37:37Z</time>
      </trkpt>
      <trkpt lat="44.50903" lon="5.3458">
        <ele>763.42</ele>
        <time>2022-04-03T07:37:44Z</time>
      </trkpt>
      <trkpt lat="44.50903" lon="5.34578">
        <ele>764.39</ele>
        <time>2022-04-03T07:37:46Z</time>
      </trkpt>
      <trkpt lat="44.50898" lon="5.34556">
        <ele>766.31</ele>
        <time>2022-04-03T07:38:01Z</time>
      </trkpt>
      <trkpt lat="44.50893" lon="5.34536">
        <ele>767.27</ele>
        <time>2022-04-03T07:38:17Z</time>
      </trkpt>
      <trkpt lat="44.5089" lon="5.34522">
        <ele>768.23</ele>
        <time>2022-04-03T07:38:29Z</time>
      </trkpt>
      <trkpt lat="44.50884" lon="5.34505">
        <ele>768.23</ele>
        <time>2022-04-03T07:38:44Z</time>
      </trkpt>
      <trkpt lat="44.50883" lon="5.34487">
        <ele>769.19</ele>
        <time>2022-04-03T07:38:58Z</time>
      </trkpt>
      <trkpt lat="44.50884" lon="5.34474">
        <ele>769.19</ele>
        <time>2022-04-03T07:39:12Z</time>
      </trkpt>
      <trkpt lat="44.50883" lon="5.34469">
        <ele>769.67</ele>
        <time>2022-04-03T07:39:17Z</time>
      </trkpt>
      <trkpt lat="44.50883" lon="5.34465">
        <ele>769.67</ele>
        <time>2022-04-03T07:39:20Z</time>
      </trkpt>
      <trkpt lat="44.50881" lon="5.3445">
        <ele>772.08</ele>
        <time>2022-04-03T07:39:33Z</time>
      </trkpt>
      <trkpt lat="44.50879" lon="5.34431">
        <ele>773.52</ele>
        <time>2022-04-03T07:39:49Z</time>
      </trkpt>
      <trkpt lat="44.5088" lon="5.34412">
        <ele>775.44</ele>
        <time>2022-04-03T07:40:04Z</time>
      </trkpt>
      <trkpt lat="44.50881" lon="5.34401">
        <ele>776.4</ele>
        <time>2022-04-03T07:40:12Z</time>
      </trkpt>
      <trkpt lat="44.50886" lon="5.34389">
        <ele>778.81</ele>
        <time>2022-04-03T07:40:25Z</time>
      </trkpt>
      <trkpt lat="44.50891" lon="5.34378">
        <ele>782.17</ele>
        <time>2022-04-03T07:40:38Z</time>
      </trkpt>
      <trkpt lat="44.50894" lon="5.34364">
        <ele>785.05</ele>
        <time>2022-04-03T07:40:52Z</time>
      </trkpt>
      <trkpt lat="44.50894" lon="5.34352">
        <ele>786.5</ele>
        <time>2022-04-03T07:41:04Z</time>
      </trkpt>
      <trkpt lat="44.50892" lon="5.34337">
        <ele>789.38</ele>
        <time>2022-04-03T07:41:18Z</time>
      </trkpt>
      <trkpt lat="44.50893" lon="5.34327">
        <ele>792.26</ele>
        <time>2022-04-03T07:41:32Z</time>
      </trkpt>
      <trkpt lat="44.50889" lon="5.34314">
        <ele>793.71</ele>
        <time>2022-04-03T07:41:49Z</time>
      </trkpt>
      <trkpt lat="44.50888" lon="5.34308">
        <ele>795.63</ele>
        <time>2022-04-03T07:41:57Z</time>
      </trkpt>
      <trkpt lat="44.50886" lon="5.34297">
        <ele>798.03</ele>
        <time>2022-04-03T07:42:10Z</time>
      </trkpt>
      <trkpt lat="44.50885" lon="5.34294">
        <ele>798.03</ele>
        <time>2022-04-03T07:42:12Z</time>
      </trkpt>
      <trkpt lat="44.50882" lon="5.3428">
        <ele>799.95</ele>
        <time>2022-04-03T07:42:27Z</time>
      </trkpt>
      <trkpt lat="44.5088" lon="5.34276">
        <ele>800.44</ele>
        <time>2022-04-03T07:42:31Z</time>
      </trkpt>
      <trkpt lat="44.50878" lon="5.34267">
        <ele>802.36</ele>
        <time>2022-04-03T07:42:45Z</time>
      </trkpt>
      <trkpt lat="44.50877" lon="5.34258">
        <ele>805.24</ele>
        <time>2022-04-03T07:42:58Z</time>
      </trkpt>
      <trkpt lat="44.50876" lon="5.34255">
        <ele>806.68</ele>
        <time>2022-04-03T07:43:02Z</time>
      </trkpt>
      <trkpt lat="44.50875" lon="5.34245">
        <ele>808.13</ele>
        <time>2022-04-03T07:43:13Z</time>
      </trkpt>
      <trkpt lat="44.50873" lon="5.3423">
        <ele>808.61</ele>
        <time>2022-04-03T07:43:26Z</time>
      </trkpt>
      <trkpt lat="44.50873" lon="5.34215">
        <ele>810.05</ele>
        <time>2022-04-03T07:43:40Z</time>
      </trkpt>
      <trkpt lat="44.50872" lon="5.34201">
        <ele>811.97</ele>
        <time>2022-04-03T07:43:52Z</time>
      </trkpt>
      <trkpt lat="44.50875" lon="5.34189">
        <ele>813.41</ele>
        <time>2022-04-03T07:44:06Z</time>
      </trkpt>
      <trkpt lat="44.50875" lon="5.34176">
        <ele>816.3</ele>
        <time>2022-04-03T07:44:20Z</time>
      </trkpt>
      <trkpt lat="44.50878" lon="5.34166">
        <ele>818.7</ele>
        <time>2022-04-03T07:44:33Z</time>
      </trkpt>
      <trkpt lat="44.50876" lon="5.34153">
        <ele>821.1</ele>
        <time>2022-04-03T07:44:47Z</time>
      </trkpt>
      <trkpt lat="44.50876" lon="5.3415">
        <ele>821.58</ele>
        <time>2022-04-03T07:45:23Z</time>
      </trkpt>
      <trkpt lat="44.50873" lon="5.34135">
        <ele>823.99</ele>
        <time>2022-04-03T07:45:37Z</time>
      </trkpt>
      <trkpt lat="44.50873" lon="5.34126">
        <ele>824.95</ele>
        <time>2022-04-03T07:45:44Z</time>
      </trkpt>
      <trkpt lat="44.50875" lon="5.34111">
        <ele>827.35</ele>
        <time>2022-04-03T07:45:58Z</time>
      </trkpt>
      <trkpt lat="44.50875" lon="5.34098">
        <ele>829.27</ele>
        <time>2022-04-03T07:46:11Z</time>
      </trkpt>
      <trkpt lat="44.50881" lon="5.34085">
        <ele>832.16</ele>
        <time>2022-04-03T07:46:28Z</time>
      </trkpt>
      <trkpt lat="44.50882" lon="5.34076">
        <ele>834.56</ele>
        <time>2022-04-03T07:46:37Z</time>
      </trkpt>
      <trkpt lat="44.50885" lon="5.34058">
        <ele>836.48</ele>
        <time>2022-04-03T07:46:54Z</time>
      </trkpt>
      <trkpt lat="44.50888" lon="5.34042">
        <ele>838.89</ele>
        <time>2022-04-03T07:47:08Z</time>
      </trkpt>
      <trkpt lat="44.50889" lon="5.3403">
        <ele>840.81</ele>
        <time>2022-04-03T07:47:18Z</time>
      </trkpt>
      <trkpt lat="44.50894" lon="5.34009">
        <ele>841.29</ele>
        <time>2022-04-03T07:47:34Z</time>
      </trkpt>
      <trkpt lat="44.50898" lon="5.33988">
        <ele>843.21</ele>
        <time>2022-04-03T07:47:50Z</time>
      </trkpt>
      <trkpt lat="44.50904" lon="5.33975">
        <ele>844.18</ele>
        <time>2022-04-03T07:48:05Z</time>
      </trkpt>
      <trkpt lat="44.50907" lon="5.33967">
        <ele>846.58</ele>
        <time>2022-04-03T07:48:21Z</time>
      </trkpt>
      <trkpt lat="44.5091" lon="5.33956">
        <ele>849.46</ele>
        <time>2022-04-03T07:48:37Z</time>
      </trkpt>
      <trkpt lat="44.5091" lon="5.33951">
        <ele>850.9</ele>
        <time>2022-04-03T07:48:43Z</time>
      </trkpt>
      <trkpt lat="44.50911" lon="5.33934">
        <ele>852.83</ele>
        <time>2022-04-03T07:48:59Z</time>
      </trkpt>
      <trkpt lat="44.5091" lon="5.33932">
        <ele>852.83</ele>
        <time>2022-04-03T07:49:01Z</time>
      </trkpt>
      <trkpt lat="44.5091" lon="5.33928">
        <ele>852.83</ele>
        <time>2022-04-03T07:49:04Z</time>
      </trkpt>
      <trkpt lat="44.5091" lon="5.33923">
        <ele>852.83</ele>
        <time>2022-04-03T07:49:08Z</time>
      </trkpt>
      <trkpt lat="44.50912" lon="5.33908">
        <ele>853.31</ele>
        <time>2022-04-03T07:49:22Z</time>
      </trkpt>
      <trkpt lat="44.50912" lon="5.33896">
        <ele>855.23</ele>
        <time>2022-04-03T07:49:36Z</time>
      </trkpt>
      <trkpt lat="44.5091" lon="5.33884">
        <ele>856.67</ele>
        <time>2022-04-03T07:49:46Z</time>
      </trkpt>
      <trkpt lat="44.50915" lon="5.33875">
        <ele>857.63</ele>
        <time>2022-04-03T07:50:00Z</time>
      </trkpt>
      <trkpt lat="44.50919" lon="5.33872">
        <ele>859.56</ele>
        <time>2022-04-03T07:50:17Z</time>
      </trkpt>
      <trkpt lat="44.50922" lon="5.33862">
        <ele>861.96</ele>
        <time>2022-04-03T07:50:32Z</time>
      </trkpt>
      <trkpt lat="44.50924" lon="5.33851">
        <ele>863.4</ele>
        <time>2022-04-03T07:50:50Z</time>
      </trkpt>
      <trkpt lat="44.50928" lon="5.33848">
        <ele>866.77</ele>
        <time>2022-04-03T07:51:01Z</time>
      </trkpt>
      <trkpt lat="44.50929" lon="5.33847">
        <ele>866.77</ele>
        <time>2022-04-03T07:51:02Z</time>
      </trkpt>
      <trkpt lat="44.50937" lon="5.33836">
        <ele>869.17</ele>
        <time>2022-04-03T07:51:19Z</time>
      </trkpt>
      <trkpt lat="44.50938" lon="5.33832">
        <ele>867.73</ele>
        <time>2022-04-03T07:51:24Z</time>
      </trkpt>
      <trkpt lat="44.50939" lon="5.33815">
        <ele>866.29</ele>
        <time>2022-04-03T07:51:38Z</time>
      </trkpt>
      <trkpt lat="44.50949" lon="5.33804">
        <ele>866.77</ele>
        <time>2022-04-03T07:51:53Z</time>
      </trkpt>
      <trkpt lat="44.50959" lon="5.33795">
        <ele>869.17</ele>
        <time>2022-04-03T07:52:08Z</time>
      </trkpt>
      <trkpt lat="44.50969" lon="5.33785">
        <ele>872.05</ele>
        <time>2022-04-03T07:52:23Z</time>
      </trkpt>
      <trkpt lat="44.50981" lon="5.33777">
        <ele>873.5</ele>
        <time>2022-04-03T07:52:38Z</time>
      </trkpt>
      <trkpt lat="44.50987" lon="5.33775">
        <ele>874.46</ele>
        <time>2022-04-03T07:52:45Z</time>
      </trkpt>
      <trkpt lat="44.50995" lon="5.33769">
        <ele>874.46</ele>
        <time>2022-04-03T07:52:56Z</time>
      </trkpt>
      <trkpt lat="44.50998" lon="5.33763">
        <ele>874.46</ele>
        <time>2022-04-03T07:53:01Z</time>
      </trkpt>
      <trkpt lat="44.51003" lon="5.33745">
        <ele>875.42</ele>
        <time>2022-04-03T07:53:16Z</time>
      </trkpt>
      <trkpt lat="44.51004" lon="5.33741">
        <ele>875.42</ele>
        <time>2022-04-03T07:53:31Z</time>
      </trkpt>
      <trkpt lat="44.51004" lon="5.3374">
        <ele>875.42</ele>
        <time>2022-04-03T07:53:55Z</time>
      </trkpt>
      <trkpt lat="44.51004" lon="5.33738">
        <ele>875.9</ele>
        <time>2022-04-03T07:54:43Z</time>
      </trkpt>
      <trkpt lat="44.51007" lon="5.33729">
        <ele>876.86</ele>
        <time>2022-04-03T07:54:56Z</time>
      </trkpt>
      <trkpt lat="44.51011" lon="5.3372">
        <ele>879.74</ele>
        <time>2022-04-03T07:55:07Z</time>
      </trkpt>
      <trkpt lat="44.51016" lon="5.33708">
        <ele>882.63</ele>
        <time>2022-04-03T07:55:23Z</time>
      </trkpt>
      <trkpt lat="44.51016" lon="5.33705">
        <ele>883.11</ele>
        <time>2022-04-03T07:55:26Z</time>
      </trkpt>
      <trkpt lat="44.51017" lon="5.33699">
        <ele>883.59</ele>
        <time>2022-04-03T07:55:31Z</time>
      </trkpt>
      <trkpt lat="44.51024" lon="5.33693">
        <ele>885.03</ele>
        <time>2022-04-03T07:55:41Z</time>
      </trkpt>
      <trkpt lat="44.51036" lon="5.33689">
        <ele>886.47</ele>
        <time>2022-04-03T07:55:56Z</time>
      </trkpt>
      <trkpt lat="44.51044" lon="5.33681">
        <ele>887.43</ele>
        <time>2022-04-03T07:56:11Z</time>
      </trkpt>
      <trkpt lat="44.51046" lon="5.33678">
        <ele>889.36</ele>
        <time>2022-04-03T07:56:14Z</time>
      </trkpt>
      <trkpt lat="44.51048" lon="5.33676">
        <ele>889.36</ele>
        <time>2022-04-03T07:56:17Z</time>
      </trkpt>
      <trkpt lat="44.51066" lon="5.33671">
        <ele>889.84</ele>
        <time>2022-04-03T07:56:35Z</time>
      </trkpt>
      <trkpt lat="44.51079" lon="5.33672">
        <ele>890.8</ele>
        <time>2022-04-03T07:56:51Z</time>
      </trkpt>
      <trkpt lat="44.5109" lon="5.33672">
        <ele>893.2</ele>
        <time>2022-04-03T07:57:06Z</time>
      </trkpt>
      <trkpt lat="44.51099" lon="5.33676">
        <ele>894.64</ele>
        <time>2022-04-03T07:57:23Z</time>
      </trkpt>
      <trkpt lat="44.51115" lon="5.3368">
        <ele>897.53</ele>
        <time>2022-04-03T07:57:43Z</time>
      </trkpt>
      <trkpt lat="44.5112" lon="5.33677">
        <ele>898.49</ele>
        <time>2022-04-03T07:57:59Z</time>
      </trkpt>
      <trkpt lat="44.51126" lon="5.33681">
        <ele>899.45</ele>
        <time>2022-04-03T07:58:17Z</time>
      </trkpt>
      <trkpt lat="44.51132" lon="5.33685">
        <ele>902.33</ele>
        <time>2022-04-03T07:58:33Z</time>
      </trkpt>
      <trkpt lat="44.51135" lon="5.33691">
        <ele>905.7</ele>
        <time>2022-04-03T07:58:47Z</time>
      </trkpt>
      <trkpt lat="44.51133" lon="5.33697">
        <ele>907.62</ele>
        <time>2022-04-03T07:59:01Z</time>
      </trkpt>
      <trkpt lat="44.51129" lon="5.33706">
        <ele>910.51</ele>
        <time>2022-04-03T07:59:18Z</time>
      </trkpt>
      <trkpt lat="44.51127" lon="5.3371">
        <ele>913.87</ele>
        <time>2022-04-03T07:59:36Z</time>
      </trkpt>
      <trkpt lat="44.51126" lon="5.33716">
        <ele>915.79</ele>
        <time>2022-04-03T07:59:51Z</time>
      </trkpt>
      <trkpt lat="44.51129" lon="5.3372">
        <ele>918.2</ele>
        <time>2022-04-03T08:00:05Z</time>
      </trkpt>
      <trkpt lat="44.51131" lon="5.33722">
        <ele>920.12</ele>
        <time>2022-04-03T08:00:36Z</time>
      </trkpt>
      <trkpt lat="44.51134" lon="5.33724">
        <ele>920.12</ele>
        <time>2022-04-03T08:00:51Z</time>
      </trkpt>
      <trkpt lat="44.51135" lon="5.33724">
        <ele>921.56</ele>
        <time>2022-04-03T08:00:56Z</time>
      </trkpt>
      <trkpt lat="44.51133" lon="5.33727">
        <ele>922.52</ele>
        <time>2022-04-03T08:01:11Z</time>
      </trkpt>
      <trkpt lat="44.5113" lon="5.33734">
        <ele>923.96</ele>
        <time>2022-04-03T08:03:17Z</time>
      </trkpt>
      <trkpt lat="44.51131" lon="5.33736">
        <ele>926.85</ele>
        <time>2022-04-03T08:03:33Z</time>
      </trkpt>
      <trkpt lat="44.5113" lon="5.3374">
        <ele>928.29</ele>
        <time>2022-04-03T08:03:50Z</time>
      </trkpt>
      <trkpt lat="44.51126" lon="5.33747">
        <ele>929.73</ele>
        <time>2022-04-03T08:04:07Z</time>
      </trkpt>
      <trkpt lat="44.5112" lon="5.3375">
        <ele>932.62</ele>
        <time>2022-04-03T08:04:24Z</time>
      </trkpt>
      <trkpt lat="44.51117" lon="5.33755">
        <ele>935.5</ele>
        <time>2022-04-03T08:04:40Z</time>
      </trkpt>
      <trkpt lat="44.51116" lon="5.33763">
        <ele>937.9</ele>
        <time>2022-04-03T08:04:55Z</time>
      </trkpt>
      <trkpt lat="44.51117" lon="5.33769">
        <ele>941.27</ele>
        <time>2022-04-03T08:05:12Z</time>
      </trkpt>
      <trkpt lat="44.51121" lon="5.33774">
        <ele>944.63</ele>
        <time>2022-04-03T08:05:27Z</time>
      </trkpt>
      <trkpt lat="44.51125" lon="5.33776">
        <ele>946.56</ele>
        <time>2022-04-03T08:05:41Z</time>
      </trkpt>
      <trkpt lat="44.51127" lon="5.33783">
        <ele>950.4</ele>
        <time>2022-04-03T08:06:55Z</time>
      </trkpt>
      <trkpt lat="44.5113" lon="5.33789">
        <ele>952.8</ele>
        <time>2022-04-03T08:07:13Z</time>
      </trkpt>
      <trkpt lat="44.51132" lon="5.33796">
        <ele>955.69</ele>
        <time>2022-04-03T08:07:27Z</time>
      </trkpt>
      <trkpt lat="44.51134" lon="5.33803">
        <ele>958.09</ele>
        <time>2022-04-03T08:07:42Z</time>
      </trkpt>
      <trkpt lat="44.51133" lon="5.33811">
        <ele>960.98</ele>
        <time>2022-04-03T08:08:00Z</time>
      </trkpt>
      <trkpt lat="44.51133" lon="5.33816">
        <ele>962.9</ele>
        <time>2022-04-03T08:08:15Z</time>
      </trkpt>
      <trkpt lat="44.51132" lon="5.33823">
        <ele>965.78</ele>
        <time>2022-04-03T08:08:32Z</time>
      </trkpt>
      <trkpt lat="44.51128" lon="5.3383">
        <ele>968.67</ele>
        <time>2022-04-03T08:08:51Z</time>
      </trkpt>
      <trkpt lat="44.51127" lon="5.33838">
        <ele>971.55</ele>
        <time>2022-04-03T08:09:10Z</time>
      </trkpt>
      <trkpt lat="44.51129" lon="5.33842">
        <ele>973.95</ele>
        <time>2022-04-03T08:09:25Z</time>
      </trkpt>
      <trkpt lat="44.51128" lon="5.33847">
        <ele>975.88</ele>
        <time>2022-04-03T08:09:42Z</time>
      </trkpt>
      <trkpt lat="44.51129" lon="5.33853">
        <ele>978.28</ele>
        <time>2022-04-03T08:09:59Z</time>
      </trkpt>
      <trkpt lat="44.51133" lon="5.3386">
        <ele>980.68</ele>
        <time>2022-04-03T08:10:18Z</time>
      </trkpt>
      <trkpt lat="44.5113" lon="5.33868">
        <ele>984.05</ele>
        <time>2022-04-03T08:10:34Z</time>
      </trkpt>
      <trkpt lat="44.51129" lon="5.33875">
        <ele>986.45</ele>
        <time>2022-04-03T08:10:52Z</time>
      </trkpt>
      <trkpt lat="44.51132" lon="5.33881">
        <ele>988.37</ele>
        <time>2022-04-03T08:11:07Z</time>
      </trkpt>
      <trkpt lat="44.51134" lon="5.33886">
        <ele>990.78</ele>
        <time>2022-04-03T08:11:23Z</time>
      </trkpt>
      <trkpt lat="44.51133" lon="5.33888">
        <ele>990.78</ele>
        <time>2022-04-03T08:11:39Z</time>
      </trkpt>
      <trkpt lat="44.51133" lon="5.33887">
        <ele>990.78</ele>
        <time>2022-04-03T08:11:59Z</time>
      </trkpt>
      <trkpt lat="44.5113" lon="5.33892">
        <ele>992.22</ele>
        <time>2022-04-03T08:12:14Z</time>
      </trkpt>
      <trkpt lat="44.5113" lon="5.33899">
        <ele>994.62</ele>
        <time>2022-04-03T08:12:29Z</time>
      </trkpt>
      <trkpt lat="44.51121" lon="5.33906">
        <ele>997.02</ele>
        <time>2022-04-03T08:12:47Z</time>
      </trkpt>
      <trkpt lat="44.51115" lon="5.33914">
        <ele>999.91</ele>
        <time>2022-04-03T08:13:03Z</time>
      </trkpt>
      <trkpt lat="44.51111" lon="5.33922">
        <ele>1002.79</ele>
        <time>2022-04-03T08:13:16Z</time>
      </trkpt>
      <trkpt lat="44.51109" lon="5.33932">
        <ele>1005.68</ele>
        <time>2022-04-03T08:13:32Z</time>
      </trkpt>
      <trkpt lat="44.51104" lon="5.33942">
        <ele>1009.04</ele>
        <time>2022-04-03T08:13:48Z</time>
      </trkpt>
      <trkpt lat="44.51102" lon="5.33952">
        <ele>1011.93</ele>
        <time>2022-04-03T08:14:04Z</time>
      </trkpt>
      <trkpt lat="44.51101" lon="5.33965">
        <ele>1014.33</ele>
        <time>2022-04-03T08:14:21Z</time>
      </trkpt>
      <trkpt lat="44.511" lon="5.33981">
        <ele>1016.73</ele>
        <time>2022-04-03T08:14:37Z</time>
      </trkpt>
      <trkpt lat="44.51098" lon="5.33993">
        <ele>1017.69</ele>
        <time>2022-04-03T08:14:54Z</time>
      </trkpt>
      <trkpt lat="44.51097" lon="5.33999">
        <ele>1018.65</ele>
        <time>2022-04-03T08:15:09Z</time>
      </trkpt>
      <trkpt lat="44.51095" lon="5.34006">
        <ele>1018.65</ele>
        <time>2022-04-03T08:15:26Z</time>
      </trkpt>
      <trkpt lat="44.51095" lon="5.34012">
        <ele>1019.13</ele>
        <time>2022-04-03T08:15:39Z</time>
      </trkpt>
      <trkpt lat="44.51093" lon="5.34018">
        <ele>1020.58</ele>
        <time>2022-04-03T08:15:54Z</time>
      </trkpt>
      <trkpt lat="44.51093" lon="5.3402">
        <ele>1021.54</ele>
        <time>2022-04-03T08:16:09Z</time>
      </trkpt>
      <trkpt lat="44.51091" lon="5.34023">
        <ele>1021.54</ele>
        <time>2022-04-03T08:16:27Z</time>
      </trkpt>
      <trkpt lat="44.51092" lon="5.34034">
        <ele>1023.94</ele>
        <time>2022-04-03T08:16:46Z</time>
      </trkpt>
      <trkpt lat="44.51098" lon="5.34039">
        <ele>1023.94</ele>
        <time>2022-04-03T08:16:58Z</time>
      </trkpt>
      <trkpt lat="44.51097" lon="5.34047">
        <ele>1024.42</ele>
        <time>2022-04-03T08:17:18Z</time>
      </trkpt>
      <trkpt lat="44.511" lon="5.34053">
        <ele>1024.42</ele>
        <time>2022-04-03T08:17:30Z</time>
      </trkpt>
      <trkpt lat="44.51097" lon="5.34058">
        <ele>1024.42</ele>
        <time>2022-04-03T08:17:46Z</time>
      </trkpt>
      <trkpt lat="44.51096" lon="5.3406">
        <ele>1024.9</ele>
        <time>2022-04-03T08:18:26Z</time>
      </trkpt>
      <trkpt lat="44.51095" lon="5.34063">
        <ele>1024.9</ele>
        <time>2022-04-03T08:18:50Z</time>
      </trkpt>
      <trkpt lat="44.51094" lon="5.34067">
        <ele>1024.42</ele>
        <time>2022-04-03T08:19:09Z</time>
      </trkpt>
      <trkpt lat="44.51093" lon="5.34071">
        <ele>1022.98</ele>
        <time>2022-04-03T08:19:33Z</time>
      </trkpt>
      <trkpt lat="44.51098" lon="5.34081">
        <ele>1022.02</ele>
        <time>2022-04-03T08:19:46Z</time>
      </trkpt>
      <trkpt lat="44.51104" lon="5.34092">
        <ele>1021.54</ele>
        <time>2022-04-03T08:20:03Z</time>
      </trkpt>
      <trkpt lat="44.51108" lon="5.34105">
        <ele>1020.1</ele>
        <time>2022-04-03T08:20:20Z</time>
      </trkpt>
      <trkpt lat="44.51112" lon="5.34118">
        <ele>1019.13</ele>
        <time>2022-04-03T08:20:36Z</time>
      </trkpt>
      <trkpt lat="44.51116" lon="5.34125">
        <ele>1017.69</ele>
        <time>2022-04-03T08:20:52Z</time>
      </trkpt>
      <trkpt lat="44.51118" lon="5.34136">
        <ele>1016.73</ele>
        <time>2022-04-03T08:21:07Z</time>
      </trkpt>
      <trkpt lat="44.51122" lon="5.34144">
        <ele>1015.29</ele>
        <time>2022-04-03T08:21:22Z</time>
      </trkpt>
      <trkpt lat="44.51121" lon="5.34154">
        <ele>1016.73</ele>
        <time>2022-04-03T08:21:38Z</time>
      </trkpt>
      <trkpt lat="44.5112" lon="5.34158">
        <ele>1017.69</ele>
        <time>2022-04-03T08:21:54Z</time>
      </trkpt>
      <trkpt lat="44.5112" lon="5.34159">
        <ele>1017.69</ele>
        <time>2022-04-03T08:22:15Z</time>
      </trkpt>
      <trkpt lat="44.51121" lon="5.34161">
        <ele>1016.25</ele>
        <time>2022-04-03T08:25:31Z</time>
      </trkpt>
      <trkpt lat="44.51123" lon="5.34165">
        <ele>1016.25</ele>
        <time>2022-04-03T08:25:48Z</time>
      </trkpt>
      <trkpt lat="44.51124" lon="5.34169">
        <ele>1016.25</ele>
        <time>2022-04-03T08:26:02Z</time>
      </trkpt>
      <trkpt lat="44.51122" lon="5.34165">
        <ele>1017.21</ele>
        <time>2022-04-03T08:26:21Z</time>
      </trkpt>
      <trkpt lat="44.51117" lon="5.34164">
        <ele>1018.17</ele>
        <time>2022-04-03T08:26:36Z</time>
      </trkpt>
      <trkpt lat="44.51118" lon="5.34162">
        <ele>1018.17</ele>
        <time>2022-04-03T08:26:50Z</time>
      </trkpt>
      <trkpt lat="44.51116" lon="5.34162">
        <ele>1018.17</ele>
        <time>2022-04-03T08:27:10Z</time>
      </trkpt>
      <trkpt lat="44.51115" lon="5.34161">
        <ele>1018.17</ele>
        <time>2022-04-03T08:27:33Z</time>
      </trkpt>
      <trkpt lat="44.51115" lon="5.34166">
        <ele>1018.17</ele>
        <time>2022-04-03T08:27:52Z</time>
      </trkpt>
      <trkpt lat="44.51111" lon="5.34163">
        <ele>1018.65</ele>
        <time>2022-04-03T08:28:09Z</time>
      </trkpt>
      <trkpt lat="44.51109" lon="5.34157">
        <ele>1017.21</ele>
        <time>2022-04-03T08:28:24Z</time>
      </trkpt>
      <trkpt lat="44.51107" lon="5.34155">
        <ele>1015.77</ele>
        <time>2022-04-03T08:28:37Z</time>
      </trkpt>
      <trkpt lat="44.51103" lon="5.34151">
        <ele>1014.81</ele>
        <time>2022-04-03T08:28:54Z</time>
      </trkpt>
      <trkpt lat="44.51103" lon="5.34157">
        <ele>1013.37</ele>
        <time>2022-04-03T08:29:13Z</time>
      </trkpt>
      <trkpt lat="44.51102" lon="5.34163">
        <ele>1012.89</ele>
        <time>2022-04-03T08:29:30Z</time>
      </trkpt>
      <trkpt lat="44.51103" lon="5.34167">
        <ele>1012.41</ele>
        <time>2022-04-03T08:29:46Z</time>
      </trkpt>
      <trkpt lat="44.51103" lon="5.34168">
        <ele>1011.93</ele>
        <time>2022-04-03T08:30:04Z</time>
      </trkpt>
      <trkpt lat="44.51103" lon="5.34173">
        <ele>1011.93</ele>
        <time>2022-04-03T08:30:22Z</time>
      </trkpt>
      <trkpt lat="44.51104" lon="5.34172">
        <ele>1011.93</ele>
        <time>2022-04-03T08:30:46Z</time>
      </trkpt>
      <trkpt lat="44.51104" lon="5.34177">
        <ele>1014.33</ele>
        <time>2022-04-03T08:31:18Z</time>
      </trkpt>
      <trkpt lat="44.51106" lon="5.34181">
        <ele>1016.25</ele>
        <time>2022-04-03T08:31:36Z</time>
      </trkpt>
      <trkpt lat="44.51103" lon="5.34187">
        <ele>1016.73</ele>
        <time>2022-04-03T08:31:52Z</time>
      </trkpt>
      <trkpt lat="44.51101" lon="5.34192">
        <ele>1015.77</ele>
        <time>2022-04-03T08:31:58Z</time>
      </trkpt>
      <trkpt lat="44.51099" lon="5.34193">
        <ele>1015.29</ele>
        <time>2022-04-03T08:32:16Z</time>
      </trkpt>
      <trkpt lat="44.51098" lon="5.34196">
        <ele>1015.29</ele>
        <time>2022-04-03T08:32:36Z</time>
      </trkpt>
      <trkpt lat="44.51096" lon="5.34199">
        <ele>1014.81</ele>
        <time>2022-04-03T08:32:53Z</time>
      </trkpt>
      <trkpt lat="44.51096" lon="5.34203">
        <ele>1014.81</ele>
        <time>2022-04-03T08:33:10Z</time>
      </trkpt>
      <trkpt lat="44.51096" lon="5.34203">
        <ele>1014.81</ele>
        <time>2022-04-03T08:33:36Z</time>
      </trkpt>
      <trkpt lat="44.51096" lon="5.34205">
        <ele>1014.81</ele>
        <time>2022-04-03T08:33:54Z</time>
      </trkpt>
      <trkpt lat="44.51096" lon="5.34207">
        <ele>1014.81</ele>
        <time>2022-04-03T08:34:13Z</time>
      </trkpt>
      <trkpt lat="44.51094" lon="5.34208">
        <ele>1015.77</ele>
        <time>2022-04-03T08:34:23Z</time>
      </trkpt>
      <trkpt lat="44.51091" lon="5.34213">
        <ele>1015.77</ele>
        <time>2022-04-03T08:34:38Z</time>
      </trkpt>
      <trkpt lat="44.5109" lon="5.34216">
        <ele>1015.77</ele>
        <time>2022-04-03T08:34:56Z</time>
      </trkpt>
      <trkpt lat="44.51089" lon="5.34215">
        <ele>1014.33</ele>
        <time>2022-04-03T08:35:03Z</time>
      </trkpt>
      <trkpt lat="44.51088" lon="5.34215">
        <ele>1014.33</ele>
        <time>2022-04-03T08:35:17Z</time>
      </trkpt>
      <trkpt lat="44.51092" lon="5.34222">
        <ele>1015.77</ele>
        <time>2022-04-03T08:35:32Z</time>
      </trkpt>
      <trkpt lat="44.51089" lon="5.34227">
        <ele>1015.77</ele>
        <time>2022-04-03T08:35:46Z</time>
      </trkpt>
      <trkpt lat="44.51085" lon="5.34229">
        <ele>1015.77</ele>
        <time>2022-04-03T08:36:00Z</time>
      </trkpt>
      <trkpt lat="44.51082" lon="5.34229">
        <ele>1015.77</ele>
        <time>2022-04-03T08:36:17Z</time>
      </trkpt>
      <trkpt lat="44.51078" lon="5.34234">
        <ele>1016.25</ele>
        <time>2022-04-03T08:36:33Z</time>
      </trkpt>
      <trkpt lat="44.51071" lon="5.34237">
        <ele>1017.69</ele>
        <time>2022-04-03T08:36:47Z</time>
      </trkpt>
      <trkpt lat="44.5107" lon="5.34235">
        <ele>1017.21</ele>
        <time>2022-04-03T08:37:01Z</time>
      </trkpt>
      <trkpt lat="44.51066" lon="5.34235">
        <ele>1018.17</ele>
        <time>2022-04-03T08:37:17Z</time>
      </trkpt>
      <trkpt lat="44.51063" lon="5.34233">
        <ele>1017.21</ele>
        <time>2022-04-03T08:37:27Z</time>
      </trkpt>
      <trkpt lat="44.51058" lon="5.34237">
        <ele>1018.17</ele>
        <time>2022-04-03T08:37:50Z</time>
      </trkpt>
      <trkpt lat="44.51053" lon="5.34238">
        <ele>1020.1</ele>
        <time>2022-04-03T08:38:12Z</time>
      </trkpt>
      <trkpt lat="44.51052" lon="5.34244">
        <ele>1023.46</ele>
        <time>2022-04-03T08:38:30Z</time>
      </trkpt>
      <trkpt lat="44.51048" lon="5.34243">
        <ele>1023.94</ele>
        <time>2022-04-03T08:38:43Z</time>
      </trkpt>
      <trkpt lat="44.51047" lon="5.34243">
        <ele>1022.5</ele>
        <time>2022-04-03T08:38:56Z</time>
      </trkpt>
      <trkpt lat="44.51046" lon="5.34242">
        <ele>1022.5</ele>
        <time>2022-04-03T08:39:14Z</time>
      </trkpt>
      <trkpt lat="44.51048" lon="5.34241">
        <ele>1022.5</ele>
        <time>2022-04-03T08:39:32Z</time>
      </trkpt>
      <trkpt lat="44.51047" lon="5.34237">
        <ele>1022.5</ele>
        <time>2022-04-03T08:40:05Z</time>
      </trkpt>
      <trkpt lat="44.51044" lon="5.34237">
        <ele>1022.5</ele>
        <time>2022-04-03T08:40:19Z</time>
      </trkpt>
      <trkpt lat="44.51046" lon="5.34245">
        <ele>1022.5</ele>
        <time>2022-04-03T08:40:34Z</time>
      </trkpt>
      <trkpt lat="44.51046" lon="5.3425">
        <ele>1022.5</ele>
        <time>2022-04-03T08:40:54Z</time>
      </trkpt>
      <trkpt lat="44.51048" lon="5.34256">
        <ele>1023.94</ele>
        <time>2022-04-03T08:41:08Z</time>
      </trkpt>
      <trkpt lat="44.51052" lon="5.34265">
        <ele>1025.86</ele>
        <time>2022-04-03T08:41:23Z</time>
      </trkpt>
      <trkpt lat="44.51055" lon="5.34278">
        <ele>1026.34</ele>
        <time>2022-04-03T08:41:37Z</time>
      </trkpt>
      <trkpt lat="44.51055" lon="5.34293">
        <ele>1027.79</ele>
        <time>2022-04-03T08:41:54Z</time>
      </trkpt>
      <trkpt lat="44.51058" lon="5.34302">
        <ele>1027.79</ele>
        <time>2022-04-03T08:42:08Z</time>
      </trkpt>
      <trkpt lat="44.51064" lon="5.34314">
        <ele>1024.42</ele>
        <time>2022-04-03T08:42:20Z</time>
      </trkpt>
      <trkpt lat="44.51065" lon="5.34325">
        <ele>1023.94</ele>
        <time>2022-04-03T08:42:31Z</time>
      </trkpt>
      <trkpt lat="44.51067" lon="5.34344">
        <ele>1022.98</ele>
        <time>2022-04-03T08:42:47Z</time>
      </trkpt>
      <trkpt lat="44.51072" lon="5.34353">
        <ele>1022.02</ele>
        <time>2022-04-03T08:43:00Z</time>
      </trkpt>
      <trkpt lat="44.51074" lon="5.34363">
        <ele>1020.1</ele>
        <time>2022-04-03T08:43:13Z</time>
      </trkpt>
      <trkpt lat="44.51079" lon="5.34363">
        <ele>1019.62</ele>
        <time>2022-04-03T08:43:30Z</time>
      </trkpt>
      <trkpt lat="44.5108" lon="5.34364">
        <ele>1019.62</ele>
        <time>2022-04-03T08:44:10Z</time>
      </trkpt>
      <trkpt lat="44.51078" lon="5.3437">
        <ele>1019.13</ele>
        <time>2022-04-03T08:44:27Z</time>
      </trkpt>
      <trkpt lat="44.51078" lon="5.34379">
        <ele>1018.65</ele>
        <time>2022-04-03T08:44:41Z</time>
      </trkpt>
      <trkpt lat="44.51076" lon="5.34384">
        <ele>1018.17</ele>
        <time>2022-04-03T08:44:54Z</time>
      </trkpt>
      <trkpt lat="44.51076" lon="5.34387">
        <ele>1017.69</ele>
        <time>2022-04-03T08:45:15Z</time>
      </trkpt>
      <trkpt lat="44.51079" lon="5.34394">
        <ele>1016.73</ele>
        <time>2022-04-03T08:45:30Z</time>
      </trkpt>
      <trkpt lat="44.51086" lon="5.34395">
        <ele>1013.37</ele>
        <time>2022-04-03T08:45:41Z</time>
      </trkpt>
      <trkpt lat="44.51086" lon="5.34402">
        <ele>1011.44</ele>
        <time>2022-04-03T08:45:55Z</time>
      </trkpt>
      <trkpt lat="44.51089" lon="5.34415">
        <ele>1008.56</ele>
        <time>2022-04-03T08:46:10Z</time>
      </trkpt>
      <trkpt lat="44.51088" lon="5.34424">
        <ele>1006.64</ele>
        <time>2022-04-03T08:46:23Z</time>
      </trkpt>
      <trkpt lat="44.51089" lon="5.34439">
        <ele>1005.2</ele>
        <time>2022-04-03T08:46:37Z</time>
      </trkpt>
      <trkpt lat="44.51088" lon="5.34443">
        <ele>1005.2</ele>
        <time>2022-04-03T08:46:48Z</time>
      </trkpt>
      <trkpt lat="44.51086" lon="5.34449">
        <ele>1003.27</ele>
        <time>2022-04-03T08:46:58Z</time>
      </trkpt>
      <trkpt lat="44.5109" lon="5.34451">
        <ele>1002.31</ele>
        <time>2022-04-03T08:47:13Z</time>
      </trkpt>
      <trkpt lat="44.51094" lon="5.34442">
        <ele>1000.39</ele>
        <time>2022-04-03T08:47:28Z</time>
      </trkpt>
      <trkpt lat="44.51099" lon="5.34434">
        <ele>998.95</ele>
        <time>2022-04-03T08:47:41Z</time>
      </trkpt>
      <trkpt lat="44.51104" lon="5.34427">
        <ele>997.99</ele>
        <time>2022-04-03T08:47:57Z</time>
      </trkpt>
      <trkpt lat="44.51108" lon="5.34423">
        <ele>996.54</ele>
        <time>2022-04-03T08:48:10Z</time>
      </trkpt>
      <trkpt lat="44.51113" lon="5.3442">
        <ele>995.1</ele>
        <time>2022-04-03T08:48:25Z</time>
      </trkpt>
      <trkpt lat="44.51118" lon="5.34419">
        <ele>992.7</ele>
        <time>2022-04-03T08:48:42Z</time>
      </trkpt>
      <trkpt lat="44.51124" lon="5.34412">
        <ele>990.3</ele>
        <time>2022-04-03T08:49:00Z</time>
      </trkpt>
      <trkpt lat="44.51128" lon="5.34411">
        <ele>987.89</ele>
        <time>2022-04-03T08:49:17Z</time>
      </trkpt>
      <trkpt lat="44.51132" lon="5.3441">
        <ele>985.49</ele>
        <time>2022-04-03T08:49:30Z</time>
      </trkpt>
      <trkpt lat="44.51137" lon="5.34405">
        <ele>983.09</ele>
        <time>2022-04-03T08:49:44Z</time>
      </trkpt>
      <trkpt lat="44.51142" lon="5.34403">
        <ele>981.16</ele>
        <time>2022-04-03T08:49:57Z</time>
      </trkpt>
      <trkpt lat="44.51147" lon="5.34401">
        <ele>977.8</ele>
        <time>2022-04-03T08:50:08Z</time>
      </trkpt>
      <trkpt lat="44.5115" lon="5.34399">
        <ele>974.43</ele>
        <time>2022-04-03T08:50:19Z</time>
      </trkpt>
      <trkpt lat="44.51151" lon="5.34403">
        <ele>971.55</ele>
        <time>2022-04-03T08:50:34Z</time>
      </trkpt>
      <trkpt lat="44.51153" lon="5.34402">
        <ele>969.63</ele>
        <time>2022-04-03T08:50:49Z</time>
      </trkpt>
      <trkpt lat="44.5116" lon="5.34401">
        <ele>967.7</ele>
        <time>2022-04-03T08:51:04Z</time>
      </trkpt>
      <trkpt lat="44.51166" lon="5.344">
        <ele>964.34</ele>
        <time>2022-04-03T08:51:18Z</time>
      </trkpt>
      <trkpt lat="44.5117" lon="5.34402">
        <ele>960.98</ele>
        <time>2022-04-03T08:51:34Z</time>
      </trkpt>
      <trkpt lat="44.51177" lon="5.34405">
        <ele>959.53</ele>
        <time>2022-04-03T08:51:49Z</time>
      </trkpt>
      <trkpt lat="44.51177" lon="5.34412">
        <ele>957.61</ele>
        <time>2022-04-03T08:52:02Z</time>
      </trkpt>
      <trkpt lat="44.51176" lon="5.34418">
        <ele>956.17</ele>
        <time>2022-04-03T08:52:19Z</time>
      </trkpt>
      <trkpt lat="44.51179" lon="5.34421">
        <ele>953.28</ele>
        <time>2022-04-03T08:52:32Z</time>
      </trkpt>
      <trkpt lat="44.51182" lon="5.34418">
        <ele>951.36</ele>
        <time>2022-04-03T08:52:46Z</time>
      </trkpt>
      <trkpt lat="44.51185" lon="5.34414">
        <ele>948.48</ele>
        <time>2022-04-03T08:53:01Z</time>
      </trkpt>
      <trkpt lat="44.51191" lon="5.3441">
        <ele>946.07</ele>
        <time>2022-04-03T08:53:13Z</time>
      </trkpt>
      <trkpt lat="44.51193" lon="5.34413">
        <ele>943.67</ele>
        <time>2022-04-03T08:53:26Z</time>
      </trkpt>
      <trkpt lat="44.51197" lon="5.3441">
        <ele>942.23</ele>
        <time>2022-04-03T08:53:39Z</time>
      </trkpt>
      <trkpt lat="44.512" lon="5.34407">
        <ele>938.86</ele>
        <time>2022-04-03T08:53:50Z</time>
      </trkpt>
      <trkpt lat="44.51204" lon="5.34401">
        <ele>935.98</ele>
        <time>2022-04-03T08:54:02Z</time>
      </trkpt>
      <trkpt lat="44.51209" lon="5.34391">
        <ele>935.5</ele>
        <time>2022-04-03T08:54:17Z</time>
      </trkpt>
      <trkpt lat="44.5121" lon="5.34383">
        <ele>935.02</ele>
        <time>2022-04-03T08:54:37Z</time>
      </trkpt>
      <trkpt lat="44.51216" lon="5.34378">
        <ele>934.06</ele>
        <time>2022-04-03T08:55:02Z</time>
      </trkpt>
      <trkpt lat="44.51222" lon="5.34378">
        <ele>933.58</ele>
        <time>2022-04-03T08:55:23Z</time>
      </trkpt>
      <trkpt lat="44.51226" lon="5.34378">
        <ele>931.17</ele>
        <time>2022-04-03T08:55:41Z</time>
      </trkpt>
      <trkpt lat="44.51231" lon="5.34383">
        <ele>928.77</ele>
        <time>2022-04-03T08:55:54Z</time>
      </trkpt>
      <trkpt lat="44.51231" lon="5.34389">
        <ele>927.33</ele>
        <time>2022-04-03T08:56:08Z</time>
      </trkpt>
      <trkpt lat="44.51233" lon="5.34391">
        <ele>925.41</ele>
        <time>2022-04-03T08:56:28Z</time>
      </trkpt>
      <trkpt lat="44.51237" lon="5.34389">
        <ele>923.96</ele>
        <time>2022-04-03T08:56:45Z</time>
      </trkpt>
      <trkpt lat="44.5124" lon="5.34386">
        <ele>922.04</ele>
        <time>2022-04-03T08:57:04Z</time>
      </trkpt>
      <trkpt lat="44.51241" lon="5.34391">
        <ele>920.12</ele>
        <time>2022-04-03T08:57:20Z</time>
      </trkpt>
      <trkpt lat="44.51241" lon="5.34396">
        <ele>916.75</ele>
        <time>2022-04-03T08:57:36Z</time>
      </trkpt>
      <trkpt lat="44.51239" lon="5.34398">
        <ele>915.31</ele>
        <time>2022-04-03T08:58:15Z</time>
      </trkpt>
      <trkpt lat="44.51241" lon="5.34398">
        <ele>914.83</ele>
        <time>2022-04-03T08:58:38Z</time>
      </trkpt>
      <trkpt lat="44.51244" lon="5.34397">
        <ele>912.91</ele>
        <time>2022-04-03T08:58:52Z</time>
      </trkpt>
      <trkpt lat="44.51245" lon="5.34396">
        <ele>910.99</ele>
        <time>2022-04-03T08:59:10Z</time>
      </trkpt>
      <trkpt lat="44.5125" lon="5.34393">
        <ele>908.58</ele>
        <time>2022-04-03T08:59:29Z</time>
      </trkpt>
      <trkpt lat="44.51255" lon="5.344">
        <ele>905.7</ele>
        <time>2022-04-03T08:59:43Z</time>
      </trkpt>
      <trkpt lat="44.51255" lon="5.34406">
        <ele>903.78</ele>
        <time>2022-04-03T08:59:57Z</time>
      </trkpt>
      <trkpt lat="44.51254" lon="5.34412">
        <ele>901.85</ele>
        <time>2022-04-03T09:00:10Z</time>
      </trkpt>
      <trkpt lat="44.51251" lon="5.34417">
        <ele>899.45</ele>
        <time>2022-04-03T09:00:28Z</time>
      </trkpt>
      <trkpt lat="44.51249" lon="5.34421">
        <ele>898.49</ele>
        <time>2022-04-03T09:00:41Z</time>
      </trkpt>
      <trkpt lat="44.51246" lon="5.34428">
        <ele>896.57</ele>
        <time>2022-04-03T09:00:56Z</time>
      </trkpt>
      <trkpt lat="44.51243" lon="5.34436">
        <ele>893.68</ele>
        <time>2022-04-03T09:01:14Z</time>
      </trkpt>
      <trkpt lat="44.51244" lon="5.34441">
        <ele>891.76</ele>
        <time>2022-04-03T09:01:34Z</time>
      </trkpt>
      <trkpt lat="44.51243" lon="5.34445">
        <ele>889.84</ele>
        <time>2022-04-03T09:01:49Z</time>
      </trkpt>
      <trkpt lat="44.51241" lon="5.34451">
        <ele>887.91</ele>
        <time>2022-04-03T09:02:03Z</time>
      </trkpt>
      <trkpt lat="44.5124" lon="5.34454">
        <ele>885.99</ele>
        <time>2022-04-03T09:02:20Z</time>
      </trkpt>
      <trkpt lat="44.51239" lon="5.34456">
        <ele>885.51</ele>
        <time>2022-04-03T09:02:37Z</time>
      </trkpt>
      <trkpt lat="44.51238" lon="5.34458">
        <ele>884.07</ele>
        <time>2022-04-03T09:02:53Z</time>
      </trkpt>
      <trkpt lat="44.51236" lon="5.34465">
        <ele>881.67</ele>
        <time>2022-04-03T09:03:09Z</time>
      </trkpt>
      <trkpt lat="44.51229" lon="5.34471">
        <ele>880.71</ele>
        <time>2022-04-03T09:03:20Z</time>
      </trkpt>
      <trkpt lat="44.51219" lon="5.34481">
        <ele>879.74</ele>
        <time>2022-04-03T09:03:34Z</time>
      </trkpt>
      <trkpt lat="44.51209" lon="5.34492">
        <ele>879.74</ele>
        <time>2022-04-03T09:03:50Z</time>
      </trkpt>
      <trkpt lat="44.51197" lon="5.34499">
        <ele>879.74</ele>
        <time>2022-04-03T09:04:04Z</time>
      </trkpt>
      <trkpt lat="44.51194" lon="5.34507">
        <ele>879.74</ele>
        <time>2022-04-03T09:04:18Z</time>
      </trkpt>
      <trkpt lat="44.51189" lon="5.34515">
        <ele>879.74</ele>
        <time>2022-04-03T09:04:33Z</time>
      </trkpt>
      <trkpt lat="44.51182" lon="5.34525">
        <ele>879.26</ele>
        <time>2022-04-03T09:04:47Z</time>
      </trkpt>
      <trkpt lat="44.51172" lon="5.34538">
        <ele>877.34</ele>
        <time>2022-04-03T09:05:02Z</time>
      </trkpt>
      <trkpt lat="44.51166" lon="5.34553">
        <ele>876.38</ele>
        <time>2022-04-03T09:05:16Z</time>
      </trkpt>
      <trkpt lat="44.51161" lon="5.34572">
        <ele>875.9</ele>
        <time>2022-04-03T09:05:32Z</time>
      </trkpt>
      <trkpt lat="44.51156" lon="5.34582">
        <ele>874.46</ele>
        <time>2022-04-03T09:05:44Z</time>
      </trkpt>
      <trkpt lat="44.51148" lon="5.34595">
        <ele>873.5</ele>
        <time>2022-04-03T09:06:00Z</time>
      </trkpt>
      <trkpt lat="44.51142" lon="5.34609">
        <ele>872.05</ele>
        <time>2022-04-03T09:06:16Z</time>
      </trkpt>
      <trkpt lat="44.51133" lon="5.34621">
        <ele>872.05</ele>
        <time>2022-04-03T09:06:32Z</time>
      </trkpt>
      <trkpt lat="44.51128" lon="5.34626">
        <ele>873.01</ele>
        <time>2022-04-03T09:06:40Z</time>
      </trkpt>
      <trkpt lat="44.51126" lon="5.34628">
        <ele>873.01</ele>
        <time>2022-04-03T09:06:42Z</time>
      </trkpt>
      <trkpt lat="44.5112" lon="5.34642">
        <ele>873.98</ele>
        <time>2022-04-03T09:06:57Z</time>
      </trkpt>
      <trkpt lat="44.51119" lon="5.3465">
        <ele>873.98</ele>
        <time>2022-04-03T09:07:04Z</time>
      </trkpt>
      <trkpt lat="44.51118" lon="5.34661">
        <ele>872.53</ele>
        <time>2022-04-03T09:07:13Z</time>
      </trkpt>
      <trkpt lat="44.51118" lon="5.34668">
        <ele>872.53</ele>
        <time>2022-04-03T09:07:20Z</time>
      </trkpt>
      <trkpt lat="44.51117" lon="5.3467">
        <ele>873.01</ele>
        <time>2022-04-03T09:07:22Z</time>
      </trkpt>
      <trkpt lat="44.51115" lon="5.34681">
        <ele>873.01</ele>
        <time>2022-04-03T09:07:33Z</time>
      </trkpt>
      <trkpt lat="44.51113" lon="5.34682">
        <ele>873.98</ele>
        <time>2022-04-03T09:07:38Z</time>
      </trkpt>
      <trkpt lat="44.51104" lon="5.34683">
        <ele>873.01</ele>
        <time>2022-04-03T09:07:53Z</time>
      </trkpt>
      <trkpt lat="44.51096" lon="5.34677">
        <ele>871.09</ele>
        <time>2022-04-03T09:08:07Z</time>
      </trkpt>
      <trkpt lat="44.51092" lon="5.3467">
        <ele>868.69</ele>
        <time>2022-04-03T09:08:22Z</time>
      </trkpt>
      <trkpt lat="44.51091" lon="5.34658">
        <ele>866.29</ele>
        <time>2022-04-03T09:08:38Z</time>
      </trkpt>
      <trkpt lat="44.51092" lon="5.34653">
        <ele>866.29</ele>
        <time>2022-04-03T09:08:54Z</time>
      </trkpt>
      <trkpt lat="44.51088" lon="5.34648">
        <ele>864.84</ele>
        <time>2022-04-03T09:09:13Z</time>
      </trkpt>
      <trkpt lat="44.51078" lon="5.34644">
        <ele>861.96</ele>
        <time>2022-04-03T09:09:27Z</time>
      </trkpt>
      <trkpt lat="44.51071" lon="5.34635">
        <ele>861</ele>
        <time>2022-04-03T09:09:41Z</time>
      </trkpt>
      <trkpt lat="44.51067" lon="5.34633">
        <ele>859.08</ele>
        <time>2022-04-03T09:10:02Z</time>
      </trkpt>
      <trkpt lat="44.51063" lon="5.3463">
        <ele>859.08</ele>
        <time>2022-04-03T09:10:15Z</time>
      </trkpt>
      <trkpt lat="44.51061" lon="5.34628">
        <ele>856.67</ele>
        <time>2022-04-03T09:10:33Z</time>
      </trkpt>
      <trkpt lat="44.51056" lon="5.34626">
        <ele>853.79</ele>
        <time>2022-04-03T09:10:48Z</time>
      </trkpt>
      <trkpt lat="44.51049" lon="5.34624">
        <ele>850.9</ele>
        <time>2022-04-03T09:11:02Z</time>
      </trkpt>
      <trkpt lat="44.51039" lon="5.34621">
        <ele>847.54</ele>
        <time>2022-04-03T09:11:16Z</time>
      </trkpt>
      <trkpt lat="44.51029" lon="5.34621">
        <ele>844.18</ele>
        <time>2022-04-03T09:11:28Z</time>
      </trkpt>
      <trkpt lat="44.5102" lon="5.34622">
        <ele>841.77</ele>
        <time>2022-04-03T09:11:41Z</time>
      </trkpt>
      <trkpt lat="44.51012" lon="5.34619">
        <ele>838.89</ele>
        <time>2022-04-03T09:11:54Z</time>
      </trkpt>
      <trkpt lat="44.51003" lon="5.34613">
        <ele>836</ele>
        <time>2022-04-03T09:12:05Z</time>
      </trkpt>
      <trkpt lat="44.50998" lon="5.34606">
        <ele>832.64</ele>
        <time>2022-04-03T09:12:17Z</time>
      </trkpt>
      <trkpt lat="44.50995" lon="5.34616">
        <ele>829.27</ele>
        <time>2022-04-03T09:12:29Z</time>
      </trkpt>
      <trkpt lat="44.50995" lon="5.34627">
        <ele>826.39</ele>
        <time>2022-04-03T09:12:41Z</time>
      </trkpt>
      <trkpt lat="44.50999" lon="5.34637">
        <ele>823.03</ele>
        <time>2022-04-03T09:12:52Z</time>
      </trkpt>
      <trkpt lat="44.50999" lon="5.34645">
        <ele>820.14</ele>
        <time>2022-04-03T09:13:03Z</time>
      </trkpt>
      <trkpt lat="44.5099" lon="5.3464">
        <ele>816.78</ele>
        <time>2022-04-03T09:13:15Z</time>
      </trkpt>
      <trkpt lat="44.50982" lon="5.34639">
        <ele>814.85</ele>
        <time>2022-04-03T09:13:24Z</time>
      </trkpt>
      <trkpt lat="44.50981" lon="5.3465">
        <ele>812.45</ele>
        <time>2022-04-03T09:13:38Z</time>
      </trkpt>
      <trkpt lat="44.50983" lon="5.34662">
        <ele>809.09</ele>
        <time>2022-04-03T09:13:54Z</time>
      </trkpt>
      <trkpt lat="44.50989" lon="5.34675">
        <ele>806.2</ele>
        <time>2022-04-03T09:14:09Z</time>
      </trkpt>
      <trkpt lat="44.50994" lon="5.34681">
        <ele>802.84</ele>
        <time>2022-04-03T09:14:22Z</time>
      </trkpt>
      <trkpt lat="44.50996" lon="5.34685">
        <ele>801.88</ele>
        <time>2022-04-03T09:14:26Z</time>
      </trkpt>
      <trkpt lat="44.51006" lon="5.34698">
        <ele>798.99</ele>
        <time>2022-04-03T09:14:42Z</time>
      </trkpt>
      <trkpt lat="44.51008" lon="5.34699">
        <ele>798.51</ele>
        <time>2022-04-03T09:14:59Z</time>
      </trkpt>
      <trkpt lat="44.51012" lon="5.34707">
        <ele>795.15</ele>
        <time>2022-04-03T09:15:13Z</time>
      </trkpt>
      <trkpt lat="44.51018" lon="5.34716">
        <ele>792.26</ele>
        <time>2022-04-03T09:15:24Z</time>
      </trkpt>
      <trkpt lat="44.51019" lon="5.34716">
        <ele>791.78</ele>
        <time>2022-04-03T09:15:26Z</time>
      </trkpt>
      <trkpt lat="44.51033" lon="5.34721">
        <ele>790.34</ele>
        <time>2022-04-03T09:15:40Z</time>
      </trkpt>
      <trkpt lat="44.51044" lon="5.34726">
        <ele>787.94</ele>
        <time>2022-04-03T09:15:53Z</time>
      </trkpt>
      <trkpt lat="44.51056" lon="5.3473">
        <ele>785.53</ele>
        <time>2022-04-03T09:16:08Z</time>
      </trkpt>
      <trkpt lat="44.51065" lon="5.3473">
        <ele>783.61</ele>
        <time>2022-04-03T09:16:22Z</time>
      </trkpt>
      <trkpt lat="44.51076" lon="5.34736">
        <ele>781.21</ele>
        <time>2022-04-03T09:16:36Z</time>
      </trkpt>
      <trkpt lat="44.51078" lon="5.34738">
        <ele>779.77</ele>
        <time>2022-04-03T09:16:39Z</time>
      </trkpt>
      <trkpt lat="44.51089" lon="5.34748">
        <ele>776.88</ele>
        <time>2022-04-03T09:16:52Z</time>
      </trkpt>
      <trkpt lat="44.51096" lon="5.34754">
        <ele>774.96</ele>
        <time>2022-04-03T09:16:59Z</time>
      </trkpt>
      <trkpt lat="44.51107" lon="5.34747">
        <ele>773.04</ele>
        <time>2022-04-03T09:17:10Z</time>
      </trkpt>
      <trkpt lat="44.51109" lon="5.34746">
        <ele>773.04</ele>
        <time>2022-04-03T09:17:12Z</time>
      </trkpt>
      <trkpt lat="44.51122" lon="5.34746">
        <ele>770.15</ele>
        <time>2022-04-03T09:17:25Z</time>
      </trkpt>
      <trkpt lat="44.51131" lon="5.34747">
        <ele>767.75</ele>
        <time>2022-04-03T09:17:37Z</time>
      </trkpt>
      <trkpt lat="44.51135" lon="5.34748">
        <ele>766.79</ele>
        <time>2022-04-03T09:17:41Z</time>
      </trkpt>
      <trkpt lat="44.51142" lon="5.34752">
        <ele>764.87</ele>
        <time>2022-04-03T09:17:52Z</time>
      </trkpt>
      <trkpt lat="44.51146" lon="5.34756">
        <ele>763.9</ele>
        <time>2022-04-03T09:17:55Z</time>
      </trkpt>
      <trkpt lat="44.51148" lon="5.34757">
        <ele>762.46</ele>
        <time>2022-04-03T09:17:56Z</time>
      </trkpt>
      <trkpt lat="44.51149" lon="5.34757">
        <ele>762.46</ele>
        <time>2022-04-03T09:17:57Z</time>
      </trkpt>
      <trkpt lat="44.51156" lon="5.34754">
        <ele>762.46</ele>
        <time>2022-04-03T09:18:11Z</time>
      </trkpt>
      <trkpt lat="44.51164" lon="5.34757">
        <ele>764.39</ele>
        <time>2022-04-03T09:20:24Z</time>
      </trkpt>
      <trkpt lat="44.51173" lon="5.34752">
        <ele>765.35</ele>
        <time>2022-04-03T09:20:34Z</time>
      </trkpt>
      <trkpt lat="44.51193" lon="5.34747">
        <ele>766.79</ele>
        <time>2022-04-03T09:20:50Z</time>
      </trkpt>
      <trkpt lat="44.51216" lon="5.34722">
        <ele>768.23</ele>
        <time>2022-04-03T09:21:06Z</time>
      </trkpt>
      <trkpt lat="44.51239" lon="5.3471">
        <ele>769.19</ele>
        <time>2022-04-03T09:21:21Z</time>
      </trkpt>
      <trkpt lat="44.5124" lon="5.3471">
        <ele>769.19</ele>
        <time>2022-04-03T09:21:22Z</time>
      </trkpt>
      <trkpt lat="44.51242" lon="5.3471">
        <ele>769.19</ele>
        <time>2022-04-03T09:21:23Z</time>
      </trkpt>
      <trkpt lat="44.51243" lon="5.3471">
        <ele>769.19</ele>
        <time>2022-04-03T09:21:24Z</time>
      </trkpt>
      <trkpt lat="44.51245" lon="5.3471">
        <ele>769.19</ele>
        <time>2022-04-03T09:21:25Z</time>
      </trkpt>
      <trkpt lat="44.51246" lon="5.3471">
        <ele>769.67</ele>
        <time>2022-04-03T09:21:26Z</time>
      </trkpt>
      <trkpt lat="44.51252" lon="5.34709">
        <ele>770.15</ele>
        <time>2022-04-03T09:21:29Z</time>
      </trkpt>
      <trkpt lat="44.51269" lon="5.34694">
        <ele>771.11</ele>
        <time>2022-04-03T09:21:42Z</time>
      </trkpt>
      <trkpt lat="44.51272" lon="5.34692">
        <ele>772.56</ele>
        <time>2022-04-03T09:21:44Z</time>
      </trkpt>
      <trkpt lat="44.51286" lon="5.34678">
        <ele>772.08</ele>
        <time>2022-04-03T09:21:57Z</time>
      </trkpt>
      <trkpt lat="44.51295" lon="5.34674">
        <ele>773.04</ele>
        <time>2022-04-03T09:22:12Z</time>
      </trkpt>
      <trkpt lat="44.51296" lon="5.3467">
        <ele>773.04</ele>
        <time>2022-04-03T09:22:15Z</time>
      </trkpt>
      <trkpt lat="44.513" lon="5.34662">
        <ele>774</ele>
        <time>2022-04-03T09:22:21Z</time>
      </trkpt>
      <trkpt lat="44.51302" lon="5.34659">
        <ele>774</ele>
        <time>2022-04-03T09:22:22Z</time>
      </trkpt>
      <trkpt lat="44.51303" lon="5.34657">
        <ele>774</ele>
        <time>2022-04-03T09:22:23Z</time>
      </trkpt>
      <trkpt lat="44.51322" lon="5.34633">
        <ele>776.88</ele>
        <time>2022-04-03T09:22:40Z</time>
      </trkpt>
      <trkpt lat="44.51339" lon="5.34608">
        <ele>779.29</ele>
        <time>2022-04-03T09:22:55Z</time>
      </trkpt>
      <trkpt lat="44.51357" lon="5.34587">
        <ele>779.77</ele>
        <time>2022-04-03T09:23:10Z</time>
      </trkpt>
      <trkpt lat="44.5138" lon="5.34571">
        <ele>781.69</ele>
        <time>2022-04-03T09:23:27Z</time>
      </trkpt>
      <trkpt lat="44.51382" lon="5.3457">
        <ele>782.17</ele>
        <time>2022-04-03T09:23:29Z</time>
      </trkpt>
      <trkpt lat="44.51383" lon="5.34569">
        <ele>782.17</ele>
        <time>2022-04-03T09:23:30Z</time>
      </trkpt>
      <trkpt lat="44.51384" lon="5.34569">
        <ele>782.65</ele>
        <time>2022-04-03T09:23:31Z</time>
      </trkpt>
      <trkpt lat="44.51403" lon="5.34559">
        <ele>784.09</ele>
        <time>2022-04-03T09:23:47Z</time>
      </trkpt>
      <trkpt lat="44.51423" lon="5.34549">
        <ele>786.5</ele>
        <time>2022-04-03T09:24:02Z</time>
      </trkpt>
      <trkpt lat="44.51447" lon="5.34539">
        <ele>787.94</ele>
        <time>2022-04-03T09:24:20Z</time>
      </trkpt>
      <trkpt lat="44.51468" lon="5.34527">
        <ele>789.86</ele>
        <time>2022-04-03T09:24:39Z</time>
      </trkpt>
      <trkpt lat="44.51485" lon="5.3452">
        <ele>791.3</ele>
        <time>2022-04-03T09:24:54Z</time>
      </trkpt>
      <trkpt lat="44.51503" lon="5.34507">
        <ele>792.74</ele>
        <time>2022-04-03T09:25:12Z</time>
      </trkpt>
      <trkpt lat="44.51516" lon="5.34503">
        <ele>793.22</ele>
        <time>2022-04-03T09:25:25Z</time>
      </trkpt>
      <trkpt lat="44.51516" lon="5.34508">
        <ele>793.71</ele>
        <time>2022-04-03T09:25:30Z</time>
      </trkpt>
      <trkpt lat="44.51507" lon="5.34521">
        <ele>795.15</ele>
        <time>2022-04-03T09:25:44Z</time>
      </trkpt>
      <trkpt lat="44.51495" lon="5.34533">
        <ele>796.11</ele>
        <time>2022-04-03T09:25:57Z</time>
      </trkpt>
      <trkpt lat="44.51482" lon="5.34546">
        <ele>796.59</ele>
        <time>2022-04-03T09:26:11Z</time>
      </trkpt>
      <trkpt lat="44.51466" lon="5.34559">
        <ele>798.03</ele>
        <time>2022-04-03T09:26:26Z</time>
      </trkpt>
      <trkpt lat="44.51451" lon="5.34571">
        <ele>798.99</ele>
        <time>2022-04-03T09:26:41Z</time>
      </trkpt>
      <trkpt lat="44.51438" lon="5.34583">
        <ele>800.44</ele>
        <time>2022-04-03T09:26:56Z</time>
      </trkpt>
      <trkpt lat="44.51433" lon="5.34587">
        <ele>801.4</ele>
        <time>2022-04-03T09:27:08Z</time>
      </trkpt>
      <trkpt lat="44.51431" lon="5.34588">
        <ele>799.47</ele>
        <time>2022-04-03T09:27:19Z</time>
      </trkpt>
      <trkpt lat="44.51428" lon="5.34586">
        <ele>799.47</ele>
        <time>2022-04-03T09:27:35Z</time>
      </trkpt>
      <trkpt lat="44.51427" lon="5.34585">
        <ele>799.47</ele>
        <time>2022-04-03T09:27:59Z</time>
      </trkpt>
      <trkpt lat="44.51426" lon="5.34584">
        <ele>802.36</ele>
        <time>2022-04-03T09:30:44Z</time>
      </trkpt>
      <trkpt lat="44.51425" lon="5.34581">
        <ele>802.84</ele>
        <time>2022-04-03T09:31:05Z</time>
      </trkpt>
      <trkpt lat="44.51422" lon="5.34586">
        <ele>803.8</ele>
        <time>2022-04-03T09:31:17Z</time>
      </trkpt>
      <trkpt lat="44.51418" lon="5.34589">
        <ele>803.8</ele>
        <time>2022-04-03T09:31:31Z</time>
      </trkpt>
      <trkpt lat="44.51412" lon="5.34597">
        <ele>806.68</ele>
        <time>2022-04-03T09:31:48Z</time>
      </trkpt>
      <trkpt lat="44.51405" lon="5.34605">
        <ele>809.09</ele>
        <time>2022-04-03T09:32:02Z</time>
      </trkpt>
      <trkpt lat="44.51399" lon="5.34614">
        <ele>811.97</ele>
        <time>2022-04-03T09:32:20Z</time>
      </trkpt>
      <trkpt lat="44.51394" lon="5.34623">
        <ele>813.41</ele>
        <time>2022-04-03T09:32:35Z</time>
      </trkpt>
      <trkpt lat="44.51389" lon="5.34631">
        <ele>815.82</ele>
        <time>2022-04-03T09:32:50Z</time>
      </trkpt>
      <trkpt lat="44.51381" lon="5.34639">
        <ele>818.22</ele>
        <time>2022-04-03T09:33:07Z</time>
      </trkpt>
      <trkpt lat="44.5138" lon="5.34644">
        <ele>820.62</ele>
        <time>2022-04-03T09:33:23Z</time>
      </trkpt>
      <trkpt lat="44.51388" lon="5.3464">
        <ele>822.55</ele>
        <time>2022-04-03T09:33:39Z</time>
      </trkpt>
      <trkpt lat="44.51395" lon="5.3464">
        <ele>825.91</ele>
        <time>2022-04-03T09:33:56Z</time>
      </trkpt>
      <trkpt lat="44.51402" lon="5.34639">
        <ele>827.83</ele>
        <time>2022-04-03T09:34:12Z</time>
      </trkpt>
      <trkpt lat="44.5141" lon="5.34639">
        <ele>830.24</ele>
        <time>2022-04-03T09:34:30Z</time>
      </trkpt>
      <trkpt lat="44.51417" lon="5.3464">
        <ele>833.12</ele>
        <time>2022-04-03T09:34:45Z</time>
      </trkpt>
      <trkpt lat="44.51422" lon="5.3464">
        <ele>834.56</ele>
        <time>2022-04-03T09:35:00Z</time>
      </trkpt>
      <trkpt lat="44.51419" lon="5.34649">
        <ele>836.96</ele>
        <time>2022-04-03T09:35:16Z</time>
      </trkpt>
      <trkpt lat="44.51415" lon="5.3466">
        <ele>839.37</ele>
        <time>2022-04-03T09:35:31Z</time>
      </trkpt>
      <trkpt lat="44.51408" lon="5.34668">
        <ele>842.25</ele>
        <time>2022-04-03T09:35:46Z</time>
      </trkpt>
      <trkpt lat="44.51403" lon="5.34677">
        <ele>845.14</ele>
        <time>2022-04-03T09:36:00Z</time>
      </trkpt>
      <trkpt lat="44.51396" lon="5.34686">
        <ele>847.06</ele>
        <time>2022-04-03T09:36:15Z</time>
      </trkpt>
      <trkpt lat="44.51389" lon="5.34697">
        <ele>848.98</ele>
        <time>2022-04-03T09:36:30Z</time>
      </trkpt>
      <trkpt lat="44.51384" lon="5.34705">
        <ele>851.38</ele>
        <time>2022-04-03T09:36:45Z</time>
      </trkpt>
      <trkpt lat="44.51392" lon="5.34699">
        <ele>854.27</ele>
        <time>2022-04-03T09:37:59Z</time>
      </trkpt>
      <trkpt lat="44.51403" lon="5.347">
        <ele>857.15</ele>
        <time>2022-04-03T09:38:13Z</time>
      </trkpt>
      <trkpt lat="44.51417" lon="5.34699">
        <ele>860.04</ele>
        <time>2022-04-03T09:38:29Z</time>
      </trkpt>
      <trkpt lat="44.51416" lon="5.3471">
        <ele>862.44</ele>
        <time>2022-04-03T09:38:41Z</time>
      </trkpt>
      <trkpt lat="44.5141" lon="5.34722">
        <ele>864.84</ele>
        <time>2022-04-03T09:38:57Z</time>
      </trkpt>
      <trkpt lat="44.51402" lon="5.34733">
        <ele>867.25</ele>
        <time>2022-04-03T09:39:10Z</time>
      </trkpt>
      <trkpt lat="44.51394" lon="5.34745">
        <ele>870.13</ele>
        <time>2022-04-03T09:39:26Z</time>
      </trkpt>
      <trkpt lat="44.51397" lon="5.34743">
        <ele>872.05</ele>
        <time>2022-04-03T09:39:41Z</time>
      </trkpt>
      <trkpt lat="44.51401" lon="5.34744">
        <ele>873.01</ele>
        <time>2022-04-03T09:40:00Z</time>
      </trkpt>
      <trkpt lat="44.5141" lon="5.34747">
        <ele>875.42</ele>
        <time>2022-04-03T09:40:13Z</time>
      </trkpt>
      <trkpt lat="44.51422" lon="5.34746">
        <ele>877.82</ele>
        <time>2022-04-03T09:40:27Z</time>
      </trkpt>
      <trkpt lat="44.51427" lon="5.34753">
        <ele>879.74</ele>
        <time>2022-04-03T09:40:40Z</time>
      </trkpt>
      <trkpt lat="44.51419" lon="5.34765">
        <ele>882.15</ele>
        <time>2022-04-03T09:40:57Z</time>
      </trkpt>
      <trkpt lat="44.5141" lon="5.34774">
        <ele>885.03</ele>
        <time>2022-04-03T09:41:14Z</time>
      </trkpt>
      <trkpt lat="44.51404" lon="5.34782">
        <ele>886.95</ele>
        <time>2022-04-03T09:41:27Z</time>
      </trkpt>
      <trkpt lat="44.51395" lon="5.34793">
        <ele>889.84</ele>
        <time>2022-04-03T09:41:43Z</time>
      </trkpt>
      <trkpt lat="44.51398" lon="5.34795">
        <ele>891.76</ele>
        <time>2022-04-03T09:41:56Z</time>
      </trkpt>
      <trkpt lat="44.51409" lon="5.34799">
        <ele>893.68</ele>
        <time>2022-04-03T09:42:10Z</time>
      </trkpt>
      <trkpt lat="44.51417" lon="5.34804">
        <ele>896.09</ele>
        <time>2022-04-03T09:42:23Z</time>
      </trkpt>
      <trkpt lat="44.51427" lon="5.34806">
        <ele>898.01</ele>
        <time>2022-04-03T09:42:36Z</time>
      </trkpt>
      <trkpt lat="44.51423" lon="5.34815">
        <ele>899.93</ele>
        <time>2022-04-03T09:42:52Z</time>
      </trkpt>
      <trkpt lat="44.51419" lon="5.34824">
        <ele>900.89</ele>
        <time>2022-04-03T09:43:07Z</time>
      </trkpt>
      <trkpt lat="44.51412" lon="5.34829">
        <ele>902.33</ele>
        <time>2022-04-03T09:43:23Z</time>
      </trkpt>
      <trkpt lat="44.51405" lon="5.34838">
        <ele>905.7</ele>
        <time>2022-04-03T09:43:37Z</time>
      </trkpt>
      <trkpt lat="44.51398" lon="5.34847">
        <ele>908.58</ele>
        <time>2022-04-03T09:43:53Z</time>
      </trkpt>
      <trkpt lat="44.51386" lon="5.3486">
        <ele>911.47</ele>
        <time>2022-04-03T09:44:11Z</time>
      </trkpt>
      <trkpt lat="44.51378" lon="5.34868">
        <ele>913.39</ele>
        <time>2022-04-03T09:44:26Z</time>
      </trkpt>
      <trkpt lat="44.51371" lon="5.34879">
        <ele>917.24</ele>
        <time>2022-04-03T09:44:42Z</time>
      </trkpt>
      <trkpt lat="44.51365" lon="5.34891">
        <ele>920.12</ele>
        <time>2022-04-03T09:44:59Z</time>
      </trkpt>
      <trkpt lat="44.51361" lon="5.34902">
        <ele>922.52</ele>
        <time>2022-04-03T09:45:15Z</time>
      </trkpt>
      <trkpt lat="44.5136" lon="5.34902">
        <ele>922.52</ele>
        <time>2022-04-03T09:45:36Z</time>
      </trkpt>
      <trkpt lat="44.51362" lon="5.34907">
        <ele>923</ele>
        <time>2022-04-03T09:47:08Z</time>
      </trkpt>
      <trkpt lat="44.51365" lon="5.34915">
        <ele>925.89</ele>
        <time>2022-04-03T09:47:22Z</time>
      </trkpt>
      <trkpt lat="44.51367" lon="5.34922">
        <ele>928.77</ele>
        <time>2022-04-03T09:47:36Z</time>
      </trkpt>
      <trkpt lat="44.51368" lon="5.34928">
        <ele>930.69</ele>
        <time>2022-04-03T09:47:52Z</time>
      </trkpt>
      <trkpt lat="44.5137" lon="5.34933">
        <ele>933.1</ele>
        <time>2022-04-03T09:48:09Z</time>
      </trkpt>
      <trkpt lat="44.51374" lon="5.34937">
        <ele>935.5</ele>
        <time>2022-04-03T09:48:24Z</time>
      </trkpt>
      <trkpt lat="44.51377" lon="5.34943">
        <ele>937.9</ele>
        <time>2022-04-03T09:48:39Z</time>
      </trkpt>
      <trkpt lat="44.51383" lon="5.34945">
        <ele>940.31</ele>
        <time>2022-04-03T09:48:57Z</time>
      </trkpt>
      <trkpt lat="44.51387" lon="5.34952">
        <ele>943.19</ele>
        <time>2022-04-03T09:49:13Z</time>
      </trkpt>
      <trkpt lat="44.51391" lon="5.3496">
        <ele>946.56</ele>
        <time>2022-04-03T09:49:31Z</time>
      </trkpt>
      <trkpt lat="44.51393" lon="5.34967">
        <ele>948.96</ele>
        <time>2022-04-03T09:49:48Z</time>
      </trkpt>
      <trkpt lat="44.51391" lon="5.34974">
        <ele>951.84</ele>
        <time>2022-04-03T09:50:03Z</time>
      </trkpt>
      <trkpt lat="44.51395" lon="5.34981">
        <ele>955.21</ele>
        <time>2022-04-03T09:50:21Z</time>
      </trkpt>
      <trkpt lat="44.51398" lon="5.34988">
        <ele>957.13</ele>
        <time>2022-04-03T09:50:37Z</time>
      </trkpt>
      <trkpt lat="44.51396" lon="5.34999">
        <ele>960.49</ele>
        <time>2022-04-03T09:50:54Z</time>
      </trkpt>
      <trkpt lat="44.51397" lon="5.35006">
        <ele>963.38</ele>
        <time>2022-04-03T09:51:12Z</time>
      </trkpt>
      <trkpt lat="44.51395" lon="5.35016">
        <ele>966.26</ele>
        <time>2022-04-03T09:51:29Z</time>
      </trkpt>
      <trkpt lat="44.51395" lon="5.35022">
        <ele>969.63</ele>
        <time>2022-04-03T09:51:46Z</time>
      </trkpt>
      <trkpt lat="44.51394" lon="5.35027">
        <ele>971.55</ele>
        <time>2022-04-03T09:52:01Z</time>
      </trkpt>
      <trkpt lat="44.51396" lon="5.35033">
        <ele>974.91</ele>
        <time>2022-04-03T09:52:15Z</time>
      </trkpt>
      <trkpt lat="44.51395" lon="5.35042">
        <ele>977.8</ele>
        <time>2022-04-03T09:52:31Z</time>
      </trkpt>
      <trkpt lat="44.51395" lon="5.35051">
        <ele>980.2</ele>
        <time>2022-04-03T09:52:46Z</time>
      </trkpt>
      <trkpt lat="44.51392" lon="5.35059">
        <ele>983.09</ele>
        <time>2022-04-03T09:53:04Z</time>
      </trkpt>
      <trkpt lat="44.51391" lon="5.35064">
        <ele>985.01</ele>
        <time>2022-04-03T09:53:20Z</time>
      </trkpt>
      <trkpt lat="44.5139" lon="5.35068">
        <ele>985.49</ele>
        <time>2022-04-03T09:56:02Z</time>
      </trkpt>
      <trkpt lat="44.51392" lon="5.35076">
        <ele>988.37</ele>
        <time>2022-04-03T09:56:19Z</time>
      </trkpt>
      <trkpt lat="44.5139" lon="5.35085">
        <ele>991.74</ele>
        <time>2022-04-03T09:56:33Z</time>
      </trkpt>
      <trkpt lat="44.51388" lon="5.35093">
        <ele>994.62</ele>
        <time>2022-04-03T09:56:49Z</time>
      </trkpt>
      <trkpt lat="44.51385" lon="5.35101">
        <ele>997.02</ele>
        <time>2022-04-03T09:57:07Z</time>
      </trkpt>
      <trkpt lat="44.51383" lon="5.35109">
        <ele>999.91</ele>
        <time>2022-04-03T09:57:26Z</time>
      </trkpt>
      <trkpt lat="44.51382" lon="5.35114">
        <ele>1002.31</ele>
        <time>2022-04-03T09:57:41Z</time>
      </trkpt>
      <trkpt lat="44.51384" lon="5.35121">
        <ele>1005.68</ele>
        <time>2022-04-03T09:58:02Z</time>
      </trkpt>
      <trkpt lat="44.51382" lon="5.35127">
        <ele>1008.08</ele>
        <time>2022-04-03T09:58:16Z</time>
      </trkpt>
      <trkpt lat="44.51383" lon="5.35133">
        <ele>1010.96</ele>
        <time>2022-04-03T09:58:35Z</time>
      </trkpt>
      <trkpt lat="44.51382" lon="5.3514">
        <ele>1013.37</ele>
        <time>2022-04-03T09:58:52Z</time>
      </trkpt>
      <trkpt lat="44.5138" lon="5.35147">
        <ele>1016.73</ele>
        <time>2022-04-03T09:59:08Z</time>
      </trkpt>
      <trkpt lat="44.51375" lon="5.35153">
        <ele>1019.13</ele>
        <time>2022-04-03T09:59:23Z</time>
      </trkpt>
      <trkpt lat="44.51375" lon="5.3516">
        <ele>1022.02</ele>
        <time>2022-04-03T09:59:41Z</time>
      </trkpt>
      <trkpt lat="44.51377" lon="5.35164">
        <ele>1024.42</ele>
        <time>2022-04-03T09:59:58Z</time>
      </trkpt>
      <trkpt lat="44.51378" lon="5.3517">
        <ele>1026.83</ele>
        <time>2022-04-03T10:00:14Z</time>
      </trkpt>
      <trkpt lat="44.51378" lon="5.35176">
        <ele>1029.23</ele>
        <time>2022-04-03T10:00:30Z</time>
      </trkpt>
      <trkpt lat="44.51375" lon="5.35183">
        <ele>1031.63</ele>
        <time>2022-04-03T10:00:46Z</time>
      </trkpt>
      <trkpt lat="44.51373" lon="5.35188">
        <ele>1034.04</ele>
        <time>2022-04-03T10:01:01Z</time>
      </trkpt>
      <trkpt lat="44.51371" lon="5.35196">
        <ele>1037.4</ele>
        <time>2022-04-03T10:01:16Z</time>
      </trkpt>
      <trkpt lat="44.51366" lon="5.35202">
        <ele>1040.28</ele>
        <time>2022-04-03T10:01:32Z</time>
      </trkpt>
      <trkpt lat="44.51364" lon="5.35209">
        <ele>1042.69</ele>
        <time>2022-04-03T10:01:48Z</time>
      </trkpt>
      <trkpt lat="44.51364" lon="5.35215">
        <ele>1045.57</ele>
        <time>2022-04-03T10:02:07Z</time>
      </trkpt>
      <trkpt lat="44.51367" lon="5.35215">
        <ele>1046.53</ele>
        <time>2022-04-03T10:02:24Z</time>
      </trkpt>
      <trkpt lat="44.51372" lon="5.35223">
        <ele>1048.94</ele>
        <time>2022-04-03T10:02:39Z</time>
      </trkpt>
      <trkpt lat="44.51373" lon="5.3523">
        <ele>1051.82</ele>
        <time>2022-04-03T10:02:54Z</time>
      </trkpt>
      <trkpt lat="44.51372" lon="5.35238">
        <ele>1054.7</ele>
        <time>2022-04-03T10:03:13Z</time>
      </trkpt>
      <trkpt lat="44.51372" lon="5.35243">
        <ele>1056.15</ele>
        <time>2022-04-03T10:03:29Z</time>
      </trkpt>
      <trkpt lat="44.5137" lon="5.35244">
        <ele>1058.07</ele>
        <time>2022-04-03T10:03:48Z</time>
      </trkpt>
      <trkpt lat="44.5137" lon="5.35253">
        <ele>1060.95</ele>
        <time>2022-04-03T10:04:06Z</time>
      </trkpt>
      <trkpt lat="44.51363" lon="5.35259">
        <ele>1063.36</ele>
        <time>2022-04-03T10:04:25Z</time>
      </trkpt>
      <trkpt lat="44.51358" lon="5.35266">
        <ele>1066.72</ele>
        <time>2022-04-03T10:04:41Z</time>
      </trkpt>
      <trkpt lat="44.5135" lon="5.35273">
        <ele>1068.64</ele>
        <time>2022-04-03T10:04:57Z</time>
      </trkpt>
      <trkpt lat="44.51342" lon="5.35279">
        <ele>1070.57</ele>
        <time>2022-04-03T10:05:12Z</time>
      </trkpt>
      <trkpt lat="44.51338" lon="5.35284">
        <ele>1072.97</ele>
        <time>2022-04-03T10:05:28Z</time>
      </trkpt>
      <trkpt lat="44.51333" lon="5.35292">
        <ele>1073.45</ele>
        <time>2022-04-03T10:05:48Z</time>
      </trkpt>
      <trkpt lat="44.51322" lon="5.35306">
        <ele>1073.93</ele>
        <time>2022-04-03T10:06:06Z</time>
      </trkpt>
      <trkpt lat="44.51317" lon="5.35318">
        <ele>1075.37</ele>
        <time>2022-04-03T10:06:21Z</time>
      </trkpt>
      <trkpt lat="44.51318" lon="5.35322">
        <ele>1075.37</ele>
        <time>2022-04-03T10:06:38Z</time>
      </trkpt>
      <trkpt lat="44.5132" lon="5.3533">
        <ele>1076.33</ele>
        <time>2022-04-03T10:06:52Z</time>
      </trkpt>
      <trkpt lat="44.5132" lon="5.35341">
        <ele>1079.7</ele>
        <time>2022-04-03T10:07:08Z</time>
      </trkpt>
      <trkpt lat="44.51321" lon="5.35348">
        <ele>1082.1</ele>
        <time>2022-04-03T10:07:24Z</time>
      </trkpt>
      <trkpt lat="44.51323" lon="5.35355">
        <ele>1083.54</ele>
        <time>2022-04-03T10:07:40Z</time>
      </trkpt>
      <trkpt lat="44.51326" lon="5.35364">
        <ele>1083.54</ele>
        <time>2022-04-03T10:11:57Z</time>
      </trkpt>
      <trkpt lat="44.51327" lon="5.35372">
        <ele>1085.95</ele>
        <time>2022-04-03T10:12:14Z</time>
      </trkpt>
      <trkpt lat="44.51325" lon="5.35382">
        <ele>1087.87</ele>
        <time>2022-04-03T10:12:29Z</time>
      </trkpt>
      <trkpt lat="44.51328" lon="5.3539">
        <ele>1091.23</ele>
        <time>2022-04-03T10:12:47Z</time>
      </trkpt>
      <trkpt lat="44.51329" lon="5.35397">
        <ele>1093.64</ele>
        <time>2022-04-03T10:13:05Z</time>
      </trkpt>
      <trkpt lat="44.51329" lon="5.35404">
        <ele>1096.04</ele>
        <time>2022-04-03T10:13:21Z</time>
      </trkpt>
      <trkpt lat="44.51334" lon="5.35412">
        <ele>1099.4</ele>
        <time>2022-04-03T10:13:34Z</time>
      </trkpt>
      <trkpt lat="44.51331" lon="5.35422">
        <ele>1101.81</ele>
        <time>2022-04-03T10:13:51Z</time>
      </trkpt>
      <trkpt lat="44.5133" lon="5.35432">
        <ele>1104.21</ele>
        <time>2022-04-03T10:14:06Z</time>
      </trkpt>
      <trkpt lat="44.51329" lon="5.35442">
        <ele>1107.1</ele>
        <time>2022-04-03T10:14:21Z</time>
      </trkpt>
      <trkpt lat="44.51328" lon="5.35456">
        <ele>1109.98</ele>
        <time>2022-04-03T10:14:37Z</time>
      </trkpt>
      <trkpt lat="44.51329" lon="5.35466">
        <ele>1111.42</ele>
        <time>2022-04-03T10:14:50Z</time>
      </trkpt>
      <trkpt lat="44.51331" lon="5.35469">
        <ele>1111.9</ele>
        <time>2022-04-03T10:15:49Z</time>
      </trkpt>
      <trkpt lat="44.51337" lon="5.35468">
        <ele>1114.31</ele>
        <time>2022-04-03T10:16:05Z</time>
      </trkpt>
      <trkpt lat="44.51345" lon="5.35469">
        <ele>1117.67</ele>
        <time>2022-04-03T10:16:19Z</time>
      </trkpt>
      <trkpt lat="44.51352" lon="5.35467">
        <ele>1120.07</ele>
        <time>2022-04-03T10:16:33Z</time>
      </trkpt>
      <trkpt lat="44.51356" lon="5.35469">
        <ele>1122</ele>
        <time>2022-04-03T10:16:50Z</time>
      </trkpt>
      <trkpt lat="44.51363" lon="5.35467">
        <ele>1125.36</ele>
        <time>2022-04-03T10:17:05Z</time>
      </trkpt>
      <trkpt lat="44.51366" lon="5.35464">
        <ele>1126.32</ele>
        <time>2022-04-03T10:17:12Z</time>
      </trkpt>
      <trkpt lat="44.51372" lon="5.35454">
        <ele>1127.76</ele>
        <time>2022-04-03T10:17:28Z</time>
      </trkpt>
      <trkpt lat="44.51374" lon="5.35447">
        <ele>1128.73</ele>
        <time>2022-04-03T10:17:45Z</time>
      </trkpt>
      <trkpt lat="44.51379" lon="5.35442">
        <ele>1131.13</ele>
        <time>2022-04-03T10:18:02Z</time>
      </trkpt>
      <trkpt lat="44.51382" lon="5.35437">
        <ele>1132.57</ele>
        <time>2022-04-03T10:18:16Z</time>
      </trkpt>
      <trkpt lat="44.51382" lon="5.35434">
        <ele>1133.53</ele>
        <time>2022-04-03T10:18:37Z</time>
      </trkpt>
      <trkpt lat="44.51383" lon="5.35434">
        <ele>1135.94</ele>
        <time>2022-04-03T10:18:44Z</time>
      </trkpt>
      <trkpt lat="44.51389" lon="5.35438">
        <ele>1135.94</ele>
        <time>2022-04-03T10:19:02Z</time>
      </trkpt>
      <trkpt lat="44.51392" lon="5.35442">
        <ele>1137.38</ele>
        <time>2022-04-03T10:19:18Z</time>
      </trkpt>
      <trkpt lat="44.51392" lon="5.35453">
        <ele>1140.26</ele>
        <time>2022-04-03T10:19:36Z</time>
      </trkpt>
      <trkpt lat="44.51394" lon="5.35461">
        <ele>1142.66</ele>
        <time>2022-04-03T10:19:53Z</time>
      </trkpt>
      <trkpt lat="44.51395" lon="5.35464">
        <ele>1144.11</ele>
        <time>2022-04-03T10:19:58Z</time>
      </trkpt>
      <trkpt lat="44.51402" lon="5.35471">
        <ele>1144.59</ele>
        <time>2022-04-03T10:20:11Z</time>
      </trkpt>
      <trkpt lat="44.51405" lon="5.3548">
        <ele>1146.99</ele>
        <time>2022-04-03T10:20:26Z</time>
      </trkpt>
      <trkpt lat="44.51412" lon="5.3549">
        <ele>1149.39</ele>
        <time>2022-04-03T10:20:42Z</time>
      </trkpt>
      <trkpt lat="44.51417" lon="5.35498">
        <ele>1149.87</ele>
        <time>2022-04-03T10:20:57Z</time>
      </trkpt>
      <trkpt lat="44.51418" lon="5.35498">
        <ele>1149.87</ele>
        <time>2022-04-03T10:20:58Z</time>
      </trkpt>
      <trkpt lat="44.51418" lon="5.35499">
        <ele>1150.35</ele>
        <time>2022-04-03T10:21:00Z</time>
      </trkpt>
      <trkpt lat="44.51423" lon="5.35506">
        <ele>1150.84</ele>
        <time>2022-04-03T10:21:15Z</time>
      </trkpt>
      <trkpt lat="44.51421" lon="5.3551">
        <ele>1152.28</ele>
        <time>2022-04-03T10:21:28Z</time>
      </trkpt>
      <trkpt lat="44.51424" lon="5.35517">
        <ele>1153.72</ele>
        <time>2022-04-03T10:21:42Z</time>
      </trkpt>
      <trkpt lat="44.51426" lon="5.35519">
        <ele>1154.2</ele>
        <time>2022-04-03T10:21:56Z</time>
      </trkpt>
      <trkpt lat="44.51433" lon="5.35531">
        <ele>1154.68</ele>
        <time>2022-04-03T10:22:14Z</time>
      </trkpt>
      <trkpt lat="44.51436" lon="5.35541">
        <ele>1156.12</ele>
        <time>2022-04-03T10:22:28Z</time>
      </trkpt>
      <trkpt lat="44.51441" lon="5.3555">
        <ele>1158.05</ele>
        <time>2022-04-03T10:22:42Z</time>
      </trkpt>
      <trkpt lat="44.51444" lon="5.35558">
        <ele>1159.01</ele>
        <time>2022-04-03T10:22:56Z</time>
      </trkpt>
      <trkpt lat="44.51448" lon="5.35566">
        <ele>1160.45</ele>
        <time>2022-04-03T10:23:10Z</time>
      </trkpt>
      <trkpt lat="44.51449" lon="5.35567">
        <ele>1160.93</ele>
        <time>2022-04-03T10:23:28Z</time>
      </trkpt>
      <trkpt lat="44.51445" lon="5.35566">
        <ele>1162.85</ele>
        <time>2022-04-03T10:23:45Z</time>
      </trkpt>
      <trkpt lat="44.51443" lon="5.3557">
        <ele>1166.22</ele>
        <time>2022-04-03T10:24:00Z</time>
      </trkpt>
      <trkpt lat="44.51437" lon="5.35572">
        <ele>1168.14</ele>
        <time>2022-04-03T10:24:12Z</time>
      </trkpt>
      <trkpt lat="44.51435" lon="5.35579">
        <ele>1170.54</ele>
        <time>2022-04-03T10:24:26Z</time>
      </trkpt>
      <trkpt lat="44.51439" lon="5.35588">
        <ele>1172.47</ele>
        <time>2022-04-03T10:24:41Z</time>
      </trkpt>
      <trkpt lat="44.51442" lon="5.35591">
        <ele>1172.47</ele>
        <time>2022-04-03T10:24:57Z</time>
      </trkpt>
      <trkpt lat="44.51445" lon="5.35596">
        <ele>1172.95</ele>
        <time>2022-04-03T10:25:13Z</time>
      </trkpt>
      <trkpt lat="44.51449" lon="5.35602">
        <ele>1173.43</ele>
        <time>2022-04-03T10:25:28Z</time>
      </trkpt>
      <trkpt lat="44.51453" lon="5.35612">
        <ele>1175.35</ele>
        <time>2022-04-03T10:25:43Z</time>
      </trkpt>
      <trkpt lat="44.5146" lon="5.35621">
        <ele>1175.35</ele>
        <time>2022-04-03T10:25:58Z</time>
      </trkpt>
      <trkpt lat="44.51466" lon="5.35635">
        <ele>1177.27</ele>
        <time>2022-04-03T10:26:15Z</time>
      </trkpt>
      <trkpt lat="44.51471" lon="5.35642">
        <ele>1177.75</ele>
        <time>2022-04-03T10:26:25Z</time>
      </trkpt>
      <trkpt lat="44.51476" lon="5.35651">
        <ele>1178.71</ele>
        <time>2022-04-03T10:26:41Z</time>
      </trkpt>
      <trkpt lat="44.51485" lon="5.35659">
        <ele>1177.27</ele>
        <time>2022-04-03T10:26:55Z</time>
      </trkpt>
      <trkpt lat="44.51491" lon="5.35668">
        <ele>1177.27</ele>
        <time>2022-04-03T10:27:09Z</time>
      </trkpt>
      <trkpt lat="44.515" lon="5.35679">
        <ele>1176.79</ele>
        <time>2022-04-03T10:27:25Z</time>
      </trkpt>
      <trkpt lat="44.51503" lon="5.35686">
        <ele>1177.75</ele>
        <time>2022-04-03T10:27:34Z</time>
      </trkpt>
      <trkpt lat="44.51504" lon="5.35688">
        <ele>1177.75</ele>
        <time>2022-04-03T10:27:50Z</time>
      </trkpt>
      <trkpt lat="44.51509" lon="5.35694">
        <ele>1176.31</ele>
        <time>2022-04-03T10:27:59Z</time>
      </trkpt>
      <trkpt lat="44.51521" lon="5.35713">
        <ele>1175.35</ele>
        <time>2022-04-03T10:28:17Z</time>
      </trkpt>
      <trkpt lat="44.51522" lon="5.35719">
        <ele>1175.35</ele>
        <time>2022-04-03T10:28:24Z</time>
      </trkpt>
      <trkpt lat="44.51524" lon="5.35724">
        <ele>1176.79</ele>
        <time>2022-04-03T10:28:29Z</time>
      </trkpt>
      <trkpt lat="44.51524" lon="5.35737">
        <ele>1177.27</ele>
        <time>2022-04-03T10:28:43Z</time>
      </trkpt>
      <trkpt lat="44.5153" lon="5.35745">
        <ele>1178.71</ele>
        <time>2022-04-03T10:28:57Z</time>
      </trkpt>
      <trkpt lat="44.51536" lon="5.35746">
        <ele>1179.67</ele>
        <time>2022-04-03T10:29:05Z</time>
      </trkpt>
      <trkpt lat="44.51547" lon="5.35761">
        <ele>1177.75</ele>
        <time>2022-04-03T10:29:21Z</time>
      </trkpt>
      <trkpt lat="44.51551" lon="5.35773">
        <ele>1179.19</ele>
        <time>2022-04-03T10:29:34Z</time>
      </trkpt>
      <trkpt lat="44.51545" lon="5.35779">
        <ele>1182.56</ele>
        <time>2022-04-03T10:29:48Z</time>
      </trkpt>
      <trkpt lat="44.51543" lon="5.35788">
        <ele>1182.56</ele>
        <time>2022-04-03T10:30:00Z</time>
      </trkpt>
      <trkpt lat="44.51541" lon="5.35788">
        <ele>1183.04</ele>
        <time>2022-04-03T10:30:15Z</time>
      </trkpt>
      <trkpt lat="44.51541" lon="5.35788">
        <ele>1183.04</ele>
        <time>2022-04-03T10:30:49Z</time>
      </trkpt>
      <trkpt lat="44.51541" lon="5.35789">
        <ele>1183.04</ele>
        <time>2022-04-03T10:31:15Z</time>
      </trkpt>
      <trkpt lat="44.51542" lon="5.358">
        <ele>1183.52</ele>
        <time>2022-04-03T10:31:29Z</time>
      </trkpt>
      <trkpt lat="44.51543" lon="5.3581">
        <ele>1184.96</ele>
        <time>2022-04-03T10:31:43Z</time>
      </trkpt>
      <trkpt lat="44.51549" lon="5.35816">
        <ele>1184.96</ele>
        <time>2022-04-03T10:31:59Z</time>
      </trkpt>
      <trkpt lat="44.5155" lon="5.35817">
        <ele>1183.52</ele>
        <time>2022-04-03T10:32:03Z</time>
      </trkpt>
      <trkpt lat="44.51552" lon="5.35822">
        <ele>1182.08</ele>
        <time>2022-04-03T10:32:20Z</time>
      </trkpt>
      <trkpt lat="44.51554" lon="5.35825">
        <ele>1180.64</ele>
        <time>2022-04-03T10:32:39Z</time>
      </trkpt>
      <trkpt lat="44.51556" lon="5.35826">
        <ele>1179.67</ele>
        <time>2022-04-03T10:32:57Z</time>
      </trkpt>
      <trkpt lat="44.51563" lon="5.35831">
        <ele>1179.67</ele>
        <time>2022-04-03T10:33:11Z</time>
      </trkpt>
      <trkpt lat="44.51571" lon="5.35835">
        <ele>1181.6</ele>
        <time>2022-04-03T10:33:24Z</time>
      </trkpt>
      <trkpt lat="44.51578" lon="5.35841">
        <ele>1181.6</ele>
        <time>2022-04-03T10:33:34Z</time>
      </trkpt>
      <trkpt lat="44.51584" lon="5.35847">
        <ele>1180.16</ele>
        <time>2022-04-03T10:33:41Z</time>
      </trkpt>
      <trkpt lat="44.51593" lon="5.35858">
        <ele>1179.67</ele>
        <time>2022-04-03T10:33:54Z</time>
      </trkpt>
      <trkpt lat="44.51601" lon="5.35867">
        <ele>1179.19</ele>
        <time>2022-04-03T10:34:05Z</time>
      </trkpt>
      <trkpt lat="44.51611" lon="5.35879">
        <ele>1177.27</ele>
        <time>2022-04-03T10:34:20Z</time>
      </trkpt>
      <trkpt lat="44.51612" lon="5.35889">
        <ele>1179.67</ele>
        <time>2022-04-03T10:34:33Z</time>
      </trkpt>
      <trkpt lat="44.51615" lon="5.359">
        <ele>1181.6</ele>
        <time>2022-04-03T10:34:47Z</time>
      </trkpt>
      <trkpt lat="44.51618" lon="5.35912">
        <ele>1181.6</ele>
        <time>2022-04-03T10:35:00Z</time>
      </trkpt>
      <trkpt lat="44.5162" lon="5.35914">
        <ele>1180.16</ele>
        <time>2022-04-03T10:35:03Z</time>
      </trkpt>
      <trkpt lat="44.51629" lon="5.35927">
        <ele>1180.16</ele>
        <time>2022-04-03T10:35:17Z</time>
      </trkpt>
      <trkpt lat="44.5163" lon="5.35928">
        <ele>1180.16</ele>
        <time>2022-04-03T10:35:18Z</time>
      </trkpt>
      <trkpt lat="44.51639" lon="5.35943">
        <ele>1179.67</ele>
        <time>2022-04-03T10:35:36Z</time>
      </trkpt>
      <trkpt lat="44.51647" lon="5.35953">
        <ele>1179.67</ele>
        <time>2022-04-03T10:35:47Z</time>
      </trkpt>
      <trkpt lat="44.51657" lon="5.35966">
        <ele>1179.67</ele>
        <time>2022-04-03T10:36:01Z</time>
      </trkpt>
      <trkpt lat="44.51658" lon="5.35968">
        <ele>1179.67</ele>
        <time>2022-04-03T10:36:03Z</time>
      </trkpt>
      <trkpt lat="44.51671" lon="5.35976">
        <ele>1180.64</ele>
        <time>2022-04-03T10:36:17Z</time>
      </trkpt>
      <trkpt lat="44.51679" lon="5.35983">
        <ele>1180.64</ele>
        <time>2022-04-03T10:36:30Z</time>
      </trkpt>
      <trkpt lat="44.51691" lon="5.35999">
        <ele>1180.64</ele>
        <time>2022-04-03T10:36:48Z</time>
      </trkpt>
      <trkpt lat="44.51696" lon="5.36009">
        <ele>1180.64</ele>
        <time>2022-04-03T10:37:00Z</time>
      </trkpt>
      <trkpt lat="44.51704" lon="5.36017">
        <ele>1180.16</ele>
        <time>2022-04-03T10:37:14Z</time>
      </trkpt>
      <trkpt lat="44.51709" lon="5.36023">
        <ele>1179.19</ele>
        <time>2022-04-03T10:37:22Z</time>
      </trkpt>
      <trkpt lat="44.51717" lon="5.36033">
        <ele>1178.71</ele>
        <time>2022-04-03T10:37:39Z</time>
      </trkpt>
      <trkpt lat="44.51723" lon="5.36037">
        <ele>1178.71</ele>
        <time>2022-04-03T10:37:52Z</time>
      </trkpt>
      <trkpt lat="44.51725" lon="5.36032">
        <ele>1181.12</ele>
        <time>2022-04-03T10:38:35Z</time>
      </trkpt>
      <trkpt lat="44.51725" lon="5.36032">
        <ele>1181.6</ele>
        <time>2022-04-03T10:38:36Z</time>
      </trkpt>
      <trkpt lat="44.51731" lon="5.36036">
        <ele>1184</ele>
        <time>2022-04-03T10:38:51Z</time>
      </trkpt>
      <trkpt lat="44.51735" lon="5.36039">
        <ele>1185.92</ele>
        <time>2022-04-03T10:39:06Z</time>
      </trkpt>
      <trkpt lat="44.51739" lon="5.36042">
        <ele>1185.92</ele>
        <time>2022-04-03T10:39:21Z</time>
      </trkpt>
      <trkpt lat="44.51743" lon="5.3605">
        <ele>1186.88</ele>
        <time>2022-04-03T10:39:34Z</time>
      </trkpt>
      <trkpt lat="44.51744" lon="5.36054">
        <ele>1185.92</ele>
        <time>2022-04-03T10:39:42Z</time>
      </trkpt>
      <trkpt lat="44.51744" lon="5.36059">
        <ele>1186.88</ele>
        <time>2022-04-03T10:39:47Z</time>
      </trkpt>
      <trkpt lat="44.5175" lon="5.36073">
        <ele>1190.25</ele>
        <time>2022-04-03T10:40:02Z</time>
      </trkpt>
      <trkpt lat="44.51754" lon="5.36083">
        <ele>1192.17</ele>
        <time>2022-04-03T10:40:14Z</time>
      </trkpt>
      <trkpt lat="44.5176" lon="5.36093">
        <ele>1194.58</ele>
        <time>2022-04-03T10:40:31Z</time>
      </trkpt>
      <trkpt lat="44.51765" lon="5.36095">
        <ele>1195.54</ele>
        <time>2022-04-03T10:40:46Z</time>
      </trkpt>
      <trkpt lat="44.51766" lon="5.36101">
        <ele>1196.98</ele>
        <time>2022-04-03T10:41:00Z</time>
      </trkpt>
      <trkpt lat="44.51768" lon="5.36103">
        <ele>1197.46</ele>
        <time>2022-04-03T10:41:06Z</time>
      </trkpt>
      <trkpt lat="44.51774" lon="5.36109">
        <ele>1197.94</ele>
        <time>2022-04-03T10:41:23Z</time>
      </trkpt>
      <trkpt lat="44.51779" lon="5.36115">
        <ele>1197.46</ele>
        <time>2022-04-03T10:41:43Z</time>
      </trkpt>
      <trkpt lat="44.5178" lon="5.36121">
        <ele>1198.42</ele>
        <time>2022-04-03T10:41:57Z</time>
      </trkpt>
      <trkpt lat="44.51782" lon="5.36123">
        <ele>1198.9</ele>
        <time>2022-04-03T10:42:12Z</time>
      </trkpt>
      <trkpt lat="44.51784" lon="5.36124">
        <ele>1199.38</ele>
        <time>2022-04-03T10:42:32Z</time>
      </trkpt>
      <trkpt lat="44.51786" lon="5.36131">
        <ele>1201.3</ele>
        <time>2022-04-03T10:42:47Z</time>
      </trkpt>
      <trkpt lat="44.5179" lon="5.36138">
        <ele>1201.79</ele>
        <time>2022-04-03T10:43:02Z</time>
      </trkpt>
      <trkpt lat="44.51792" lon="5.3614">
        <ele>1201.79</ele>
        <time>2022-04-03T10:43:05Z</time>
      </trkpt>
      <trkpt lat="44.51794" lon="5.36141">
        <ele>1200.34</ele>
        <time>2022-04-03T10:43:07Z</time>
      </trkpt>
      <trkpt lat="44.51797" lon="5.36147">
        <ele>1201.79</ele>
        <time>2022-04-03T10:43:15Z</time>
      </trkpt>
      <trkpt lat="44.51801" lon="5.36155">
        <ele>1203.23</ele>
        <time>2022-04-03T10:43:28Z</time>
      </trkpt>
      <trkpt lat="44.51804" lon="5.36156">
        <ele>1205.63</ele>
        <time>2022-04-03T10:43:38Z</time>
      </trkpt>
      <trkpt lat="44.51804" lon="5.36156">
        <ele>1204.19</ele>
        <time>2022-04-03T10:43:45Z</time>
      </trkpt>
      <trkpt lat="44.51805" lon="5.36158">
        <ele>1205.63</ele>
        <time>2022-04-03T10:43:55Z</time>
      </trkpt>
      <trkpt lat="44.51809" lon="5.36163">
        <ele>1209</ele>
        <time>2022-04-03T10:44:11Z</time>
      </trkpt>
      <trkpt lat="44.51813" lon="5.36165">
        <ele>1209.96</ele>
        <time>2022-04-03T10:44:22Z</time>
      </trkpt>
      <trkpt lat="44.51817" lon="5.36169">
        <ele>1211.88</ele>
        <time>2022-04-03T10:44:36Z</time>
      </trkpt>
      <trkpt lat="44.51817" lon="5.3617">
        <ele>1213.32</ele>
        <time>2022-04-03T10:44:51Z</time>
      </trkpt>
      <trkpt lat="44.51816" lon="5.36176">
        <ele>1215.24</ele>
        <time>2022-04-03T10:45:08Z</time>
      </trkpt>
      <trkpt lat="44.51819" lon="5.36183">
        <ele>1218.13</ele>
        <time>2022-04-03T10:45:23Z</time>
      </trkpt>
      <trkpt lat="44.51824" lon="5.36189">
        <ele>1220.05</ele>
        <time>2022-04-03T10:45:34Z</time>
      </trkpt>
      <trkpt lat="44.51827" lon="5.36196">
        <ele>1221.97</ele>
        <time>2022-04-03T10:45:48Z</time>
      </trkpt>
      <trkpt lat="44.51827" lon="5.36206">
        <ele>1223.42</ele>
        <time>2022-04-03T10:46:03Z</time>
      </trkpt>
      <trkpt lat="44.51832" lon="5.36215">
        <ele>1225.34</ele>
        <time>2022-04-03T10:46:15Z</time>
      </trkpt>
      <trkpt lat="44.51836" lon="5.36221">
        <ele>1225.34</ele>
        <time>2022-04-03T10:46:23Z</time>
      </trkpt>
      <trkpt lat="44.51837" lon="5.36223">
        <ele>1225.34</ele>
        <time>2022-04-03T10:46:25Z</time>
      </trkpt>
      <trkpt lat="44.51842" lon="5.36232">
        <ele>1225.34</ele>
        <time>2022-04-03T10:46:38Z</time>
      </trkpt>
      <trkpt lat="44.51846" lon="5.36242">
        <ele>1223.9</ele>
        <time>2022-04-03T10:46:51Z</time>
      </trkpt>
      <trkpt lat="44.51848" lon="5.36246">
        <ele>1222.45</ele>
        <time>2022-04-03T10:47:04Z</time>
      </trkpt>
      <trkpt lat="44.5185" lon="5.36251">
        <ele>1221.97</ele>
        <time>2022-04-03T10:47:18Z</time>
      </trkpt>
      <trkpt lat="44.51855" lon="5.36253">
        <ele>1219.09</ele>
        <time>2022-04-03T10:47:44Z</time>
      </trkpt>
      <trkpt lat="44.5186" lon="5.36257">
        <ele>1217.17</ele>
        <time>2022-04-03T10:48:00Z</time>
      </trkpt>
      <trkpt lat="44.51867" lon="5.36263">
        <ele>1214.28</ele>
        <time>2022-04-03T10:48:15Z</time>
      </trkpt>
      <trkpt lat="44.51871" lon="5.36273">
        <ele>1213.32</ele>
        <time>2022-04-03T10:48:29Z</time>
      </trkpt>
      <trkpt lat="44.51872" lon="5.36276">
        <ele>1212.84</ele>
        <time>2022-04-03T10:50:00Z</time>
      </trkpt>
      <trkpt lat="44.5187" lon="5.36281">
        <ele>1212.84</ele>
        <time>2022-04-03T10:50:18Z</time>
      </trkpt>
      <trkpt lat="44.51871" lon="5.36283">
        <ele>1214.28</ele>
        <time>2022-04-03T10:50:21Z</time>
      </trkpt>
      <trkpt lat="44.51875" lon="5.36294">
        <ele>1214.76</ele>
        <time>2022-04-03T10:50:35Z</time>
      </trkpt>
      <trkpt lat="44.51874" lon="5.36303">
        <ele>1217.17</ele>
        <time>2022-04-03T10:50:52Z</time>
      </trkpt>
      <trkpt lat="44.51874" lon="5.36315">
        <ele>1219.57</ele>
        <time>2022-04-03T10:51:08Z</time>
      </trkpt>
      <trkpt lat="44.51876" lon="5.36319">
        <ele>1218.13</ele>
        <time>2022-04-03T10:51:13Z</time>
      </trkpt>
      <trkpt lat="44.51877" lon="5.36326">
        <ele>1217.65</ele>
        <time>2022-04-03T10:51:19Z</time>
      </trkpt>
      <trkpt lat="44.51885" lon="5.36349">
        <ele>1219.09</ele>
        <time>2022-04-03T10:51:37Z</time>
      </trkpt>
      <trkpt lat="44.5189" lon="5.36355">
        <ele>1218.61</ele>
        <time>2022-04-03T10:51:50Z</time>
      </trkpt>
      <trkpt lat="44.5189" lon="5.36359">
        <ele>1218.61</ele>
        <time>2022-04-03T10:52:05Z</time>
      </trkpt>
      <trkpt lat="44.51894" lon="5.36368">
        <ele>1219.57</ele>
        <time>2022-04-03T10:52:20Z</time>
      </trkpt>
      <trkpt lat="44.51899" lon="5.36377">
        <ele>1221.49</ele>
        <time>2022-04-03T10:52:33Z</time>
      </trkpt>
      <trkpt lat="44.51902" lon="5.36387">
        <ele>1222.93</ele>
        <time>2022-04-03T10:52:45Z</time>
      </trkpt>
      <trkpt lat="44.51906" lon="5.36391">
        <ele>1223.42</ele>
        <time>2022-04-03T10:53:01Z</time>
      </trkpt>
      <trkpt lat="44.51906" lon="5.36392">
        <ele>1223.42</ele>
        <time>2022-04-03T10:53:02Z</time>
      </trkpt>
      <trkpt lat="44.51908" lon="5.36393">
        <ele>1223.9</ele>
        <time>2022-04-03T10:53:05Z</time>
      </trkpt>
      <trkpt lat="44.51916" lon="5.36397">
        <ele>1223.9</ele>
        <time>2022-04-03T10:53:14Z</time>
      </trkpt>
      <trkpt lat="44.51918" lon="5.36399">
        <ele>1223.9</ele>
        <time>2022-04-03T10:53:16Z</time>
      </trkpt>
      <trkpt lat="44.51929" lon="5.36406">
        <ele>1225.82</ele>
        <time>2022-04-03T10:53:32Z</time>
      </trkpt>
      <trkpt lat="44.51934" lon="5.36414">
        <ele>1228.22</ele>
        <time>2022-04-03T10:53:48Z</time>
      </trkpt>
      <trkpt lat="44.51937" lon="5.3642">
        <ele>1231.11</ele>
        <time>2022-04-03T10:54:03Z</time>
      </trkpt>
      <trkpt lat="44.51939" lon="5.36424">
        <ele>1232.07</ele>
        <time>2022-04-03T10:54:19Z</time>
      </trkpt>
      <trkpt lat="44.51943" lon="5.36428">
        <ele>1233.51</ele>
        <time>2022-04-03T10:54:32Z</time>
      </trkpt>
      <trkpt lat="44.51946" lon="5.36432">
        <ele>1235.43</ele>
        <time>2022-04-03T10:54:45Z</time>
      </trkpt>
      <trkpt lat="44.51948" lon="5.3644">
        <ele>1237.83</ele>
        <time>2022-04-03T10:55:01Z</time>
      </trkpt>
      <trkpt lat="44.51951" lon="5.36449">
        <ele>1239.76</ele>
        <time>2022-04-03T10:55:17Z</time>
      </trkpt>
      <trkpt lat="44.51946" lon="5.3645">
        <ele>1241.68</ele>
        <time>2022-04-03T10:55:32Z</time>
      </trkpt>
      <trkpt lat="44.51944" lon="5.36451">
        <ele>1243.12</ele>
        <time>2022-04-03T10:55:52Z</time>
      </trkpt>
      <trkpt lat="44.51936" lon="5.36452">
        <ele>1244.56</ele>
        <time>2022-04-03T10:56:08Z</time>
      </trkpt>
      <trkpt lat="44.51932" lon="5.3646">
        <ele>1246.97</ele>
        <time>2022-04-03T10:56:22Z</time>
      </trkpt>
      <trkpt lat="44.51929" lon="5.3647">
        <ele>1250.33</ele>
        <time>2022-04-03T10:56:37Z</time>
      </trkpt>
      <trkpt lat="44.51925" lon="5.36478">
        <ele>1253.22</ele>
        <time>2022-04-03T10:56:51Z</time>
      </trkpt>
      <trkpt lat="44.51921" lon="5.36486">
        <ele>1255.14</ele>
        <time>2022-04-03T10:57:06Z</time>
      </trkpt>
      <trkpt lat="44.5192" lon="5.36491">
        <ele>1257.06</ele>
        <time>2022-04-03T10:57:20Z</time>
      </trkpt>
      <trkpt lat="44.51919" lon="5.36496">
        <ele>1259.46</ele>
        <time>2022-04-03T10:57:37Z</time>
      </trkpt>
      <trkpt lat="44.51919" lon="5.36501">
        <ele>1260.91</ele>
        <time>2022-04-03T10:57:49Z</time>
      </trkpt>
      <trkpt lat="44.51913" lon="5.36506">
        <ele>1262.35</ele>
        <time>2022-04-03T10:58:01Z</time>
      </trkpt>
      <trkpt lat="44.51905" lon="5.36513">
        <ele>1263.79</ele>
        <time>2022-04-03T10:58:15Z</time>
      </trkpt>
      <trkpt lat="44.519" lon="5.36529">
        <ele>1266.19</ele>
        <time>2022-04-03T10:58:32Z</time>
      </trkpt>
      <trkpt lat="44.519" lon="5.36539">
        <ele>1268.12</ele>
        <time>2022-04-03T10:58:45Z</time>
      </trkpt>
      <trkpt lat="44.519" lon="5.36548">
        <ele>1271</ele>
        <time>2022-04-03T10:59:01Z</time>
      </trkpt>
      <trkpt lat="44.519" lon="5.3655">
        <ele>1271</ele>
        <time>2022-04-03T10:59:03Z</time>
      </trkpt>
      <trkpt lat="44.51905" lon="5.36562">
        <ele>1274.36</ele>
        <time>2022-04-03T10:59:20Z</time>
      </trkpt>
      <trkpt lat="44.51911" lon="5.36573">
        <ele>1275.81</ele>
        <time>2022-04-03T10:59:34Z</time>
      </trkpt>
      <trkpt lat="44.51919" lon="5.36579">
        <ele>1277.73</ele>
        <time>2022-04-03T10:59:48Z</time>
      </trkpt>
      <trkpt lat="44.51924" lon="5.36584">
        <ele>1280.61</ele>
        <time>2022-04-03T11:00:02Z</time>
      </trkpt>
      <trkpt lat="44.51929" lon="5.36593">
        <ele>1282.54</ele>
        <time>2022-04-03T11:00:18Z</time>
      </trkpt>
      <trkpt lat="44.51934" lon="5.36605">
        <ele>1284.46</ele>
        <time>2022-04-03T11:00:33Z</time>
      </trkpt>
      <trkpt lat="44.51936" lon="5.36613">
        <ele>1285.9</ele>
        <time>2022-04-03T11:00:45Z</time>
      </trkpt>
      <trkpt lat="44.51943" lon="5.36617">
        <ele>1286.86</ele>
        <time>2022-04-03T11:00:58Z</time>
      </trkpt>
      <trkpt lat="44.5195" lon="5.36625">
        <ele>1288.78</ele>
        <time>2022-04-03T11:01:13Z</time>
      </trkpt>
      <trkpt lat="44.51958" lon="5.36634">
        <ele>1291.19</ele>
        <time>2022-04-03T11:01:29Z</time>
      </trkpt>
      <trkpt lat="44.51961" lon="5.36638">
        <ele>1292.15</ele>
        <time>2022-04-03T11:01:35Z</time>
      </trkpt>
      <trkpt lat="44.51968" lon="5.36646">
        <ele>1293.59</ele>
        <time>2022-04-03T11:01:50Z</time>
      </trkpt>
      <trkpt lat="44.51969" lon="5.36645">
        <ele>1293.59</ele>
        <time>2022-04-03T11:02:10Z</time>
      </trkpt>
      <trkpt lat="44.51971" lon="5.36646">
        <ele>1293.59</ele>
        <time>2022-04-03T11:02:38Z</time>
      </trkpt>
      <trkpt lat="44.51972" lon="5.36645">
        <ele>1293.59</ele>
        <time>2022-04-03T11:03:29Z</time>
      </trkpt>
      <trkpt lat="44.51973" lon="5.36644">
        <ele>1293.59</ele>
        <time>2022-04-03T11:04:22Z</time>
      </trkpt>
      <trkpt lat="44.51973" lon="5.36652">
        <ele>1292.63</ele>
        <time>2022-04-03T11:04:40Z</time>
      </trkpt>
      <trkpt lat="44.51969" lon="5.3666">
        <ele>1292.63</ele>
        <time>2022-04-03T11:04:47Z</time>
      </trkpt>
      <trkpt lat="44.51966" lon="5.36669">
        <ele>1293.59</ele>
        <time>2022-04-03T11:04:55Z</time>
      </trkpt>
      <trkpt lat="44.51956" lon="5.36684">
        <ele>1294.07</ele>
        <time>2022-04-03T11:05:10Z</time>
      </trkpt>
      <trkpt lat="44.51947" lon="5.367">
        <ele>1295.51</ele>
        <time>2022-04-03T11:05:25Z</time>
      </trkpt>
      <trkpt lat="44.51939" lon="5.36718">
        <ele>1296.96</ele>
        <time>2022-04-03T11:05:40Z</time>
      </trkpt>
      <trkpt lat="44.51934" lon="5.36734">
        <ele>1297.92</ele>
        <time>2022-04-03T11:05:53Z</time>
      </trkpt>
      <trkpt lat="44.5193" lon="5.36755">
        <ele>1299.36</ele>
        <time>2022-04-03T11:06:08Z</time>
      </trkpt>
      <trkpt lat="44.51933" lon="5.36777">
        <ele>1299.84</ele>
        <time>2022-04-03T11:06:25Z</time>
      </trkpt>
      <trkpt lat="44.51935" lon="5.36788">
        <ele>1299.84</ele>
        <time>2022-04-03T11:06:33Z</time>
      </trkpt>
      <trkpt lat="44.51938" lon="5.368">
        <ele>1298.88</ele>
        <time>2022-04-03T11:06:41Z</time>
      </trkpt>
      <trkpt lat="44.51939" lon="5.36804">
        <ele>1297.44</ele>
        <time>2022-04-03T11:06:44Z</time>
      </trkpt>
      <trkpt lat="44.51944" lon="5.36831">
        <ele>1295.03</ele>
        <time>2022-04-03T11:07:02Z</time>
      </trkpt>
      <trkpt lat="44.51951" lon="5.36858">
        <ele>1292.15</ele>
        <time>2022-04-03T11:07:20Z</time>
      </trkpt>
      <trkpt lat="44.51957" lon="5.36876">
        <ele>1288.78</ele>
        <time>2022-04-03T11:07:33Z</time>
      </trkpt>
      <trkpt lat="44.51959" lon="5.36879">
        <ele>1288.78</ele>
        <time>2022-04-03T11:07:35Z</time>
      </trkpt>
      <trkpt lat="44.5196" lon="5.36883">
        <ele>1287.34</ele>
        <time>2022-04-03T11:07:39Z</time>
      </trkpt>
      <trkpt lat="44.5196" lon="5.36885">
        <ele>1287.34</ele>
        <time>2022-04-03T11:07:41Z</time>
      </trkpt>
      <trkpt lat="44.51968" lon="5.36901">
        <ele>1283.98</ele>
        <time>2022-04-03T11:07:55Z</time>
      </trkpt>
      <trkpt lat="44.51975" lon="5.36917">
        <ele>1280.13</ele>
        <time>2022-04-03T11:08:08Z</time>
      </trkpt>
      <trkpt lat="44.51976" lon="5.36918">
        <ele>1280.13</ele>
        <time>2022-04-03T11:08:09Z</time>
      </trkpt>
      <trkpt lat="44.51978" lon="5.36924">
        <ele>1279.17</ele>
        <time>2022-04-03T11:08:13Z</time>
      </trkpt>
      <trkpt lat="44.51984" lon="5.36951">
        <ele>1277.25</ele>
        <time>2022-04-03T11:08:30Z</time>
      </trkpt>
      <trkpt lat="44.51988" lon="5.36978">
        <ele>1277.25</ele>
        <time>2022-04-03T11:08:48Z</time>
      </trkpt>
      <trkpt lat="44.51992" lon="5.37001">
        <ele>1276.77</ele>
        <time>2022-04-03T11:09:04Z</time>
      </trkpt>
      <trkpt lat="44.51996" lon="5.37026">
        <ele>1277.73</ele>
        <time>2022-04-03T11:09:21Z</time>
      </trkpt>
      <trkpt lat="44.52" lon="5.37051">
        <ele>1277.73</ele>
        <time>2022-04-03T11:09:37Z</time>
      </trkpt>
      <trkpt lat="44.52005" lon="5.37067">
        <ele>1276.29</ele>
        <time>2022-04-03T11:09:48Z</time>
      </trkpt>
      <trkpt lat="44.52008" lon="5.37092">
        <ele>1275.33</ele>
        <time>2022-04-03T11:10:07Z</time>
      </trkpt>
      <trkpt lat="44.52016" lon="5.3712">
        <ele>1274.36</ele>
        <time>2022-04-03T11:10:26Z</time>
      </trkpt>
      <trkpt lat="44.52023" lon="5.37141">
        <ele>1272.92</ele>
        <time>2022-04-03T11:10:39Z</time>
      </trkpt>
      <trkpt lat="44.52028" lon="5.37167">
        <ele>1272.92</ele>
        <time>2022-04-03T11:10:57Z</time>
      </trkpt>
      <trkpt lat="44.52036" lon="5.37197">
        <ele>1272.44</ele>
        <time>2022-04-03T11:11:17Z</time>
      </trkpt>
      <trkpt lat="44.52041" lon="5.3722">
        <ele>1274.85</ele>
        <time>2022-04-03T11:11:33Z</time>
      </trkpt>
      <trkpt lat="44.52042" lon="5.37226">
        <ele>1274.85</ele>
        <time>2022-04-03T11:11:37Z</time>
      </trkpt>
      <trkpt lat="44.52047" lon="5.3725">
        <ele>1275.33</ele>
        <time>2022-04-03T11:11:52Z</time>
      </trkpt>
      <trkpt lat="44.5205" lon="5.37271">
        <ele>1275.81</ele>
        <time>2022-04-03T11:12:07Z</time>
      </trkpt>
      <trkpt lat="44.52053" lon="5.37291">
        <ele>1278.21</ele>
        <time>2022-04-03T11:12:20Z</time>
      </trkpt>
      <trkpt lat="44.52057" lon="5.37315">
        <ele>1279.17</ele>
        <time>2022-04-03T11:12:37Z</time>
      </trkpt>
      <trkpt lat="44.52064" lon="5.37334">
        <ele>1279.17</ele>
        <time>2022-04-03T11:12:51Z</time>
      </trkpt>
      <trkpt lat="44.52068" lon="5.3736">
        <ele>1279.17</ele>
        <time>2022-04-03T11:13:07Z</time>
      </trkpt>
      <trkpt lat="44.52071" lon="5.37387">
        <ele>1279.17</ele>
        <time>2022-04-03T11:13:24Z</time>
      </trkpt>
      <trkpt lat="44.52072" lon="5.37411">
        <ele>1281.09</ele>
        <time>2022-04-03T11:13:41Z</time>
      </trkpt>
      <trkpt lat="44.52075" lon="5.37439">
        <ele>1281.57</ele>
        <time>2022-04-03T11:13:59Z</time>
      </trkpt>
      <trkpt lat="44.52076" lon="5.37463">
        <ele>1282.54</ele>
        <time>2022-04-03T11:14:14Z</time>
      </trkpt>
      <trkpt lat="44.52085" lon="5.37482">
        <ele>1281.57</ele>
        <time>2022-04-03T11:14:28Z</time>
      </trkpt>
      <trkpt lat="44.52093" lon="5.37491">
        <ele>1281.09</ele>
        <time>2022-04-03T11:14:37Z</time>
      </trkpt>
      <trkpt lat="44.52105" lon="5.37496">
        <ele>1277.73</ele>
        <time>2022-04-03T11:14:50Z</time>
      </trkpt>
      <trkpt lat="44.52118" lon="5.37502">
        <ele>1274.36</ele>
        <time>2022-04-03T11:15:04Z</time>
      </trkpt>
      <trkpt lat="44.52128" lon="5.37512">
        <ele>1271</ele>
        <time>2022-04-03T11:15:17Z</time>
      </trkpt>
      <trkpt lat="44.52143" lon="5.37529">
        <ele>1268.12</ele>
        <time>2022-04-03T11:15:34Z</time>
      </trkpt>
      <trkpt lat="44.52145" lon="5.37531">
        <ele>1267.16</ele>
        <time>2022-04-03T11:15:36Z</time>
      </trkpt>
      <trkpt lat="44.52147" lon="5.37534">
        <ele>1267.16</ele>
        <time>2022-04-03T11:15:39Z</time>
      </trkpt>
      <trkpt lat="44.52152" lon="5.37537">
        <ele>1266.19</ele>
        <time>2022-04-03T11:15:43Z</time>
      </trkpt>
      <trkpt lat="44.5217" lon="5.37556">
        <ele>1263.31</ele>
        <time>2022-04-03T11:16:03Z</time>
      </trkpt>
      <trkpt lat="44.52189" lon="5.3757">
        <ele>1259.94</ele>
        <time>2022-04-03T11:16:23Z</time>
      </trkpt>
      <trkpt lat="44.52206" lon="5.37589">
        <ele>1257.06</ele>
        <time>2022-04-03T11:16:43Z</time>
      </trkpt>
      <trkpt lat="44.52219" lon="5.37602">
        <ele>1254.18</ele>
        <time>2022-04-03T11:16:57Z</time>
      </trkpt>
      <trkpt lat="44.52241" lon="5.37624">
        <ele>1253.22</ele>
        <time>2022-04-03T11:17:18Z</time>
      </trkpt>
      <trkpt lat="44.52257" lon="5.37643">
        <ele>1254.18</ele>
        <time>2022-04-03T11:17:36Z</time>
      </trkpt>
      <trkpt lat="44.52269" lon="5.37659">
        <ele>1255.14</ele>
        <time>2022-04-03T11:17:51Z</time>
      </trkpt>
      <trkpt lat="44.52276" lon="5.37671">
        <ele>1255.62</ele>
        <time>2022-04-03T11:18:03Z</time>
      </trkpt>
      <trkpt lat="44.52278" lon="5.37672">
        <ele>1255.62</ele>
        <time>2022-04-03T11:18:05Z</time>
      </trkpt>
      <trkpt lat="44.52283" lon="5.37679">
        <ele>1256.1</ele>
        <time>2022-04-03T11:18:14Z</time>
      </trkpt>
      <trkpt lat="44.52298" lon="5.37694">
        <ele>1257.54</ele>
        <time>2022-04-03T11:18:31Z</time>
      </trkpt>
      <trkpt lat="44.52315" lon="5.3771">
        <ele>1258.5</ele>
        <time>2022-04-03T11:18:48Z</time>
      </trkpt>
      <trkpt lat="44.52332" lon="5.37726">
        <ele>1259.46</ele>
        <time>2022-04-03T11:19:03Z</time>
      </trkpt>
      <trkpt lat="44.52348" lon="5.37744">
        <ele>1261.87</ele>
        <time>2022-04-03T11:19:20Z</time>
      </trkpt>
      <trkpt lat="44.52361" lon="5.37763">
        <ele>1263.31</ele>
        <time>2022-04-03T11:19:36Z</time>
      </trkpt>
      <trkpt lat="44.5237" lon="5.37781">
        <ele>1264.75</ele>
        <time>2022-04-03T11:19:50Z</time>
      </trkpt>
      <trkpt lat="44.52381" lon="5.37792">
        <ele>1267.64</ele>
        <time>2022-04-03T11:20:03Z</time>
      </trkpt>
      <trkpt lat="44.52398" lon="5.37794">
        <ele>1270.04</ele>
        <time>2022-04-03T11:20:19Z</time>
      </trkpt>
      <trkpt lat="44.52414" lon="5.37796">
        <ele>1271.48</ele>
        <time>2022-04-03T11:20:34Z</time>
      </trkpt>
      <trkpt lat="44.52428" lon="5.37802">
        <ele>1273.88</ele>
        <time>2022-04-03T11:20:48Z</time>
      </trkpt>
      <trkpt lat="44.52442" lon="5.3781">
        <ele>1275.33</ele>
        <time>2022-04-03T11:21:02Z</time>
      </trkpt>
      <trkpt lat="44.52455" lon="5.37818">
        <ele>1277.73</ele>
        <time>2022-04-03T11:21:17Z</time>
      </trkpt>
      <trkpt lat="44.52463" lon="5.37827">
        <ele>1279.17</ele>
        <time>2022-04-03T11:21:32Z</time>
      </trkpt>
      <trkpt lat="44.5247" lon="5.37839">
        <ele>1280.61</ele>
        <time>2022-04-03T11:21:46Z</time>
      </trkpt>
      <trkpt lat="44.52475" lon="5.37846">
        <ele>1282.54</ele>
        <time>2022-04-03T11:22:02Z</time>
      </trkpt>
      <trkpt lat="44.52479" lon="5.37854">
        <ele>1282.06</ele>
        <time>2022-04-03T11:22:17Z</time>
      </trkpt>
      <trkpt lat="44.52479" lon="5.37857">
        <ele>1282.06</ele>
        <time>2022-04-03T11:22:50Z</time>
      </trkpt>
      <trkpt lat="44.52479" lon="5.37858">
        <ele>1282.06</ele>
        <time>2022-04-03T11:22:59Z</time>
      </trkpt>
      <trkpt lat="44.52481" lon="5.37865">
        <ele>1283.98</ele>
        <time>2022-04-03T11:23:13Z</time>
      </trkpt>
      <trkpt lat="44.52489" lon="5.37872">
        <ele>1285.9</ele>
        <time>2022-04-03T11:23:28Z</time>
      </trkpt>
      <trkpt lat="44.52492" lon="5.37875">
        <ele>1286.38</ele>
        <time>2022-04-03T11:23:44Z</time>
      </trkpt>
      <trkpt lat="44.5249" lon="5.37876">
        <ele>1287.82</ele>
        <time>2022-04-03T12:06:24Z</time>
      </trkpt>
      <trkpt lat="44.52486" lon="5.37871">
        <ele>1286.86</ele>
        <time>2022-04-03T12:06:30Z</time>
      </trkpt>
      <trkpt lat="44.52486" lon="5.37868">
        <ele>1286.86</ele>
        <time>2022-04-03T12:06:32Z</time>
      </trkpt>
      <trkpt lat="44.52492" lon="5.3786">
        <ele>1288.78</ele>
        <time>2022-04-03T12:06:42Z</time>
      </trkpt>
      <trkpt lat="44.52497" lon="5.37863">
        <ele>1290.71</ele>
        <time>2022-04-03T12:06:55Z</time>
      </trkpt>
      <trkpt lat="44.52498" lon="5.37864">
        <ele>1288.78</ele>
        <time>2022-04-03T12:06:58Z</time>
      </trkpt>
      <trkpt lat="44.52501" lon="5.37867">
        <ele>1289.75</ele>
        <time>2022-04-03T12:07:06Z</time>
      </trkpt>
      <trkpt lat="44.52502" lon="5.3787">
        <ele>1290.23</ele>
        <time>2022-04-03T12:07:20Z</time>
      </trkpt>
      <trkpt lat="44.52503" lon="5.37871">
        <ele>1290.23</ele>
        <time>2022-04-03T12:08:18Z</time>
      </trkpt>
      <trkpt lat="44.52504" lon="5.37873">
        <ele>1290.23</ele>
        <time>2022-04-03T12:08:40Z</time>
      </trkpt>
      <trkpt lat="44.52505" lon="5.37877">
        <ele>1290.71</ele>
        <time>2022-04-03T12:08:45Z</time>
      </trkpt>
      <trkpt lat="44.52513" lon="5.3789">
        <ele>1293.59</ele>
        <time>2022-04-03T12:09:01Z</time>
      </trkpt>
      <trkpt lat="44.52523" lon="5.37897">
        <ele>1297.44</ele>
        <time>2022-04-03T12:09:15Z</time>
      </trkpt>
      <trkpt lat="44.52531" lon="5.37904">
        <ele>1299.36</ele>
        <time>2022-04-03T12:09:29Z</time>
      </trkpt>
      <trkpt lat="44.52541" lon="5.37911">
        <ele>1302.24</ele>
        <time>2022-04-03T12:09:44Z</time>
      </trkpt>
      <trkpt lat="44.52543" lon="5.37912">
        <ele>1302.72</ele>
        <time>2022-04-03T12:09:46Z</time>
      </trkpt>
      <trkpt lat="44.52553" lon="5.37923">
        <ele>1305.13</ele>
        <time>2022-04-03T12:10:02Z</time>
      </trkpt>
      <trkpt lat="44.52555" lon="5.37927">
        <ele>1306.09</ele>
        <time>2022-04-03T12:10:06Z</time>
      </trkpt>
      <trkpt lat="44.52567" lon="5.37932">
        <ele>1308.01</ele>
        <time>2022-04-03T12:10:21Z</time>
      </trkpt>
      <trkpt lat="44.52577" lon="5.37934">
        <ele>1310.41</ele>
        <time>2022-04-03T12:10:33Z</time>
      </trkpt>
      <trkpt lat="44.52592" lon="5.37939">
        <ele>1310.9</ele>
        <time>2022-04-03T12:10:48Z</time>
      </trkpt>
      <trkpt lat="44.52605" lon="5.37943">
        <ele>1312.82</ele>
        <time>2022-04-03T12:11:02Z</time>
      </trkpt>
      <trkpt lat="44.5262" lon="5.37947">
        <ele>1314.74</ele>
        <time>2022-04-03T12:11:16Z</time>
      </trkpt>
      <trkpt lat="44.52633" lon="5.37952">
        <ele>1316.18</ele>
        <time>2022-04-03T12:11:31Z</time>
      </trkpt>
      <trkpt lat="44.52644" lon="5.3796">
        <ele>1318.1</ele>
        <time>2022-04-03T12:11:44Z</time>
      </trkpt>
      <trkpt lat="44.52657" lon="5.37968">
        <ele>1319.55</ele>
        <time>2022-04-03T12:11:59Z</time>
      </trkpt>
      <trkpt lat="44.52668" lon="5.37978">
        <ele>1322.91</ele>
        <time>2022-04-03T12:12:14Z</time>
      </trkpt>
      <trkpt lat="44.52676" lon="5.37987">
        <ele>1325.31</ele>
        <time>2022-04-03T12:12:28Z</time>
      </trkpt>
      <trkpt lat="44.52685" lon="5.37996">
        <ele>1328.68</ele>
        <time>2022-04-03T12:12:43Z</time>
      </trkpt>
      <trkpt lat="44.52688" lon="5.38001">
        <ele>1329.64</ele>
        <time>2022-04-03T12:12:51Z</time>
      </trkpt>
      <trkpt lat="44.52699" lon="5.38011">
        <ele>1333.01</ele>
        <time>2022-04-03T12:13:07Z</time>
      </trkpt>
      <trkpt lat="44.52708" lon="5.38018">
        <ele>1334.93</ele>
        <time>2022-04-03T12:13:20Z</time>
      </trkpt>
      <trkpt lat="44.52717" lon="5.38023">
        <ele>1338.29</ele>
        <time>2022-04-03T12:13:33Z</time>
      </trkpt>
      <trkpt lat="44.52717" lon="5.38023">
        <ele>1338.29</ele>
        <time>2022-04-03T12:13:34Z</time>
      </trkpt>
      <trkpt lat="44.52723" lon="5.38032">
        <ele>1339.73</ele>
        <time>2022-04-03T12:13:50Z</time>
      </trkpt>
      <trkpt lat="44.5273" lon="5.3804">
        <ele>1342.14</ele>
        <time>2022-04-03T12:14:06Z</time>
      </trkpt>
      <trkpt lat="44.52735" lon="5.38049">
        <ele>1345.5</ele>
        <time>2022-04-03T12:14:20Z</time>
      </trkpt>
      <trkpt lat="44.5274" lon="5.38061">
        <ele>1348.87</ele>
        <time>2022-04-03T12:14:37Z</time>
      </trkpt>
      <trkpt lat="44.52745" lon="5.3807">
        <ele>1350.79</ele>
        <time>2022-04-03T12:14:53Z</time>
      </trkpt>
      <trkpt lat="44.52748" lon="5.38072">
        <ele>1351.27</ele>
        <time>2022-04-03T12:15:05Z</time>
      </trkpt>
      <trkpt lat="44.5276" lon="5.38076">
        <ele>1352.23</ele>
        <time>2022-04-03T12:15:21Z</time>
      </trkpt>
      <trkpt lat="44.52764" lon="5.38078">
        <ele>1352.23</ele>
        <time>2022-04-03T12:18:32Z</time>
      </trkpt>
      <trkpt lat="44.52774" lon="5.38083">
        <ele>1352.71</ele>
        <time>2022-04-03T12:18:46Z</time>
      </trkpt>
      <trkpt lat="44.52788" lon="5.3809">
        <ele>1355.12</ele>
        <time>2022-04-03T12:19:02Z</time>
      </trkpt>
      <trkpt lat="44.52801" lon="5.38097">
        <ele>1357.04</ele>
        <time>2022-04-03T12:19:17Z</time>
      </trkpt>
      <trkpt lat="44.52812" lon="5.38105">
        <ele>1359.44</ele>
        <time>2022-04-03T12:19:32Z</time>
      </trkpt>
      <trkpt lat="44.52824" lon="5.3811">
        <ele>1361.84</ele>
        <time>2022-04-03T12:19:46Z</time>
      </trkpt>
      <trkpt lat="44.52838" lon="5.38117">
        <ele>1364.25</ele>
        <time>2022-04-03T12:20:03Z</time>
      </trkpt>
      <trkpt lat="44.5285" lon="5.38121">
        <ele>1366.65</ele>
        <time>2022-04-03T12:20:20Z</time>
      </trkpt>
      <trkpt lat="44.52862" lon="5.38127">
        <ele>1369.05</ele>
        <time>2022-04-03T12:20:35Z</time>
      </trkpt>
      <trkpt lat="44.52875" lon="5.38131">
        <ele>1370.98</ele>
        <time>2022-04-03T12:20:50Z</time>
      </trkpt>
      <trkpt lat="44.52884" lon="5.38137">
        <ele>1373.38</ele>
        <time>2022-04-03T12:21:05Z</time>
      </trkpt>
      <trkpt lat="44.52892" lon="5.38142">
        <ele>1375.78</ele>
        <time>2022-04-03T12:21:17Z</time>
      </trkpt>
      <trkpt lat="44.52907" lon="5.38144">
        <ele>1378.19</ele>
        <time>2022-04-03T12:21:35Z</time>
      </trkpt>
      <trkpt lat="44.52921" lon="5.38148">
        <ele>1378.19</ele>
        <time>2022-04-03T12:21:50Z</time>
      </trkpt>
      <trkpt lat="44.52935" lon="5.38152">
        <ele>1380.11</ele>
        <time>2022-04-03T12:22:06Z</time>
      </trkpt>
      <trkpt lat="44.52946" lon="5.38155">
        <ele>1382.03</ele>
        <time>2022-04-03T12:22:19Z</time>
      </trkpt>
      <trkpt lat="44.52954" lon="5.38162">
        <ele>1384.44</ele>
        <time>2022-04-03T12:22:32Z</time>
      </trkpt>
      <trkpt lat="44.52965" lon="5.38166">
        <ele>1386.84</ele>
        <time>2022-04-03T12:22:47Z</time>
      </trkpt>
      <trkpt lat="44.52975" lon="5.38169">
        <ele>1389.24</ele>
        <time>2022-04-03T12:23:02Z</time>
      </trkpt>
      <trkpt lat="44.52986" lon="5.38173">
        <ele>1391.65</ele>
        <time>2022-04-03T12:23:17Z</time>
      </trkpt>
      <trkpt lat="44.52997" lon="5.38179">
        <ele>1394.05</ele>
        <time>2022-04-03T12:23:31Z</time>
      </trkpt>
      <trkpt lat="44.53009" lon="5.38183">
        <ele>1395.97</ele>
        <time>2022-04-03T12:23:46Z</time>
      </trkpt>
      <trkpt lat="44.53019" lon="5.38187">
        <ele>1397.41</ele>
        <time>2022-04-03T12:23:58Z</time>
      </trkpt>
      <trkpt lat="44.53033" lon="5.38191">
        <ele>1399.34</ele>
        <time>2022-04-03T12:24:13Z</time>
      </trkpt>
      <trkpt lat="44.53044" lon="5.38195">
        <ele>1401.26</ele>
        <time>2022-04-03T12:24:28Z</time>
      </trkpt>
      <trkpt lat="44.53055" lon="5.38198">
        <ele>1403.66</ele>
        <time>2022-04-03T12:24:43Z</time>
      </trkpt>
      <trkpt lat="44.53064" lon="5.38196">
        <ele>1403.66</ele>
        <time>2022-04-03T12:24:57Z</time>
      </trkpt>
      <trkpt lat="44.53065" lon="5.38194">
        <ele>1403.66</ele>
        <time>2022-04-03T12:24:59Z</time>
      </trkpt>
      <trkpt lat="44.53075" lon="5.38197">
        <ele>1404.62</ele>
        <time>2022-04-03T12:25:14Z</time>
      </trkpt>
      <trkpt lat="44.5308" lon="5.382">
        <ele>1405.1</ele>
        <time>2022-04-03T12:25:29Z</time>
      </trkpt>
      <trkpt lat="44.5309" lon="5.38203">
        <ele>1407.51</ele>
        <time>2022-04-03T12:25:44Z</time>
      </trkpt>
      <trkpt lat="44.53101" lon="5.3821">
        <ele>1409.43</ele>
        <time>2022-04-03T12:26:00Z</time>
      </trkpt>
      <trkpt lat="44.53114" lon="5.38214">
        <ele>1412.31</ele>
        <time>2022-04-03T12:26:17Z</time>
      </trkpt>
      <trkpt lat="44.53124" lon="5.38218">
        <ele>1414.24</ele>
        <time>2022-04-03T12:26:32Z</time>
      </trkpt>
      <trkpt lat="44.53127" lon="5.38228">
        <ele>1416.64</ele>
        <time>2022-04-03T12:26:46Z</time>
      </trkpt>
      <trkpt lat="44.53126" lon="5.38234">
        <ele>1414.24</ele>
        <time>2022-04-03T12:28:51Z</time>
      </trkpt>
      <trkpt lat="44.53129" lon="5.38237">
        <ele>1414.24</ele>
        <time>2022-04-03T12:29:16Z</time>
      </trkpt>
      <trkpt lat="44.5314" lon="5.3824">
        <ele>1417.12</ele>
        <time>2022-04-03T12:29:32Z</time>
      </trkpt>
      <trkpt lat="44.53152" lon="5.38237">
        <ele>1419.52</ele>
        <time>2022-04-03T12:29:45Z</time>
      </trkpt>
      <trkpt lat="44.53165" lon="5.38236">
        <ele>1420.97</ele>
        <time>2022-04-03T12:29:58Z</time>
      </trkpt>
      <trkpt lat="44.5318" lon="5.38236">
        <ele>1422.41</ele>
        <time>2022-04-03T12:30:12Z</time>
      </trkpt>
      <trkpt lat="44.53195" lon="5.38234">
        <ele>1423.85</ele>
        <time>2022-04-03T12:30:27Z</time>
      </trkpt>
      <trkpt lat="44.5321" lon="5.38233">
        <ele>1424.81</ele>
        <time>2022-04-03T12:30:43Z</time>
      </trkpt>
      <trkpt lat="44.53215" lon="5.38234">
        <ele>1424.81</ele>
        <time>2022-04-03T12:30:48Z</time>
      </trkpt>
      <trkpt lat="44.53234" lon="5.38232">
        <ele>1426.73</ele>
        <time>2022-04-03T12:31:07Z</time>
      </trkpt>
      <trkpt lat="44.5325" lon="5.38231">
        <ele>1427.21</ele>
        <time>2022-04-03T12:31:23Z</time>
      </trkpt>
      <trkpt lat="44.53259" lon="5.38228">
        <ele>1427.7</ele>
        <time>2022-04-03T12:31:31Z</time>
      </trkpt>
      <trkpt lat="44.53267" lon="5.38229">
        <ele>1428.18</ele>
        <time>2022-04-03T12:31:40Z</time>
      </trkpt>
      <trkpt lat="44.53282" lon="5.38229">
        <ele>1428.66</ele>
        <time>2022-04-03T12:31:55Z</time>
      </trkpt>
      <trkpt lat="44.53286" lon="5.38234">
        <ele>1429.62</ele>
        <time>2022-04-03T12:32:02Z</time>
      </trkpt>
      <trkpt lat="44.53305" lon="5.38237">
        <ele>1429.62</ele>
        <time>2022-04-03T12:32:20Z</time>
      </trkpt>
      <trkpt lat="44.5332" lon="5.3824">
        <ele>1430.1</ele>
        <time>2022-04-03T12:32:34Z</time>
      </trkpt>
      <trkpt lat="44.53326" lon="5.38241">
        <ele>1430.58</ele>
        <time>2022-04-03T12:32:40Z</time>
      </trkpt>
      <trkpt lat="44.53342" lon="5.38244">
        <ele>1431.54</ele>
        <time>2022-04-03T12:32:55Z</time>
      </trkpt>
      <trkpt lat="44.5336" lon="5.38248">
        <ele>1433.94</ele>
        <time>2022-04-03T12:33:11Z</time>
      </trkpt>
      <trkpt lat="44.53374" lon="5.38246">
        <ele>1434.42</ele>
        <time>2022-04-03T12:33:23Z</time>
      </trkpt>
      <trkpt lat="44.53392" lon="5.38248">
        <ele>1434.42</ele>
        <time>2022-04-03T12:33:38Z</time>
      </trkpt>
      <trkpt lat="44.53405" lon="5.38252">
        <ele>1434.42</ele>
        <time>2022-04-03T12:33:54Z</time>
      </trkpt>
      <trkpt lat="44.53406" lon="5.38255">
        <ele>1433.94</ele>
        <time>2022-04-03T12:35:15Z</time>
      </trkpt>
      <trkpt lat="44.53408" lon="5.38259">
        <ele>1433.94</ele>
        <time>2022-04-03T12:35:30Z</time>
      </trkpt>
      <trkpt lat="44.53408" lon="5.3826">
        <ele>1433.46</ele>
        <time>2022-04-03T12:35:56Z</time>
      </trkpt>
      <trkpt lat="44.53409" lon="5.38262">
        <ele>1435.87</ele>
        <time>2022-04-03T12:36:07Z</time>
      </trkpt>
      <trkpt lat="44.53409" lon="5.38263">
        <ele>1434.42</ele>
        <time>2022-04-03T12:36:11Z</time>
      </trkpt>
      <trkpt lat="44.5341" lon="5.38265">
        <ele>1432.5</ele>
        <time>2022-04-03T12:36:41Z</time>
      </trkpt>
      <trkpt lat="44.53413" lon="5.38265">
        <ele>1431.06</ele>
        <time>2022-04-03T12:36:55Z</time>
      </trkpt>
      <trkpt lat="44.5342" lon="5.38271">
        <ele>1427.7</ele>
        <time>2022-04-03T12:37:07Z</time>
      </trkpt>
      <trkpt lat="44.53423" lon="5.38272">
        <ele>1425.77</ele>
        <time>2022-04-03T12:37:13Z</time>
      </trkpt>
      <trkpt lat="44.5343" lon="5.38281">
        <ele>1422.41</ele>
        <time>2022-04-03T12:37:24Z</time>
      </trkpt>
      <trkpt lat="44.53434" lon="5.38283">
        <ele>1418.56</ele>
        <time>2022-04-03T12:37:39Z</time>
      </trkpt>
      <trkpt lat="44.53438" lon="5.38288">
        <ele>1415.2</ele>
        <time>2022-04-03T12:37:51Z</time>
      </trkpt>
      <trkpt lat="44.53444" lon="5.38297">
        <ele>1411.83</ele>
        <time>2022-04-03T12:38:02Z</time>
      </trkpt>
      <trkpt lat="44.53449" lon="5.38305">
        <ele>1408.95</ele>
        <time>2022-04-03T12:38:09Z</time>
      </trkpt>
      <trkpt lat="44.5345" lon="5.38306">
        <ele>1408.95</ele>
        <time>2022-04-03T12:38:10Z</time>
      </trkpt>
      <trkpt lat="44.53452" lon="5.38308">
        <ele>1407.99</ele>
        <time>2022-04-03T12:38:12Z</time>
      </trkpt>
      <trkpt lat="44.53461" lon="5.38318">
        <ele>1403.66</ele>
        <time>2022-04-03T12:38:25Z</time>
      </trkpt>
      <trkpt lat="44.5346" lon="5.38324">
        <ele>1400.78</ele>
        <time>2022-04-03T12:38:36Z</time>
      </trkpt>
      <trkpt lat="44.53454" lon="5.38336">
        <ele>1397.89</ele>
        <time>2022-04-03T12:38:50Z</time>
      </trkpt>
      <trkpt lat="44.53458" lon="5.38339">
        <ele>1396.93</ele>
        <time>2022-04-03T12:39:07Z</time>
      </trkpt>
      <trkpt lat="44.53471" lon="5.3835">
        <ele>1393.57</ele>
        <time>2022-04-03T12:39:23Z</time>
      </trkpt>
      <trkpt lat="44.53474" lon="5.3836">
        <ele>1390.2</ele>
        <time>2022-04-03T12:39:36Z</time>
      </trkpt>
      <trkpt lat="44.53477" lon="5.38369">
        <ele>1386.84</ele>
        <time>2022-04-03T12:39:49Z</time>
      </trkpt>
      <trkpt lat="44.5348" lon="5.38378">
        <ele>1383.47</ele>
        <time>2022-04-03T12:39:58Z</time>
      </trkpt>
      <trkpt lat="44.53483" lon="5.38389">
        <ele>1380.11</ele>
        <time>2022-04-03T12:40:09Z</time>
      </trkpt>
      <trkpt lat="44.53486" lon="5.38398">
        <ele>1376.75</ele>
        <time>2022-04-03T12:40:19Z</time>
      </trkpt>
      <trkpt lat="44.53488" lon="5.38407">
        <ele>1373.38</ele>
        <time>2022-04-03T12:40:31Z</time>
      </trkpt>
      <trkpt lat="44.53491" lon="5.38418">
        <ele>1370.5</ele>
        <time>2022-04-03T12:40:43Z</time>
      </trkpt>
      <trkpt lat="44.53495" lon="5.38425">
        <ele>1367.13</ele>
        <time>2022-04-03T12:40:54Z</time>
      </trkpt>
      <trkpt lat="44.535" lon="5.38427">
        <ele>1366.17</ele>
        <time>2022-04-03T12:41:09Z</time>
      </trkpt>
      <trkpt lat="44.53509" lon="5.38439">
        <ele>1363.29</ele>
        <time>2022-04-03T12:41:27Z</time>
      </trkpt>
      <trkpt lat="44.53515" lon="5.38446">
        <ele>1360.4</ele>
        <time>2022-04-03T12:41:37Z</time>
      </trkpt>
      <trkpt lat="44.53519" lon="5.38455">
        <ele>1357.04</ele>
        <time>2022-04-03T12:41:49Z</time>
      </trkpt>
      <trkpt lat="44.53526" lon="5.38463">
        <ele>1354.15</ele>
        <time>2022-04-03T12:41:59Z</time>
      </trkpt>
      <trkpt lat="44.53532" lon="5.38476">
        <ele>1350.79</ele>
        <time>2022-04-03T12:42:10Z</time>
      </trkpt>
      <trkpt lat="44.53541" lon="5.38486">
        <ele>1347.43</ele>
        <time>2022-04-03T12:42:25Z</time>
      </trkpt>
      <trkpt lat="44.53548" lon="5.38498">
        <ele>1344.54</ele>
        <time>2022-04-03T12:42:40Z</time>
      </trkpt>
      <trkpt lat="44.53557" lon="5.38508">
        <ele>1341.18</ele>
        <time>2022-04-03T12:42:53Z</time>
      </trkpt>
      <trkpt lat="44.53559" lon="5.38522">
        <ele>1338.29</ele>
        <time>2022-04-03T12:43:05Z</time>
      </trkpt>
      <trkpt lat="44.53561" lon="5.3853">
        <ele>1336.37</ele>
        <time>2022-04-03T12:43:12Z</time>
      </trkpt>
      <trkpt lat="44.53564" lon="5.38538">
        <ele>1334.93</ele>
        <time>2022-04-03T12:43:18Z</time>
      </trkpt>
      <trkpt lat="44.53568" lon="5.38553">
        <ele>1332.04</ele>
        <time>2022-04-03T12:43:29Z</time>
      </trkpt>
      <trkpt lat="44.53566" lon="5.38569">
        <ele>1328.68</ele>
        <time>2022-04-03T12:43:41Z</time>
      </trkpt>
      <trkpt lat="44.53565" lon="5.38585">
        <ele>1326.76</ele>
        <time>2022-04-03T12:43:55Z</time>
      </trkpt>
      <trkpt lat="44.53565" lon="5.386">
        <ele>1325.31</ele>
        <time>2022-04-03T12:44:04Z</time>
      </trkpt>
      <trkpt lat="44.53564" lon="5.38622">
        <ele>1321.95</ele>
        <time>2022-04-03T12:44:20Z</time>
      </trkpt>
      <trkpt lat="44.53564" lon="5.38622">
        <ele>1321.95</ele>
        <time>2022-04-03T12:44:22Z</time>
      </trkpt>
      <trkpt lat="44.53564" lon="5.38637">
        <ele>1320.99</ele>
        <time>2022-04-03T12:44:30Z</time>
      </trkpt>
      <trkpt lat="44.53563" lon="5.38656">
        <ele>1317.62</ele>
        <time>2022-04-03T12:44:41Z</time>
      </trkpt>
      <trkpt lat="44.53562" lon="5.38673">
        <ele>1314.26</ele>
        <time>2022-04-03T12:44:55Z</time>
      </trkpt>
      <trkpt lat="44.53557" lon="5.38689">
        <ele>1311.86</ele>
        <time>2022-04-03T12:45:13Z</time>
      </trkpt>
      <trkpt lat="44.53556" lon="5.38702">
        <ele>1308.49</ele>
        <time>2022-04-03T12:45:26Z</time>
      </trkpt>
      <trkpt lat="44.53556" lon="5.38703">
        <ele>1308.01</ele>
        <time>2022-04-03T12:45:35Z</time>
      </trkpt>
      <trkpt lat="44.53556" lon="5.38715">
        <ele>1307.05</ele>
        <time>2022-04-03T12:45:42Z</time>
      </trkpt>
      <trkpt lat="44.53554" lon="5.38736">
        <ele>1302.72</ele>
        <time>2022-04-03T12:45:53Z</time>
      </trkpt>
      <trkpt lat="44.53554" lon="5.38746">
        <ele>1301.76</ele>
        <time>2022-04-03T12:45:59Z</time>
      </trkpt>
      <trkpt lat="44.53556" lon="5.38753">
        <ele>1300.8</ele>
        <time>2022-04-03T12:46:03Z</time>
      </trkpt>
      <trkpt lat="44.53556" lon="5.38783">
        <ele>1299.36</ele>
        <time>2022-04-03T12:46:21Z</time>
      </trkpt>
      <trkpt lat="44.53553" lon="5.38795">
        <ele>1299.36</ele>
        <time>2022-04-03T12:46:37Z</time>
      </trkpt>
      <trkpt lat="44.53553" lon="5.38795">
        <ele>1299.84</ele>
        <time>2022-04-03T12:46:48Z</time>
      </trkpt>
      <trkpt lat="44.5355" lon="5.38797">
        <ele>1299.84</ele>
        <time>2022-04-03T12:47:04Z</time>
      </trkpt>
      <trkpt lat="44.53549" lon="5.38799">
        <ele>1299.84</ele>
        <time>2022-04-03T12:47:07Z</time>
      </trkpt>
      <trkpt lat="44.53551" lon="5.38802">
        <ele>1299.84</ele>
        <time>2022-04-03T12:47:10Z</time>
      </trkpt>
      <trkpt lat="44.53548" lon="5.38806">
        <ele>1299.84</ele>
        <time>2022-04-03T12:47:15Z</time>
      </trkpt>
      <trkpt lat="44.53545" lon="5.38795">
        <ele>1299.84</ele>
        <time>2022-04-03T12:47:30Z</time>
      </trkpt>
      <trkpt lat="44.53546" lon="5.38774">
        <ele>1299.84</ele>
        <time>2022-04-03T12:47:45Z</time>
      </trkpt>
      <trkpt lat="44.53538" lon="5.38757">
        <ele>1299.84</ele>
        <time>2022-04-03T12:48:01Z</time>
      </trkpt>
      <trkpt lat="44.53526" lon="5.38746">
        <ele>1299.84</ele>
        <time>2022-04-03T12:48:17Z</time>
      </trkpt>
      <trkpt lat="44.53523" lon="5.38746">
        <ele>1298.4</ele>
        <time>2022-04-03T12:48:36Z</time>
      </trkpt>
      <trkpt lat="44.5351" lon="5.38731">
        <ele>1297.44</ele>
        <time>2022-04-03T12:48:52Z</time>
      </trkpt>
      <trkpt lat="44.53498" lon="5.38712">
        <ele>1296.96</ele>
        <time>2022-04-03T12:49:09Z</time>
      </trkpt>
      <trkpt lat="44.53486" lon="5.38697">
        <ele>1295.51</ele>
        <time>2022-04-03T12:49:24Z</time>
      </trkpt>
      <trkpt lat="44.53473" lon="5.3868">
        <ele>1295.03</ele>
        <time>2022-04-03T12:49:39Z</time>
      </trkpt>
      <trkpt lat="44.53453" lon="5.38667">
        <ele>1292.63</ele>
        <time>2022-04-03T12:49:57Z</time>
      </trkpt>
      <trkpt lat="44.53444" lon="5.38661">
        <ele>1291.67</ele>
        <time>2022-04-03T12:50:06Z</time>
      </trkpt>
      <trkpt lat="44.53427" lon="5.38658">
        <ele>1288.3</ele>
        <time>2022-04-03T12:50:22Z</time>
      </trkpt>
      <trkpt lat="44.53409" lon="5.3866">
        <ele>1286.38</ele>
        <time>2022-04-03T12:50:39Z</time>
      </trkpt>
      <trkpt lat="44.53395" lon="5.38658">
        <ele>1283.02</ele>
        <time>2022-04-03T12:50:51Z</time>
      </trkpt>
      <trkpt lat="44.53392" lon="5.38657">
        <ele>1282.54</ele>
        <time>2022-04-03T12:50:53Z</time>
      </trkpt>
      <trkpt lat="44.53378" lon="5.38657">
        <ele>1279.17</ele>
        <time>2022-04-03T12:51:03Z</time>
      </trkpt>
      <trkpt lat="44.53367" lon="5.38657">
        <ele>1277.25</ele>
        <time>2022-04-03T12:51:11Z</time>
      </trkpt>
      <trkpt lat="44.53353" lon="5.38661">
        <ele>1273.88</ele>
        <time>2022-04-03T12:51:23Z</time>
      </trkpt>
      <trkpt lat="44.53337" lon="5.38661">
        <ele>1270.52</ele>
        <time>2022-04-03T12:51:36Z</time>
      </trkpt>
      <trkpt lat="44.53333" lon="5.38661">
        <ele>1270.04</ele>
        <time>2022-04-03T12:51:40Z</time>
      </trkpt>
      <trkpt lat="44.53329" lon="5.3866">
        <ele>1269.08</ele>
        <time>2022-04-03T12:51:43Z</time>
      </trkpt>
      <trkpt lat="44.53316" lon="5.38664">
        <ele>1266.67</ele>
        <time>2022-04-03T12:51:56Z</time>
      </trkpt>
      <trkpt lat="44.53314" lon="5.38664">
        <ele>1267.64</ele>
        <time>2022-04-03T12:52:57Z</time>
      </trkpt>
      <trkpt lat="44.53313" lon="5.38658">
        <ele>1268.12</ele>
        <time>2022-04-03T12:53:13Z</time>
      </trkpt>
      <trkpt lat="44.5331" lon="5.38655">
        <ele>1268.6</ele>
        <time>2022-04-03T12:53:33Z</time>
      </trkpt>
      <trkpt lat="44.53308" lon="5.38652">
        <ele>1269.56</ele>
        <time>2022-04-03T12:53:56Z</time>
      </trkpt>
      <trkpt lat="44.533" lon="5.3864">
        <ele>1270.04</ele>
        <time>2022-04-03T12:54:10Z</time>
      </trkpt>
      <trkpt lat="44.53296" lon="5.38637">
        <ele>1270.52</ele>
        <time>2022-04-03T12:54:23Z</time>
      </trkpt>
      <trkpt lat="44.53295" lon="5.38637">
        <ele>1270.52</ele>
        <time>2022-04-03T12:54:39Z</time>
      </trkpt>
      <trkpt lat="44.53292" lon="5.38637">
        <ele>1269.56</ele>
        <time>2022-04-03T12:54:54Z</time>
      </trkpt>
      <trkpt lat="44.53286" lon="5.38636">
        <ele>1267.64</ele>
        <time>2022-04-03T12:55:11Z</time>
      </trkpt>
      <trkpt lat="44.53282" lon="5.38636">
        <ele>1264.27</ele>
        <time>2022-04-03T12:55:19Z</time>
      </trkpt>
      <trkpt lat="44.53277" lon="5.38634">
        <ele>1261.39</ele>
        <time>2022-04-03T12:55:32Z</time>
      </trkpt>
      <trkpt lat="44.53275" lon="5.38634">
        <ele>1259.94</ele>
        <time>2022-04-03T12:55:35Z</time>
      </trkpt>
      <trkpt lat="44.53273" lon="5.38635">
        <ele>1258.98</ele>
        <time>2022-04-03T12:55:41Z</time>
      </trkpt>
      <trkpt lat="44.53262" lon="5.38617">
        <ele>1258.5</ele>
        <time>2022-04-03T12:55:58Z</time>
      </trkpt>
      <trkpt lat="44.53261" lon="5.38612">
        <ele>1259.94</ele>
        <time>2022-04-03T12:56:03Z</time>
      </trkpt>
      <trkpt lat="44.5325" lon="5.38606">
        <ele>1260.91</ele>
        <time>2022-04-03T12:56:15Z</time>
      </trkpt>
      <trkpt lat="44.53248" lon="5.38605">
        <ele>1259.46</ele>
        <time>2022-04-03T12:56:17Z</time>
      </trkpt>
      <trkpt lat="44.53242" lon="5.38604">
        <ele>1258.98</ele>
        <time>2022-04-03T12:56:23Z</time>
      </trkpt>
      <trkpt lat="44.53226" lon="5.38602">
        <ele>1257.54</ele>
        <time>2022-04-03T12:56:39Z</time>
      </trkpt>
      <trkpt lat="44.53209" lon="5.38602">
        <ele>1258.5</ele>
        <time>2022-04-03T12:56:56Z</time>
      </trkpt>
      <trkpt lat="44.53205" lon="5.386">
        <ele>1257.54</ele>
        <time>2022-04-03T12:57:01Z</time>
      </trkpt>
      <trkpt lat="44.53189" lon="5.38594">
        <ele>1255.14</ele>
        <time>2022-04-03T12:57:17Z</time>
      </trkpt>
      <trkpt lat="44.53171" lon="5.38588">
        <ele>1253.22</ele>
        <time>2022-04-03T12:57:33Z</time>
      </trkpt>
      <trkpt lat="44.53157" lon="5.3858">
        <ele>1252.25</ele>
        <time>2022-04-03T12:57:48Z</time>
      </trkpt>
      <trkpt lat="44.53137" lon="5.38575">
        <ele>1249.85</ele>
        <time>2022-04-03T12:58:05Z</time>
      </trkpt>
      <trkpt lat="44.53122" lon="5.38571">
        <ele>1246.49</ele>
        <time>2022-04-03T12:58:19Z</time>
      </trkpt>
      <trkpt lat="44.53108" lon="5.38564">
        <ele>1243.12</ele>
        <time>2022-04-03T12:58:35Z</time>
      </trkpt>
      <trkpt lat="44.53094" lon="5.38555">
        <ele>1241.68</ele>
        <time>2022-04-03T12:58:52Z</time>
      </trkpt>
      <trkpt lat="44.53093" lon="5.38554">
        <ele>1241.68</ele>
        <time>2022-04-03T12:58:53Z</time>
      </trkpt>
      <trkpt lat="44.53077" lon="5.38544">
        <ele>1239.76</ele>
        <time>2022-04-03T12:59:09Z</time>
      </trkpt>
      <trkpt lat="44.53063" lon="5.3854">
        <ele>1236.39</ele>
        <time>2022-04-03T12:59:23Z</time>
      </trkpt>
      <trkpt lat="44.53049" lon="5.3854">
        <ele>1233.03</ele>
        <time>2022-04-03T12:59:36Z</time>
      </trkpt>
      <trkpt lat="44.53038" lon="5.38537">
        <ele>1229.66</ele>
        <time>2022-04-03T12:59:48Z</time>
      </trkpt>
      <trkpt lat="44.53022" lon="5.38538">
        <ele>1226.78</ele>
        <time>2022-04-03T13:00:04Z</time>
      </trkpt>
      <trkpt lat="44.53008" lon="5.3854">
        <ele>1223.42</ele>
        <time>2022-04-03T13:00:17Z</time>
      </trkpt>
      <trkpt lat="44.52997" lon="5.38541">
        <ele>1221.01</ele>
        <time>2022-04-03T13:00:29Z</time>
      </trkpt>
      <trkpt lat="44.52985" lon="5.38544">
        <ele>1217.65</ele>
        <time>2022-04-03T13:00:41Z</time>
      </trkpt>
      <trkpt lat="44.52978" lon="5.38547">
        <ele>1215.72</ele>
        <time>2022-04-03T13:00:47Z</time>
      </trkpt>
      <trkpt lat="44.52969" lon="5.38552">
        <ele>1212.84</ele>
        <time>2022-04-03T13:00:56Z</time>
      </trkpt>
      <trkpt lat="44.52958" lon="5.38555">
        <ele>1209.48</ele>
        <time>2022-04-03T13:01:06Z</time>
      </trkpt>
      <trkpt lat="44.52952" lon="5.38555">
        <ele>1208.03</ele>
        <time>2022-04-03T13:01:11Z</time>
      </trkpt>
      <trkpt lat="44.5294" lon="5.38555">
        <ele>1204.19</ele>
        <time>2022-04-03T13:01:23Z</time>
      </trkpt>
      <trkpt lat="44.52929" lon="5.38555">
        <ele>1200.82</ele>
        <time>2022-04-03T13:01:34Z</time>
      </trkpt>
      <trkpt lat="44.52922" lon="5.38554">
        <ele>1199.38</ele>
        <time>2022-04-03T13:01:42Z</time>
      </trkpt>
      <trkpt lat="44.52908" lon="5.38551">
        <ele>1195.54</ele>
        <time>2022-04-03T13:01:54Z</time>
      </trkpt>
      <trkpt lat="44.52898" lon="5.38548">
        <ele>1192.17</ele>
        <time>2022-04-03T13:02:04Z</time>
      </trkpt>
      <trkpt lat="44.52886" lon="5.38547">
        <ele>1188.81</ele>
        <time>2022-04-03T13:02:15Z</time>
      </trkpt>
      <trkpt lat="44.52874" lon="5.38552">
        <ele>1185.44</ele>
        <time>2022-04-03T13:02:30Z</time>
      </trkpt>
      <trkpt lat="44.52873" lon="5.38552">
        <ele>1184.96</ele>
        <time>2022-04-03T13:02:31Z</time>
      </trkpt>
      <trkpt lat="44.52862" lon="5.38553">
        <ele>1181.12</ele>
        <time>2022-04-03T13:02:43Z</time>
      </trkpt>
      <trkpt lat="44.52851" lon="5.38556">
        <ele>1178.23</ele>
        <time>2022-04-03T13:02:55Z</time>
      </trkpt>
      <trkpt lat="44.5285" lon="5.38556">
        <ele>1178.23</ele>
        <time>2022-04-03T13:02:56Z</time>
      </trkpt>
      <trkpt lat="44.52846" lon="5.38556">
        <ele>1176.79</ele>
        <time>2022-04-03T13:03:00Z</time>
      </trkpt>
      <trkpt lat="44.52829" lon="5.38562">
        <ele>1172.95</ele>
        <time>2022-04-03T13:03:15Z</time>
      </trkpt>
      <trkpt lat="44.52821" lon="5.38572">
        <ele>1169.58</ele>
        <time>2022-04-03T13:03:26Z</time>
      </trkpt>
      <trkpt lat="44.52819" lon="5.38574">
        <ele>1169.58</ele>
        <time>2022-04-03T13:03:40Z</time>
      </trkpt>
      <trkpt lat="44.52821" lon="5.38586">
        <ele>1168.14</ele>
        <time>2022-04-03T13:03:55Z</time>
      </trkpt>
      <trkpt lat="44.52823" lon="5.38592">
        <ele>1167.66</ele>
        <time>2022-04-03T13:03:59Z</time>
      </trkpt>
      <trkpt lat="44.52832" lon="5.38605">
        <ele>1163.81</ele>
        <time>2022-04-03T13:04:10Z</time>
      </trkpt>
      <trkpt lat="44.5284" lon="5.38619">
        <ele>1159.97</ele>
        <time>2022-04-03T13:04:22Z</time>
      </trkpt>
      <trkpt lat="44.52845" lon="5.38639">
        <ele>1157.08</ele>
        <time>2022-04-03T13:04:38Z</time>
      </trkpt>
      <trkpt lat="44.52849" lon="5.38656">
        <ele>1154.2</ele>
        <time>2022-04-03T13:04:52Z</time>
      </trkpt>
      <trkpt lat="44.52853" lon="5.38665">
        <ele>1152.28</ele>
        <time>2022-04-03T13:05:08Z</time>
      </trkpt>
      <trkpt lat="44.52852" lon="5.38678">
        <ele>1149.87</ele>
        <time>2022-04-03T13:05:20Z</time>
      </trkpt>
      <trkpt lat="44.52851" lon="5.38688">
        <ele>1146.51</ele>
        <time>2022-04-03T13:05:30Z</time>
      </trkpt>
      <trkpt lat="44.52849" lon="5.38701">
        <ele>1143.63</ele>
        <time>2022-04-03T13:05:43Z</time>
      </trkpt>
      <trkpt lat="44.52845" lon="5.38716">
        <ele>1140.26</ele>
        <time>2022-04-03T13:05:54Z</time>
      </trkpt>
      <trkpt lat="44.52837" lon="5.38717">
        <ele>1137.38</ele>
        <time>2022-04-03T13:06:04Z</time>
      </trkpt>
      <trkpt lat="44.52832" lon="5.38711">
        <ele>1135.94</ele>
        <time>2022-04-03T13:06:11Z</time>
      </trkpt>
      <trkpt lat="44.5283" lon="5.3871">
        <ele>1135.94</ele>
        <time>2022-04-03T13:06:13Z</time>
      </trkpt>
      <trkpt lat="44.52819" lon="5.38698">
        <ele>1132.57</ele>
        <time>2022-04-03T13:06:26Z</time>
      </trkpt>
      <trkpt lat="44.52805" lon="5.3869">
        <ele>1129.21</ele>
        <time>2022-04-03T13:06:39Z</time>
      </trkpt>
      <trkpt lat="44.52792" lon="5.38686">
        <ele>1125.84</ele>
        <time>2022-04-03T13:06:52Z</time>
      </trkpt>
      <trkpt lat="44.52782" lon="5.38687">
        <ele>1122.96</ele>
        <time>2022-04-03T13:07:02Z</time>
      </trkpt>
      <trkpt lat="44.52774" lon="5.3868">
        <ele>1122</ele>
        <time>2022-04-03T13:07:17Z</time>
      </trkpt>
      <trkpt lat="44.52759" lon="5.38672">
        <ele>1120.55</ele>
        <time>2022-04-03T13:07:30Z</time>
      </trkpt>
      <trkpt lat="44.52738" lon="5.38668">
        <ele>1118.63</ele>
        <time>2022-04-03T13:07:47Z</time>
      </trkpt>
      <trkpt lat="44.52715" lon="5.38659">
        <ele>1116.71</ele>
        <time>2022-04-03T13:08:07Z</time>
      </trkpt>
      <trkpt lat="44.52701" lon="5.3864">
        <ele>1113.82</ele>
        <time>2022-04-03T13:08:23Z</time>
      </trkpt>
      <trkpt lat="44.52688" lon="5.38623">
        <ele>1110.94</ele>
        <time>2022-04-03T13:08:37Z</time>
      </trkpt>
      <trkpt lat="44.52674" lon="5.38608">
        <ele>1107.58</ele>
        <time>2022-04-03T13:08:51Z</time>
      </trkpt>
      <trkpt lat="44.52659" lon="5.38598">
        <ele>1105.17</ele>
        <time>2022-04-03T13:09:04Z</time>
      </trkpt>
      <trkpt lat="44.52646" lon="5.38586">
        <ele>1103.73</ele>
        <time>2022-04-03T13:09:15Z</time>
      </trkpt>
      <trkpt lat="44.52623" lon="5.38568">
        <ele>1101.33</ele>
        <time>2022-04-03T13:09:35Z</time>
      </trkpt>
      <trkpt lat="44.526" lon="5.38558">
        <ele>1099.89</ele>
        <time>2022-04-03T13:09:54Z</time>
      </trkpt>
      <trkpt lat="44.5258" lon="5.38549">
        <ele>1097.48</ele>
        <time>2022-04-03T13:10:10Z</time>
      </trkpt>
      <trkpt lat="44.52563" lon="5.38539">
        <ele>1094.6</ele>
        <time>2022-04-03T13:10:24Z</time>
      </trkpt>
      <trkpt lat="44.52543" lon="5.38523">
        <ele>1091.71</ele>
        <time>2022-04-03T13:10:41Z</time>
      </trkpt>
      <trkpt lat="44.52524" lon="5.38515">
        <ele>1089.31</ele>
        <time>2022-04-03T13:10:56Z</time>
      </trkpt>
      <trkpt lat="44.52508" lon="5.38505">
        <ele>1087.87</ele>
        <time>2022-04-03T13:11:11Z</time>
      </trkpt>
      <trkpt lat="44.52505" lon="5.38502">
        <ele>1087.39</ele>
        <time>2022-04-03T13:11:14Z</time>
      </trkpt>
      <trkpt lat="44.52484" lon="5.3848">
        <ele>1084.99</ele>
        <time>2022-04-03T13:11:34Z</time>
      </trkpt>
      <trkpt lat="44.52466" lon="5.3846">
        <ele>1082.58</ele>
        <time>2022-04-03T13:11:52Z</time>
      </trkpt>
      <trkpt lat="44.52452" lon="5.38438">
        <ele>1079.22</ele>
        <time>2022-04-03T13:12:09Z</time>
      </trkpt>
      <trkpt lat="44.52438" lon="5.3841">
        <ele>1076.33</ele>
        <time>2022-04-03T13:12:27Z</time>
      </trkpt>
      <trkpt lat="44.52438" lon="5.38408">
        <ele>1075.85</ele>
        <time>2022-04-03T13:12:28Z</time>
      </trkpt>
      <trkpt lat="44.52419" lon="5.38383">
        <ele>1073.93</ele>
        <time>2022-04-03T13:12:47Z</time>
      </trkpt>
      <trkpt lat="44.52403" lon="5.38355">
        <ele>1071.05</ele>
        <time>2022-04-03T13:13:06Z</time>
      </trkpt>
      <trkpt lat="44.52391" lon="5.38329">
        <ele>1068.64</ele>
        <time>2022-04-03T13:13:23Z</time>
      </trkpt>
      <trkpt lat="44.52379" lon="5.38312">
        <ele>1065.76</ele>
        <time>2022-04-03T13:13:36Z</time>
      </trkpt>
      <trkpt lat="44.52366" lon="5.38296">
        <ele>1063.84</ele>
        <time>2022-04-03T13:13:50Z</time>
      </trkpt>
      <trkpt lat="44.52357" lon="5.38291">
        <ele>1062.39</ele>
        <time>2022-04-03T13:13:59Z</time>
      </trkpt>
      <trkpt lat="44.5235" lon="5.38289">
        <ele>1062.39</ele>
        <time>2022-04-03T13:14:12Z</time>
      </trkpt>
      <trkpt lat="44.52349" lon="5.38285">
        <ele>1063.36</ele>
        <time>2022-04-03T13:17:12Z</time>
      </trkpt>
      <trkpt lat="44.52348" lon="5.38281">
        <ele>1063.84</ele>
        <time>2022-04-03T13:17:53Z</time>
      </trkpt>
      <trkpt lat="44.52343" lon="5.38276">
        <ele>1063.84</ele>
        <time>2022-04-03T13:18:08Z</time>
      </trkpt>
      <trkpt lat="44.52337" lon="5.38263">
        <ele>1064.32</ele>
        <time>2022-04-03T13:18:22Z</time>
      </trkpt>
      <trkpt lat="44.52332" lon="5.38248">
        <ele>1067.68</ele>
        <time>2022-04-03T13:18:37Z</time>
      </trkpt>
      <trkpt lat="44.52321" lon="5.38231">
        <ele>1069.6</ele>
        <time>2022-04-03T13:18:54Z</time>
      </trkpt>
      <trkpt lat="44.52319" lon="5.38228">
        <ele>1070.08</ele>
        <time>2022-04-03T13:18:57Z</time>
      </trkpt>
      <trkpt lat="44.52316" lon="5.38224">
        <ele>1070.57</ele>
        <time>2022-04-03T13:19:01Z</time>
      </trkpt>
      <trkpt lat="44.52308" lon="5.38218">
        <ele>1069.12</ele>
        <time>2022-04-03T13:19:09Z</time>
      </trkpt>
      <trkpt lat="44.52304" lon="5.38213">
        <ele>1068.64</ele>
        <time>2022-04-03T13:19:14Z</time>
      </trkpt>
      <trkpt lat="44.52291" lon="5.38203">
        <ele>1066.72</ele>
        <time>2022-04-03T13:19:28Z</time>
      </trkpt>
      <trkpt lat="44.52275" lon="5.38188">
        <ele>1062.87</ele>
        <time>2022-04-03T13:19:44Z</time>
      </trkpt>
      <trkpt lat="44.52272" lon="5.38185">
        <ele>1062.39</ele>
        <time>2022-04-03T13:19:47Z</time>
      </trkpt>
      <trkpt lat="44.5227" lon="5.38179">
        <ele>1062.39</ele>
        <time>2022-04-03T13:19:51Z</time>
      </trkpt>
      <trkpt lat="44.52261" lon="5.38165">
        <ele>1060.95</ele>
        <time>2022-04-03T13:20:02Z</time>
      </trkpt>
      <trkpt lat="44.52259" lon="5.38159">
        <ele>1059.99</ele>
        <time>2022-04-03T13:20:06Z</time>
      </trkpt>
      <trkpt lat="44.52251" lon="5.38146">
        <ele>1057.11</ele>
        <time>2022-04-03T13:20:17Z</time>
      </trkpt>
      <trkpt lat="44.52247" lon="5.38142">
        <ele>1055.67</ele>
        <time>2022-04-03T13:20:22Z</time>
      </trkpt>
      <trkpt lat="44.52245" lon="5.38133">
        <ele>1053.26</ele>
        <time>2022-04-03T13:20:27Z</time>
      </trkpt>
      <trkpt lat="44.5224" lon="5.38114">
        <ele>1053.26</ele>
        <time>2022-04-03T13:20:41Z</time>
      </trkpt>
      <trkpt lat="44.52239" lon="5.38112">
        <ele>1052.3</ele>
        <time>2022-04-03T13:20:43Z</time>
      </trkpt>
      <trkpt lat="44.52229" lon="5.38099">
        <ele>1047.97</ele>
        <time>2022-04-03T13:20:54Z</time>
      </trkpt>
      <trkpt lat="44.52215" lon="5.38086">
        <ele>1045.57</ele>
        <time>2022-04-03T13:21:11Z</time>
      </trkpt>
      <trkpt lat="44.52208" lon="5.38083">
        <ele>1043.65</ele>
        <time>2022-04-03T13:21:20Z</time>
      </trkpt>
      <trkpt lat="44.52195" lon="5.38075">
        <ele>1039.32</ele>
        <time>2022-04-03T13:21:32Z</time>
      </trkpt>
      <trkpt lat="44.52191" lon="5.38072">
        <ele>1038.36</ele>
        <time>2022-04-03T13:21:36Z</time>
      </trkpt>
      <trkpt lat="44.52184" lon="5.38069">
        <ele>1037.4</ele>
        <time>2022-04-03T13:21:42Z</time>
      </trkpt>
      <trkpt lat="44.52168" lon="5.38065">
        <ele>1034.52</ele>
        <time>2022-04-03T13:21:56Z</time>
      </trkpt>
      <trkpt lat="44.5215" lon="5.38051">
        <ele>1031.15</ele>
        <time>2022-04-03T13:22:13Z</time>
      </trkpt>
      <trkpt lat="44.52135" lon="5.38033">
        <ele>1029.71</ele>
        <time>2022-04-03T13:22:30Z</time>
      </trkpt>
      <trkpt lat="44.52119" lon="5.38017">
        <ele>1031.15</ele>
        <time>2022-04-03T13:22:46Z</time>
      </trkpt>
      <trkpt lat="44.52118" lon="5.38015">
        <ele>1031.15</ele>
        <time>2022-04-03T13:22:47Z</time>
      </trkpt>
      <trkpt lat="44.52102" lon="5.37996">
        <ele>1032.59</ele>
        <time>2022-04-03T13:23:04Z</time>
      </trkpt>
      <trkpt lat="44.52095" lon="5.3799">
        <ele>1033.07</ele>
        <time>2022-04-03T13:23:10Z</time>
      </trkpt>
      <trkpt lat="44.52077" lon="5.37978">
        <ele>1035.48</ele>
        <time>2022-04-03T13:23:27Z</time>
      </trkpt>
      <trkpt lat="44.5206" lon="5.37959">
        <ele>1036.44</ele>
        <time>2022-04-03T13:23:44Z</time>
      </trkpt>
      <trkpt lat="44.52053" lon="5.37952">
        <ele>1036.44</ele>
        <time>2022-04-03T13:23:51Z</time>
      </trkpt>
      <trkpt lat="44.52047" lon="5.37949">
        <ele>1035.48</ele>
        <time>2022-04-03T13:23:57Z</time>
      </trkpt>
      <trkpt lat="44.52029" lon="5.37933">
        <ele>1033.55</ele>
        <time>2022-04-03T13:24:14Z</time>
      </trkpt>
      <trkpt lat="44.52011" lon="5.37912">
        <ele>1032.59</ele>
        <time>2022-04-03T13:24:32Z</time>
      </trkpt>
      <trkpt lat="44.51993" lon="5.37897">
        <ele>1031.15</ele>
        <time>2022-04-03T13:24:48Z</time>
      </trkpt>
      <trkpt lat="44.51984" lon="5.37882">
        <ele>1029.23</ele>
        <time>2022-04-03T13:25:01Z</time>
      </trkpt>
      <trkpt lat="44.51974" lon="5.37863">
        <ele>1026.83</ele>
        <time>2022-04-03T13:25:15Z</time>
      </trkpt>
      <trkpt lat="44.51956" lon="5.37843">
        <ele>1024.9</ele>
        <time>2022-04-03T13:25:32Z</time>
      </trkpt>
      <trkpt lat="44.51946" lon="5.37835">
        <ele>1024.42</ele>
        <time>2022-04-03T13:25:40Z</time>
      </trkpt>
      <trkpt lat="44.51931" lon="5.37818">
        <ele>1024.9</ele>
        <time>2022-04-03T13:25:55Z</time>
      </trkpt>
      <trkpt lat="44.51919" lon="5.37802">
        <ele>1026.34</ele>
        <time>2022-04-03T13:26:08Z</time>
      </trkpt>
      <trkpt lat="44.51904" lon="5.37783">
        <ele>1027.31</ele>
        <time>2022-04-03T13:26:25Z</time>
      </trkpt>
      <trkpt lat="44.51886" lon="5.37768">
        <ele>1027.79</ele>
        <time>2022-04-03T13:26:41Z</time>
      </trkpt>
      <trkpt lat="44.51868" lon="5.37757">
        <ele>1029.23</ele>
        <time>2022-04-03T13:26:56Z</time>
      </trkpt>
      <trkpt lat="44.51853" lon="5.37739">
        <ele>1031.63</ele>
        <time>2022-04-03T13:27:12Z</time>
      </trkpt>
      <trkpt lat="44.51838" lon="5.37718">
        <ele>1032.59</ele>
        <time>2022-04-03T13:27:29Z</time>
      </trkpt>
      <trkpt lat="44.51827" lon="5.37695">
        <ele>1032.59</ele>
        <time>2022-04-03T13:27:44Z</time>
      </trkpt>
      <trkpt lat="44.51819" lon="5.37669">
        <ele>1031.63</ele>
        <time>2022-04-03T13:28:00Z</time>
      </trkpt>
      <trkpt lat="44.51812" lon="5.37645">
        <ele>1028.75</ele>
        <time>2022-04-03T13:28:17Z</time>
      </trkpt>
      <trkpt lat="44.51808" lon="5.37636">
        <ele>1027.79</ele>
        <time>2022-04-03T13:28:39Z</time>
      </trkpt>
      <trkpt lat="44.51801" lon="5.37611">
        <ele>1025.86</ele>
        <time>2022-04-03T13:28:55Z</time>
      </trkpt>
      <trkpt lat="44.51794" lon="5.37585">
        <ele>1023.94</ele>
        <time>2022-04-03T13:29:12Z</time>
      </trkpt>
      <trkpt lat="44.51788" lon="5.37568">
        <ele>1022.98</ele>
        <time>2022-04-03T13:29:23Z</time>
      </trkpt>
      <trkpt lat="44.51784" lon="5.37542">
        <ele>1019.62</ele>
        <time>2022-04-03T13:29:38Z</time>
      </trkpt>
      <trkpt lat="44.51776" lon="5.37522">
        <ele>1016.25</ele>
        <time>2022-04-03T13:29:51Z</time>
      </trkpt>
      <trkpt lat="44.51768" lon="5.37506">
        <ele>1013.37</ele>
        <time>2022-04-03T13:30:02Z</time>
      </trkpt>
      <trkpt lat="44.51758" lon="5.37481">
        <ele>1010.96</ele>
        <time>2022-04-03T13:30:19Z</time>
      </trkpt>
      <trkpt lat="44.51757" lon="5.3748">
        <ele>1010.96</ele>
        <time>2022-04-03T13:30:20Z</time>
      </trkpt>
      <trkpt lat="44.51744" lon="5.37457">
        <ele>1008.56</ele>
        <time>2022-04-03T13:30:36Z</time>
      </trkpt>
      <trkpt lat="44.51733" lon="5.37434">
        <ele>1006.16</ele>
        <time>2022-04-03T13:30:52Z</time>
      </trkpt>
      <trkpt lat="44.51725" lon="5.37413">
        <ele>1002.79</ele>
        <time>2022-04-03T13:31:05Z</time>
      </trkpt>
      <trkpt lat="44.51725" lon="5.37411">
        <ele>1002.79</ele>
        <time>2022-04-03T13:31:06Z</time>
      </trkpt>
      <trkpt lat="44.51718" lon="5.37388">
        <ele>1000.39</ele>
        <time>2022-04-03T13:31:20Z</time>
      </trkpt>
      <trkpt lat="44.51708" lon="5.37359">
        <ele>997.99</ele>
        <time>2022-04-03T13:31:38Z</time>
      </trkpt>
      <trkpt lat="44.51703" lon="5.3734">
        <ele>997.51</ele>
        <time>2022-04-03T13:31:51Z</time>
      </trkpt>
      <trkpt lat="44.51702" lon="5.37337">
        <ele>997.51</ele>
        <time>2022-04-03T13:31:53Z</time>
      </trkpt>
      <trkpt lat="44.51698" lon="5.37328">
        <ele>997.51</ele>
        <time>2022-04-03T13:32:10Z</time>
      </trkpt>
      <trkpt lat="44.51693" lon="5.37318">
        <ele>996.06</ele>
        <time>2022-04-03T13:32:27Z</time>
      </trkpt>
      <trkpt lat="44.5169" lon="5.37304">
        <ele>996.06</ele>
        <time>2022-04-03T13:32:38Z</time>
      </trkpt>
      <trkpt lat="44.51687" lon="5.37297">
        <ele>996.06</ele>
        <time>2022-04-03T13:32:44Z</time>
      </trkpt>
      <trkpt lat="44.51682" lon="5.37279">
        <ele>995.58</ele>
        <time>2022-04-03T13:32:57Z</time>
      </trkpt>
      <trkpt lat="44.51681" lon="5.37274">
        <ele>995.58</ele>
        <time>2022-04-03T13:33:01Z</time>
      </trkpt>
      <trkpt lat="44.51673" lon="5.37251">
        <ele>994.62</ele>
        <time>2022-04-03T13:33:14Z</time>
      </trkpt>
      <trkpt lat="44.51666" lon="5.37231">
        <ele>992.7</ele>
        <time>2022-04-03T13:33:27Z</time>
      </trkpt>
      <trkpt lat="44.51659" lon="5.37209">
        <ele>990.3</ele>
        <time>2022-04-03T13:33:41Z</time>
      </trkpt>
      <trkpt lat="44.51646" lon="5.3718">
        <ele>988.37</ele>
        <time>2022-04-03T13:34:02Z</time>
      </trkpt>
      <trkpt lat="44.5164" lon="5.37157">
        <ele>988.37</ele>
        <time>2022-04-03T13:34:16Z</time>
      </trkpt>
      <trkpt lat="44.51637" lon="5.37148">
        <ele>987.41</ele>
        <time>2022-04-03T13:34:22Z</time>
      </trkpt>
      <trkpt lat="44.51626" lon="5.3712">
        <ele>986.93</ele>
        <time>2022-04-03T13:34:40Z</time>
      </trkpt>
      <trkpt lat="44.51624" lon="5.37113">
        <ele>986.93</ele>
        <time>2022-04-03T13:34:45Z</time>
      </trkpt>
      <trkpt lat="44.51617" lon="5.37093">
        <ele>986.93</ele>
        <time>2022-04-03T13:35:00Z</time>
      </trkpt>
      <trkpt lat="44.51615" lon="5.37091">
        <ele>988.85</ele>
        <time>2022-04-03T13:35:02Z</time>
      </trkpt>
      <trkpt lat="44.51602" lon="5.37074">
        <ele>986.45</ele>
        <time>2022-04-03T13:35:17Z</time>
      </trkpt>
      <trkpt lat="44.51597" lon="5.37063">
        <ele>986.45</ele>
        <time>2022-04-03T13:35:26Z</time>
      </trkpt>
      <trkpt lat="44.51588" lon="5.37043">
        <ele>988.37</ele>
        <time>2022-04-03T13:35:41Z</time>
      </trkpt>
      <trkpt lat="44.51585" lon="5.37032">
        <ele>986.93</ele>
        <time>2022-04-03T13:35:47Z</time>
      </trkpt>
      <trkpt lat="44.51579" lon="5.3702">
        <ele>987.89</ele>
        <time>2022-04-03T13:35:57Z</time>
      </trkpt>
      <trkpt lat="44.51578" lon="5.37019">
        <ele>987.89</ele>
        <time>2022-04-03T13:35:58Z</time>
      </trkpt>
      <trkpt lat="44.51574" lon="5.37007">
        <ele>989.33</ele>
        <time>2022-04-03T13:36:08Z</time>
      </trkpt>
      <trkpt lat="44.5157" lon="5.37001">
        <ele>989.33</ele>
        <time>2022-04-03T13:36:12Z</time>
      </trkpt>
      <trkpt lat="44.51569" lon="5.36999">
        <ele>988.37</ele>
        <time>2022-04-03T13:36:14Z</time>
      </trkpt>
      <trkpt lat="44.51568" lon="5.36998">
        <ele>988.37</ele>
        <time>2022-04-03T13:36:15Z</time>
      </trkpt>
      <trkpt lat="44.51564" lon="5.36997">
        <ele>988.37</ele>
        <time>2022-04-03T13:36:20Z</time>
      </trkpt>
      <trkpt lat="44.5155" lon="5.36987">
        <ele>987.41</ele>
        <time>2022-04-03T13:36:32Z</time>
      </trkpt>
      <trkpt lat="44.5154" lon="5.36972">
        <ele>985.49</ele>
        <time>2022-04-03T13:36:44Z</time>
      </trkpt>
      <trkpt lat="44.51535" lon="5.36962">
        <ele>985.49</ele>
        <time>2022-04-03T13:36:56Z</time>
      </trkpt>
      <trkpt lat="44.51533" lon="5.36963">
        <ele>985.49</ele>
        <time>2022-04-03T13:37:21Z</time>
      </trkpt>
      <trkpt lat="44.51533" lon="5.36962">
        <ele>985.49</ele>
        <time>2022-04-03T13:37:39Z</time>
      </trkpt>
      <trkpt lat="44.51532" lon="5.3696">
        <ele>985.49</ele>
        <time>2022-04-03T13:37:43Z</time>
      </trkpt>
      <trkpt lat="44.51531" lon="5.36958">
        <ele>985.49</ele>
        <time>2022-04-03T13:37:54Z</time>
      </trkpt>
      <trkpt lat="44.51529" lon="5.36956">
        <ele>986.93</ele>
        <time>2022-04-03T13:38:14Z</time>
      </trkpt>
      <trkpt lat="44.51529" lon="5.36954">
        <ele>986.93</ele>
        <time>2022-04-03T13:38:15Z</time>
      </trkpt>
      <trkpt lat="44.5152" lon="5.36941">
        <ele>985.01</ele>
        <time>2022-04-03T13:38:29Z</time>
      </trkpt>
      <trkpt lat="44.51519" lon="5.36939">
        <ele>984.53</ele>
        <time>2022-04-03T13:38:32Z</time>
      </trkpt>
      <trkpt lat="44.51517" lon="5.36934">
        <ele>984.53</ele>
        <time>2022-04-03T13:38:43Z</time>
      </trkpt>
      <trkpt lat="44.51516" lon="5.36932">
        <ele>984.53</ele>
        <time>2022-04-03T13:38:47Z</time>
      </trkpt>
      <trkpt lat="44.51511" lon="5.36918">
        <ele>980.68</ele>
        <time>2022-04-03T13:39:03Z</time>
      </trkpt>
      <trkpt lat="44.5151" lon="5.36912">
        <ele>978.28</ele>
        <time>2022-04-03T13:39:17Z</time>
      </trkpt>
      <trkpt lat="44.5151" lon="5.36908">
        <ele>976.84</ele>
        <time>2022-04-03T13:39:30Z</time>
      </trkpt>
      <trkpt lat="44.5151" lon="5.36907">
        <ele>978.28</ele>
        <time>2022-04-03T13:39:32Z</time>
      </trkpt>
      <trkpt lat="44.51508" lon="5.36905">
        <ele>976.84</ele>
        <time>2022-04-03T13:39:37Z</time>
      </trkpt>
      <trkpt lat="44.51506" lon="5.36903">
        <ele>975.88</ele>
        <time>2022-04-03T13:39:41Z</time>
      </trkpt>
      <trkpt lat="44.51503" lon="5.36902">
        <ele>975.39</ele>
        <time>2022-04-03T13:39:45Z</time>
      </trkpt>
      <trkpt lat="44.51496" lon="5.36903">
        <ele>974.91</ele>
        <time>2022-04-03T13:39:55Z</time>
      </trkpt>
      <trkpt lat="44.51495" lon="5.36902">
        <ele>974.91</ele>
        <time>2022-04-03T13:39:59Z</time>
      </trkpt>
      <trkpt lat="44.51489" lon="5.36904">
        <ele>973.95</ele>
        <time>2022-04-03T13:40:11Z</time>
      </trkpt>
      <trkpt lat="44.51488" lon="5.36907">
        <ele>973.95</ele>
        <time>2022-04-03T13:40:22Z</time>
      </trkpt>
      <trkpt lat="44.51484" lon="5.36908">
        <ele>973.47</ele>
        <time>2022-04-03T13:40:32Z</time>
      </trkpt>
      <trkpt lat="44.51475" lon="5.3692">
        <ele>973.47</ele>
        <time>2022-04-03T13:40:46Z</time>
      </trkpt>
      <trkpt lat="44.5147" lon="5.36926">
        <ele>972.03</ele>
        <time>2022-04-03T13:40:59Z</time>
      </trkpt>
      <trkpt lat="44.5147" lon="5.36929">
        <ele>971.55</ele>
        <time>2022-04-03T13:41:14Z</time>
      </trkpt>
      <trkpt lat="44.51464" lon="5.36937">
        <ele>970.59</ele>
        <time>2022-04-03T13:41:24Z</time>
      </trkpt>
      <trkpt lat="44.51463" lon="5.3694">
        <ele>969.63</ele>
        <time>2022-04-03T13:41:27Z</time>
      </trkpt>
      <trkpt lat="44.51458" lon="5.36945">
        <ele>968.67</ele>
        <time>2022-04-03T13:41:40Z</time>
      </trkpt>
      <trkpt lat="44.51458" lon="5.36946">
        <ele>968.67</ele>
        <time>2022-04-03T13:41:43Z</time>
      </trkpt>
      <trkpt lat="44.51449" lon="5.36953">
        <ele>964.82</ele>
        <time>2022-04-03T13:41:56Z</time>
      </trkpt>
      <trkpt lat="44.51441" lon="5.36957">
        <ele>961.46</ele>
        <time>2022-04-03T13:42:05Z</time>
      </trkpt>
      <trkpt lat="44.51433" lon="5.36961">
        <ele>958.09</ele>
        <time>2022-04-03T13:42:14Z</time>
      </trkpt>
      <trkpt lat="44.51432" lon="5.36966">
        <ele>957.13</ele>
        <time>2022-04-03T13:42:18Z</time>
      </trkpt>
      <trkpt lat="44.51425" lon="5.3699">
        <ele>954.25</ele>
        <time>2022-04-03T13:42:33Z</time>
      </trkpt>
      <trkpt lat="44.51421" lon="5.36999">
        <ele>952.8</ele>
        <time>2022-04-03T13:42:46Z</time>
      </trkpt>
      <trkpt lat="44.5142" lon="5.37">
        <ele>952.32</ele>
        <time>2022-04-03T13:42:48Z</time>
      </trkpt>
      <trkpt lat="44.51418" lon="5.37001">
        <ele>951.36</ele>
        <time>2022-04-03T13:42:51Z</time>
      </trkpt>
      <trkpt lat="44.51408" lon="5.37">
        <ele>948</ele>
        <time>2022-04-03T13:43:02Z</time>
      </trkpt>
      <trkpt lat="44.51403" lon="5.36998">
        <ele>947.04</ele>
        <time>2022-04-03T13:43:08Z</time>
      </trkpt>
      <trkpt lat="44.51401" lon="5.36995">
        <ele>946.07</ele>
        <time>2022-04-03T13:43:11Z</time>
      </trkpt>
      <trkpt lat="44.51398" lon="5.36992">
        <ele>945.59</ele>
        <time>2022-04-03T13:43:15Z</time>
      </trkpt>
      <trkpt lat="44.51389" lon="5.36992">
        <ele>943.19</ele>
        <time>2022-04-03T13:43:26Z</time>
      </trkpt>
      <trkpt lat="44.51388" lon="5.3699">
        <ele>942.71</ele>
        <time>2022-04-03T13:43:28Z</time>
      </trkpt>
      <trkpt lat="44.51384" lon="5.36983">
        <ele>941.75</ele>
        <time>2022-04-03T13:43:40Z</time>
      </trkpt>
      <trkpt lat="44.51383" lon="5.36984">
        <ele>941.27</ele>
        <time>2022-04-03T13:43:42Z</time>
      </trkpt>
      <trkpt lat="44.5138" lon="5.36985">
        <ele>940.79</ele>
        <time>2022-04-03T13:43:46Z</time>
      </trkpt>
      <trkpt lat="44.51369" lon="5.3699">
        <ele>938.38</ele>
        <time>2022-04-03T13:43:57Z</time>
      </trkpt>
      <trkpt lat="44.5136" lon="5.36992">
        <ele>937.42</ele>
        <time>2022-04-03T13:44:05Z</time>
      </trkpt>
      <trkpt lat="44.51356" lon="5.36995">
        <ele>935.98</ele>
        <time>2022-04-03T13:44:08Z</time>
      </trkpt>
      <trkpt lat="44.51354" lon="5.36996">
        <ele>935.98</ele>
        <time>2022-04-03T13:44:10Z</time>
      </trkpt>
      <trkpt lat="44.51352" lon="5.36999">
        <ele>935.98</ele>
        <time>2022-04-03T13:44:14Z</time>
      </trkpt>
      <trkpt lat="44.51345" lon="5.37003">
        <ele>935.02</ele>
        <time>2022-04-03T13:44:21Z</time>
      </trkpt>
      <trkpt lat="44.51342" lon="5.37009">
        <ele>934.54</ele>
        <time>2022-04-03T13:44:28Z</time>
      </trkpt>
      <trkpt lat="44.5134" lon="5.37011">
        <ele>933.58</ele>
        <time>2022-04-03T13:44:31Z</time>
      </trkpt>
      <trkpt lat="44.51339" lon="5.37024">
        <ele>935.02</ele>
        <time>2022-04-03T13:44:40Z</time>
      </trkpt>
      <trkpt lat="44.51339" lon="5.37025">
        <ele>933.58</ele>
        <time>2022-04-03T13:44:45Z</time>
      </trkpt>
      <trkpt lat="44.5134" lon="5.37026">
        <ele>933.58</ele>
        <time>2022-04-03T13:44:47Z</time>
      </trkpt>
      <trkpt lat="44.51341" lon="5.37028">
        <ele>933.58</ele>
        <time>2022-04-03T13:44:49Z</time>
      </trkpt>
      <trkpt lat="44.51342" lon="5.37034">
        <ele>933.58</ele>
        <time>2022-04-03T13:44:59Z</time>
      </trkpt>
      <trkpt lat="44.51343" lon="5.37038">
        <ele>933.58</ele>
        <time>2022-04-03T13:45:07Z</time>
      </trkpt>
      <trkpt lat="44.51344" lon="5.3705">
        <ele>933.58</ele>
        <time>2022-04-03T13:45:16Z</time>
      </trkpt>
      <trkpt lat="44.51346" lon="5.37057">
        <ele>932.62</ele>
        <time>2022-04-03T13:45:22Z</time>
      </trkpt>
      <trkpt lat="44.51348" lon="5.3706">
        <ele>932.62</ele>
        <time>2022-04-03T13:45:25Z</time>
      </trkpt>
      <trkpt lat="44.51347" lon="5.37064">
        <ele>932.62</ele>
        <time>2022-04-03T13:45:28Z</time>
      </trkpt>
      <trkpt lat="44.5135" lon="5.37071">
        <ele>932.14</ele>
        <time>2022-04-03T13:45:33Z</time>
      </trkpt>
      <trkpt lat="44.51353" lon="5.37074">
        <ele>932.14</ele>
        <time>2022-04-03T13:45:36Z</time>
      </trkpt>
      <trkpt lat="44.51355" lon="5.37081">
        <ele>932.14</ele>
        <time>2022-04-03T13:45:41Z</time>
      </trkpt>
      <trkpt lat="44.51361" lon="5.37096">
        <ele>930.21</ele>
        <time>2022-04-03T13:45:53Z</time>
      </trkpt>
      <trkpt lat="44.51363" lon="5.37099">
        <ele>930.21</ele>
        <time>2022-04-03T13:45:57Z</time>
      </trkpt>
      <trkpt lat="44.51365" lon="5.37103">
        <ele>930.21</ele>
        <time>2022-04-03T13:46:00Z</time>
      </trkpt>
      <trkpt lat="44.51365" lon="5.37108">
        <ele>929.25</ele>
        <time>2022-04-03T13:46:03Z</time>
      </trkpt>
      <trkpt lat="44.51367" lon="5.37113">
        <ele>930.69</ele>
        <time>2022-04-03T13:46:07Z</time>
      </trkpt>
      <trkpt lat="44.51368" lon="5.37117">
        <ele>929.73</ele>
        <time>2022-04-03T13:46:11Z</time>
      </trkpt>
      <trkpt lat="44.51375" lon="5.3713">
        <ele>930.21</ele>
        <time>2022-04-03T13:46:26Z</time>
      </trkpt>
      <trkpt lat="44.51376" lon="5.37136">
        <ele>930.21</ele>
        <time>2022-04-03T13:46:33Z</time>
      </trkpt>
      <trkpt lat="44.51381" lon="5.37146">
        <ele>928.77</ele>
        <time>2022-04-03T13:46:45Z</time>
      </trkpt>
      <trkpt lat="44.51382" lon="5.3715">
        <ele>928.77</ele>
        <time>2022-04-03T13:46:59Z</time>
      </trkpt>
      <trkpt lat="44.51379" lon="5.37156">
        <ele>927.33</ele>
        <time>2022-04-03T13:47:12Z</time>
      </trkpt>
      <trkpt lat="44.51381" lon="5.37163">
        <ele>926.85</ele>
        <time>2022-04-03T13:47:29Z</time>
      </trkpt>
      <trkpt lat="44.51383" lon="5.37176">
        <ele>923.48</ele>
        <time>2022-04-03T13:47:44Z</time>
      </trkpt>
      <trkpt lat="44.51385" lon="5.37181">
        <ele>924.45</ele>
        <time>2022-04-03T13:47:57Z</time>
      </trkpt>
      <trkpt lat="44.51389" lon="5.37184">
        <ele>922.52</ele>
        <time>2022-04-03T13:48:11Z</time>
      </trkpt>
      <trkpt lat="44.51389" lon="5.37184">
        <ele>922.52</ele>
        <time>2022-04-03T13:48:12Z</time>
      </trkpt>
      <trkpt lat="44.51392" lon="5.37186">
        <ele>920.6</ele>
        <time>2022-04-03T13:48:22Z</time>
      </trkpt>
      <trkpt lat="44.51394" lon="5.37185">
        <ele>922.04</ele>
        <time>2022-04-03T13:48:26Z</time>
      </trkpt>
      <trkpt lat="44.51401" lon="5.37179">
        <ele>923.48</ele>
        <time>2022-04-03T13:48:38Z</time>
      </trkpt>
      <trkpt lat="44.5141" lon="5.37175">
        <ele>924.45</ele>
        <time>2022-04-03T13:48:53Z</time>
      </trkpt>
      <trkpt lat="44.51414" lon="5.37172">
        <ele>925.41</ele>
        <time>2022-04-03T13:48:58Z</time>
      </trkpt>
      <trkpt lat="44.51424" lon="5.37176">
        <ele>923</ele>
        <time>2022-04-03T13:49:12Z</time>
      </trkpt>
      <trkpt lat="44.51429" lon="5.37181">
        <ele>921.08</ele>
        <time>2022-04-03T13:49:20Z</time>
      </trkpt>
      <trkpt lat="44.51437" lon="5.37189">
        <ele>918.2</ele>
        <time>2022-04-03T13:49:30Z</time>
      </trkpt>
      <trkpt lat="44.51442" lon="5.37197">
        <ele>917.24</ele>
        <time>2022-04-03T13:49:49Z</time>
      </trkpt>
      <trkpt lat="44.51444" lon="5.37202">
        <ele>916.27</ele>
        <time>2022-04-03T13:49:53Z</time>
      </trkpt>
      <trkpt lat="44.51443" lon="5.37214">
        <ele>912.43</ele>
        <time>2022-04-03T13:50:02Z</time>
      </trkpt>
      <trkpt lat="44.5144" lon="5.37227">
        <ele>909.06</ele>
        <time>2022-04-03T13:50:11Z</time>
      </trkpt>
      <trkpt lat="44.51438" lon="5.37231">
        <ele>907.62</ele>
        <time>2022-04-03T13:50:15Z</time>
      </trkpt>
      <trkpt lat="44.51432" lon="5.37243">
        <ele>903.78</ele>
        <time>2022-04-03T13:50:26Z</time>
      </trkpt>
      <trkpt lat="44.51427" lon="5.37253">
        <ele>900.89</ele>
        <time>2022-04-03T13:50:35Z</time>
      </trkpt>
      <trkpt lat="44.51424" lon="5.37264">
        <ele>897.53</ele>
        <time>2022-04-03T13:50:44Z</time>
      </trkpt>
      <trkpt lat="44.51419" lon="5.37273">
        <ele>894.16</ele>
        <time>2022-04-03T13:50:52Z</time>
      </trkpt>
      <trkpt lat="44.51414" lon="5.37284">
        <ele>890.32</ele>
        <time>2022-04-03T13:51:02Z</time>
      </trkpt>
      <trkpt lat="44.51414" lon="5.37288">
        <ele>889.84</ele>
        <time>2022-04-03T13:51:05Z</time>
      </trkpt>
      <trkpt lat="44.5141" lon="5.37303">
        <ele>885.99</ele>
        <time>2022-04-03T13:51:16Z</time>
      </trkpt>
      <trkpt lat="44.51404" lon="5.37308">
        <ele>883.11</ele>
        <time>2022-04-03T13:51:24Z</time>
      </trkpt>
      <trkpt lat="44.5139" lon="5.37311">
        <ele>879.74</ele>
        <time>2022-04-03T13:51:37Z</time>
      </trkpt>
      <trkpt lat="44.51376" lon="5.3731">
        <ele>878.3</ele>
        <time>2022-04-03T13:51:52Z</time>
      </trkpt>
      <trkpt lat="44.51369" lon="5.3731">
        <ele>878.3</ele>
        <time>2022-04-03T13:51:59Z</time>
      </trkpt>
      <trkpt lat="44.51354" lon="5.37307">
        <ele>876.38</ele>
        <time>2022-04-03T13:52:13Z</time>
      </trkpt>
      <trkpt lat="44.51339" lon="5.37305">
        <ele>876.38</ele>
        <time>2022-04-03T13:52:28Z</time>
      </trkpt>
      <trkpt lat="44.51321" lon="5.373">
        <ele>876.38</ele>
        <time>2022-04-03T13:52:43Z</time>
      </trkpt>
      <trkpt lat="44.51306" lon="5.37296">
        <ele>875.42</ele>
        <time>2022-04-03T13:52:54Z</time>
      </trkpt>
      <trkpt lat="44.51293" lon="5.37295">
        <ele>873.5</ele>
        <time>2022-04-03T13:53:07Z</time>
      </trkpt>
      <trkpt lat="44.51282" lon="5.37289">
        <ele>871.09</ele>
        <time>2022-04-03T13:53:21Z</time>
      </trkpt>
      <trkpt lat="44.51261" lon="5.37284">
        <ele>868.21</ele>
        <time>2022-04-03T13:53:37Z</time>
      </trkpt>
      <trkpt lat="44.51242" lon="5.37279">
        <ele>865.32</ele>
        <time>2022-04-03T13:53:51Z</time>
      </trkpt>
      <trkpt lat="44.51232" lon="5.37272">
        <ele>861.96</ele>
        <time>2022-04-03T13:54:02Z</time>
      </trkpt>
      <trkpt lat="44.51223" lon="5.37269">
        <ele>861</ele>
        <time>2022-04-03T13:54:21Z</time>
      </trkpt>
      <trkpt lat="44.51209" lon="5.37262">
        <ele>859.08</ele>
        <time>2022-04-03T13:54:35Z</time>
      </trkpt>
      <trkpt lat="44.51194" lon="5.37247">
        <ele>857.15</ele>
        <time>2022-04-03T13:54:50Z</time>
      </trkpt>
      <trkpt lat="44.51188" lon="5.37238">
        <ele>857.15</ele>
        <time>2022-04-03T13:54:57Z</time>
      </trkpt>
      <trkpt lat="44.51183" lon="5.37215">
        <ele>853.79</ele>
        <time>2022-04-03T13:55:13Z</time>
      </trkpt>
      <trkpt lat="44.5118" lon="5.37205">
        <ele>851.87</ele>
        <time>2022-04-03T13:55:20Z</time>
      </trkpt>
      <trkpt lat="44.51176" lon="5.37187">
        <ele>848.5</ele>
        <time>2022-04-03T13:55:33Z</time>
      </trkpt>
      <trkpt lat="44.51178" lon="5.37175">
        <ele>846.58</ele>
        <time>2022-04-03T13:55:42Z</time>
      </trkpt>
      <trkpt lat="44.51174" lon="5.37155">
        <ele>842.73</ele>
        <time>2022-04-03T13:55:55Z</time>
      </trkpt>
      <trkpt lat="44.51173" lon="5.37136">
        <ele>839.37</ele>
        <time>2022-04-03T13:56:07Z</time>
      </trkpt>
      <trkpt lat="44.51171" lon="5.37116">
        <ele>836.48</ele>
        <time>2022-04-03T13:56:20Z</time>
      </trkpt>
      <trkpt lat="44.5117" lon="5.37091">
        <ele>833.6</ele>
        <time>2022-04-03T13:56:37Z</time>
      </trkpt>
      <trkpt lat="44.51165" lon="5.37084">
        <ele>830.72</ele>
        <time>2022-04-03T13:56:49Z</time>
      </trkpt>
      <trkpt lat="44.51163" lon="5.37094">
        <ele>829.27</ele>
        <time>2022-04-03T13:56:55Z</time>
      </trkpt>
      <trkpt lat="44.5115" lon="5.37104">
        <ele>825.43</ele>
        <time>2022-04-03T13:57:08Z</time>
      </trkpt>
      <trkpt lat="44.51145" lon="5.37107">
        <ele>823.99</ele>
        <time>2022-04-03T13:57:13Z</time>
      </trkpt>
      <trkpt lat="44.51131" lon="5.37115">
        <ele>820.62</ele>
        <time>2022-04-03T13:57:27Z</time>
      </trkpt>
      <trkpt lat="44.51129" lon="5.3712">
        <ele>819.66</ele>
        <time>2022-04-03T13:57:30Z</time>
      </trkpt>
      <trkpt lat="44.51123" lon="5.37144">
        <ele>817.74</ele>
        <time>2022-04-03T13:57:47Z</time>
      </trkpt>
      <trkpt lat="44.5112" lon="5.37146">
        <ele>816.78</ele>
        <time>2022-04-03T13:58:00Z</time>
      </trkpt>
      <trkpt lat="44.51118" lon="5.37145">
        <ele>816.3</ele>
        <time>2022-04-03T13:58:03Z</time>
      </trkpt>
      <trkpt lat="44.51107" lon="5.37137">
        <ele>812.45</ele>
        <time>2022-04-03T13:58:15Z</time>
      </trkpt>
      <trkpt lat="44.51106" lon="5.37136">
        <ele>812.45</ele>
        <time>2022-04-03T13:58:16Z</time>
      </trkpt>
      <trkpt lat="44.51091" lon="5.37141">
        <ele>808.61</ele>
        <time>2022-04-03T13:58:30Z</time>
      </trkpt>
      <trkpt lat="44.51084" lon="5.37143">
        <ele>807.16</ele>
        <time>2022-04-03T13:58:39Z</time>
      </trkpt>
      <trkpt lat="44.51073" lon="5.37151">
        <ele>803.8</ele>
        <time>2022-04-03T13:58:51Z</time>
      </trkpt>
      <trkpt lat="44.51068" lon="5.37158">
        <ele>801.88</ele>
        <time>2022-04-03T13:58:59Z</time>
      </trkpt>
      <trkpt lat="44.51067" lon="5.37163">
        <ele>799.95</ele>
        <time>2022-04-03T13:59:02Z</time>
      </trkpt>
      <trkpt lat="44.51059" lon="5.37178">
        <ele>796.11</ele>
        <time>2022-04-03T13:59:15Z</time>
      </trkpt>
      <trkpt lat="44.51059" lon="5.37179">
        <ele>796.11</ele>
        <time>2022-04-03T13:59:16Z</time>
      </trkpt>
      <trkpt lat="44.51054" lon="5.3718">
        <ele>794.19</ele>
        <time>2022-04-03T13:59:29Z</time>
      </trkpt>
      <trkpt lat="44.51052" lon="5.37177">
        <ele>793.71</ele>
        <time>2022-04-03T13:59:38Z</time>
      </trkpt>
      <trkpt lat="44.51042" lon="5.37167">
        <ele>793.71</ele>
        <time>2022-04-03T13:59:50Z</time>
      </trkpt>
      <trkpt lat="44.51034" lon="5.37154">
        <ele>795.15</ele>
        <time>2022-04-03T14:00:05Z</time>
      </trkpt>
      <trkpt lat="44.51029" lon="5.37134">
        <ele>794.19</ele>
        <time>2022-04-03T14:00:20Z</time>
      </trkpt>
      <trkpt lat="44.51039" lon="5.37109">
        <ele>792.26</ele>
        <time>2022-04-03T14:00:37Z</time>
      </trkpt>
      <trkpt lat="44.51042" lon="5.37106">
        <ele>792.26</ele>
        <time>2022-04-03T14:00:40Z</time>
      </trkpt>
      <trkpt lat="44.51051" lon="5.37084">
        <ele>792.26</ele>
        <time>2022-04-03T14:00:55Z</time>
      </trkpt>
      <trkpt lat="44.51049" lon="5.37049">
        <ele>790.34</ele>
        <time>2022-04-03T14:01:15Z</time>
      </trkpt>
      <trkpt lat="44.51055" lon="5.37028">
        <ele>788.9</ele>
        <time>2022-04-03T14:01:29Z</time>
      </trkpt>
      <trkpt lat="44.5106" lon="5.37001">
        <ele>788.42</ele>
        <time>2022-04-03T14:01:45Z</time>
      </trkpt>
      <trkpt lat="44.51063" lon="5.36988">
        <ele>787.94</ele>
        <time>2022-04-03T14:01:54Z</time>
      </trkpt>
      <trkpt lat="44.51063" lon="5.3698">
        <ele>786.5</ele>
        <time>2022-04-03T14:01:59Z</time>
      </trkpt>
      <trkpt lat="44.51063" lon="5.36977">
        <ele>786.5</ele>
        <time>2022-04-03T14:02:01Z</time>
      </trkpt>
      <trkpt lat="44.51069" lon="5.36948">
        <ele>784.57</ele>
        <time>2022-04-03T14:02:18Z</time>
      </trkpt>
      <trkpt lat="44.5107" lon="5.36944">
        <ele>784.57</ele>
        <time>2022-04-03T14:02:20Z</time>
      </trkpt>
      <trkpt lat="44.5107" lon="5.36935">
        <ele>784.57</ele>
        <time>2022-04-03T14:02:25Z</time>
      </trkpt>
      <trkpt lat="44.51061" lon="5.36927">
        <ele>784.09</ele>
        <time>2022-04-03T14:02:36Z</time>
      </trkpt>
      <trkpt lat="44.51059" lon="5.36927">
        <ele>784.09</ele>
        <time>2022-04-03T14:02:39Z</time>
      </trkpt>
      <trkpt lat="44.51049" lon="5.36927">
        <ele>783.13</ele>
        <time>2022-04-03T14:02:49Z</time>
      </trkpt>
      <trkpt lat="44.51039" lon="5.36924">
        <ele>782.17</ele>
        <time>2022-04-03T14:03:00Z</time>
      </trkpt>
      <trkpt lat="44.51024" lon="5.36898">
        <ele>779.29</ele>
        <time>2022-04-03T14:03:21Z</time>
      </trkpt>
      <trkpt lat="44.51026" lon="5.36882">
        <ele>779.77</ele>
        <time>2022-04-03T14:03:30Z</time>
      </trkpt>
      <trkpt lat="44.51026" lon="5.36878">
        <ele>779.77</ele>
        <time>2022-04-03T14:03:33Z</time>
      </trkpt>
      <trkpt lat="44.51024" lon="5.36873">
        <ele>779.77</ele>
        <time>2022-04-03T14:03:37Z</time>
      </trkpt>
      <trkpt lat="44.51018" lon="5.36872">
        <ele>779.77</ele>
        <time>2022-04-03T14:03:47Z</time>
      </trkpt>
      <trkpt lat="44.51015" lon="5.36873">
        <ele>779.77</ele>
        <time>2022-04-03T14:03:53Z</time>
      </trkpt>
      <trkpt lat="44.50995" lon="5.36868">
        <ele>778.81</ele>
        <time>2022-04-03T14:04:11Z</time>
      </trkpt>
      <trkpt lat="44.50991" lon="5.36866">
        <ele>778.81</ele>
        <time>2022-04-03T14:04:14Z</time>
      </trkpt>
      <trkpt lat="44.50978" lon="5.36845">
        <ele>778.32</ele>
        <time>2022-04-03T14:04:31Z</time>
      </trkpt>
      <trkpt lat="44.50963" lon="5.36828">
        <ele>779.77</ele>
        <time>2022-04-03T14:04:48Z</time>
      </trkpt>
      <trkpt lat="44.50951" lon="5.36809">
        <ele>781.69</ele>
        <time>2022-04-03T14:05:04Z</time>
      </trkpt>
      <trkpt lat="44.50939" lon="5.36788">
        <ele>782.17</ele>
        <time>2022-04-03T14:05:19Z</time>
      </trkpt>
      <trkpt lat="44.50929" lon="5.36765">
        <ele>784.09</ele>
        <time>2022-04-03T14:05:35Z</time>
      </trkpt>
      <trkpt lat="44.50924" lon="5.36737">
        <ele>784.57</ele>
        <time>2022-04-03T14:05:52Z</time>
      </trkpt>
      <trkpt lat="44.50924" lon="5.36713">
        <ele>784.57</ele>
        <time>2022-04-03T14:06:08Z</time>
      </trkpt>
      <trkpt lat="44.50923" lon="5.36693">
        <ele>785.53</ele>
        <time>2022-04-03T14:06:23Z</time>
      </trkpt>
      <trkpt lat="44.50923" lon="5.36691">
        <ele>784.09</ele>
        <time>2022-04-03T14:06:25Z</time>
      </trkpt>
      <trkpt lat="44.50921" lon="5.3669">
        <ele>783.61</ele>
        <time>2022-04-03T14:07:50Z</time>
      </trkpt>
      <trkpt lat="44.5092" lon="5.36687">
        <ele>785.05</ele>
        <time>2022-04-03T14:08:02Z</time>
      </trkpt>
      <trkpt lat="44.50919" lon="5.36677">
        <ele>783.13</ele>
        <time>2022-04-03T14:08:15Z</time>
      </trkpt>
      <trkpt lat="44.50915" lon="5.36668">
        <ele>782.65</ele>
        <time>2022-04-03T14:08:26Z</time>
      </trkpt>
      <trkpt lat="44.5091" lon="5.36639">
        <ele>780.25</ele>
        <time>2022-04-03T14:08:44Z</time>
      </trkpt>
      <trkpt lat="44.50919" lon="5.36614">
        <ele>778.32</ele>
        <time>2022-04-03T14:09:02Z</time>
      </trkpt>
      <trkpt lat="44.50935" lon="5.36604">
        <ele>775.44</ele>
        <time>2022-04-03T14:09:17Z</time>
      </trkpt>
      <trkpt lat="44.50933" lon="5.36594">
        <ele>774.48</ele>
        <time>2022-04-03T14:09:32Z</time>
      </trkpt>
      <trkpt lat="44.50926" lon="5.36595">
        <ele>774.48</ele>
        <time>2022-04-03T14:09:39Z</time>
      </trkpt>
      <trkpt lat="44.50906" lon="5.36594">
        <ele>774</ele>
        <time>2022-04-03T14:09:56Z</time>
      </trkpt>
      <trkpt lat="44.50891" lon="5.36569">
        <ele>773.52</ele>
        <time>2022-04-03T14:10:13Z</time>
      </trkpt>
      <trkpt lat="44.50878" lon="5.36541">
        <ele>773.04</ele>
        <time>2022-04-03T14:10:31Z</time>
      </trkpt>
      <trkpt lat="44.50864" lon="5.36516">
        <ele>772.56</ele>
        <time>2022-04-03T14:10:50Z</time>
      </trkpt>
      <trkpt lat="44.50862" lon="5.36512">
        <ele>772.08</ele>
        <time>2022-04-03T14:10:53Z</time>
      </trkpt>
      <trkpt lat="44.5085" lon="5.36497">
        <ele>769.67</ele>
        <time>2022-04-03T14:11:07Z</time>
      </trkpt>
      <trkpt lat="44.50837" lon="5.36488">
        <ele>768.23</ele>
        <time>2022-04-03T14:11:21Z</time>
      </trkpt>
      <trkpt lat="44.50816" lon="5.36499">
        <ele>764.87</ele>
        <time>2022-04-03T14:11:39Z</time>
      </trkpt>
      <trkpt lat="44.50793" lon="5.36504">
        <ele>762.46</ele>
        <time>2022-04-03T14:11:57Z</time>
      </trkpt>
      <trkpt lat="44.50772" lon="5.36493">
        <ele>760.54</ele>
        <time>2022-04-03T14:12:15Z</time>
      </trkpt>
      <trkpt lat="44.50756" lon="5.36476">
        <ele>759.58</ele>
        <time>2022-04-03T14:12:33Z</time>
      </trkpt>
      <trkpt lat="44.50752" lon="5.36471">
        <ele>759.1</ele>
        <time>2022-04-03T14:12:49Z</time>
      </trkpt>
      <trkpt lat="44.50753" lon="5.36467">
        <ele>759.1</ele>
        <time>2022-04-03T14:12:52Z</time>
      </trkpt>
      <trkpt lat="44.50754" lon="5.3646">
        <ele>761.02</ele>
        <time>2022-04-03T14:12:56Z</time>
      </trkpt>
      <trkpt lat="44.50758" lon="5.36436">
        <ele>761.02</ele>
        <time>2022-04-03T14:13:10Z</time>
      </trkpt>
      <trkpt lat="44.50758" lon="5.36434">
        <ele>761.02</ele>
        <time>2022-04-03T14:13:11Z</time>
      </trkpt>
      <trkpt lat="44.50761" lon="5.36421">
        <ele>762.46</ele>
        <time>2022-04-03T14:13:19Z</time>
      </trkpt>
      <trkpt lat="44.50761" lon="5.36406">
        <ele>765.35</ele>
        <time>2022-04-03T14:13:28Z</time>
      </trkpt>
      <trkpt lat="44.50762" lon="5.36395">
        <ele>768.23</ele>
        <time>2022-04-03T14:13:35Z</time>
      </trkpt>
      <trkpt lat="44.50763" lon="5.36393">
        <ele>768.23</ele>
        <time>2022-04-03T14:13:36Z</time>
      </trkpt>
      <trkpt lat="44.50764" lon="5.36387">
        <ele>766.79</ele>
        <time>2022-04-03T14:13:40Z</time>
      </trkpt>
      <trkpt lat="44.50765" lon="5.36381">
        <ele>769.19</ele>
        <time>2022-04-03T14:13:44Z</time>
      </trkpt>
      <trkpt lat="44.50771" lon="5.36361">
        <ele>771.6</ele>
        <time>2022-04-03T14:13:59Z</time>
      </trkpt>
      <trkpt lat="44.50773" lon="5.36356">
        <ele>770.15</ele>
        <time>2022-04-03T14:14:03Z</time>
      </trkpt>
      <trkpt lat="44.50774" lon="5.36353">
        <ele>771.6</ele>
        <time>2022-04-03T14:14:06Z</time>
      </trkpt>
      <trkpt lat="44.50778" lon="5.36342">
        <ele>770.63</ele>
        <time>2022-04-03T14:14:14Z</time>
      </trkpt>
      <trkpt lat="44.50781" lon="5.36334">
        <ele>771.6</ele>
        <time>2022-04-03T14:14:21Z</time>
      </trkpt>
      <trkpt lat="44.50782" lon="5.3633">
        <ele>770.15</ele>
        <time>2022-04-03T14:14:24Z</time>
      </trkpt>
      <trkpt lat="44.50781" lon="5.36313">
        <ele>769.67</ele>
        <time>2022-04-03T14:15:07Z</time>
      </trkpt>
      <trkpt lat="44.50779" lon="5.36309">
        <ele>769.67</ele>
        <time>2022-04-03T14:15:11Z</time>
      </trkpt>
      <trkpt lat="44.50776" lon="5.36304">
        <ele>767.75</ele>
        <time>2022-04-03T14:15:14Z</time>
      </trkpt>
      <trkpt lat="44.5077" lon="5.3629">
        <ele>769.19</ele>
        <time>2022-04-03T14:15:23Z</time>
      </trkpt>
      <trkpt lat="44.50764" lon="5.36264">
        <ele>769.67</ele>
        <time>2022-04-03T14:15:39Z</time>
      </trkpt>
      <trkpt lat="44.50762" lon="5.36238">
        <ele>768.23</ele>
        <time>2022-04-03T14:15:55Z</time>
      </trkpt>
      <trkpt lat="44.50759" lon="5.36211">
        <ele>767.27</ele>
        <time>2022-04-03T14:16:11Z</time>
      </trkpt>
      <trkpt lat="44.50757" lon="5.36188">
        <ele>767.27</ele>
        <time>2022-04-03T14:16:26Z</time>
      </trkpt>
      <trkpt lat="44.50756" lon="5.36181">
        <ele>767.27</ele>
        <time>2022-04-03T14:16:30Z</time>
      </trkpt>
      <trkpt lat="44.50757" lon="5.3618">
        <ele>767.27</ele>
        <time>2022-04-03T14:16:31Z</time>
      </trkpt>
      <trkpt lat="44.50757" lon="5.36177">
        <ele>768.71</ele>
        <time>2022-04-03T14:16:33Z</time>
      </trkpt>
      <trkpt lat="44.50751" lon="5.36158">
        <ele>769.67</ele>
        <time>2022-04-03T14:16:47Z</time>
      </trkpt>
      <trkpt lat="44.50745" lon="5.36157">
        <ele>768.23</ele>
        <time>2022-04-03T14:16:53Z</time>
      </trkpt>
      <trkpt lat="44.50739" lon="5.36156">
        <ele>765.83</ele>
        <time>2022-04-03T14:17:01Z</time>
      </trkpt>
      <trkpt lat="44.50738" lon="5.36155">
        <ele>764.87</ele>
        <time>2022-04-03T14:17:02Z</time>
      </trkpt>
      <trkpt lat="44.50737" lon="5.36154">
        <ele>764.87</ele>
        <time>2022-04-03T14:17:03Z</time>
      </trkpt>
      <trkpt lat="44.50737" lon="5.36152">
        <ele>764.87</ele>
        <time>2022-04-03T14:17:04Z</time>
      </trkpt>
      <trkpt lat="44.50737" lon="5.36151">
        <ele>764.87</ele>
        <time>2022-04-03T14:17:05Z</time>
      </trkpt>
      <trkpt lat="44.50737" lon="5.36149">
        <ele>763.42</ele>
        <time>2022-04-03T14:17:06Z</time>
      </trkpt>
      <trkpt lat="44.50737" lon="5.36147">
        <ele>763.42</ele>
        <time>2022-04-03T14:17:07Z</time>
      </trkpt>
      <trkpt lat="44.50735" lon="5.36124">
        <ele>763.9</ele>
        <time>2022-04-03T14:17:22Z</time>
      </trkpt>
      <trkpt lat="44.50733" lon="5.36103">
        <ele>767.27</ele>
        <time>2022-04-03T14:17:36Z</time>
      </trkpt>
      <trkpt lat="44.50731" lon="5.36089">
        <ele>767.27</ele>
        <time>2022-04-03T14:17:44Z</time>
      </trkpt>
      <trkpt lat="44.50732" lon="5.36086">
        <ele>767.27</ele>
        <time>2022-04-03T14:17:46Z</time>
      </trkpt>
      <trkpt lat="44.50732" lon="5.36078">
        <ele>767.27</ele>
        <time>2022-04-03T14:17:52Z</time>
      </trkpt>
      <trkpt lat="44.5073" lon="5.36055">
        <ele>768.71</ele>
        <time>2022-04-03T14:18:08Z</time>
      </trkpt>
      <trkpt lat="44.50733" lon="5.36041">
        <ele>769.67</ele>
        <time>2022-04-03T14:18:20Z</time>
      </trkpt>
      <trkpt lat="44.50748" lon="5.36028">
        <ele>768.23</ele>
        <time>2022-04-03T14:18:37Z</time>
      </trkpt>
      <trkpt lat="44.50749" lon="5.36027">
        <ele>767.75</ele>
        <time>2022-04-03T14:18:39Z</time>
      </trkpt>
      <trkpt lat="44.50754" lon="5.36023">
        <ele>767.75</ele>
        <time>2022-04-03T14:18:44Z</time>
      </trkpt>
      <trkpt lat="44.50765" lon="5.36016">
        <ele>769.19</ele>
        <time>2022-04-03T14:18:54Z</time>
      </trkpt>
      <trkpt lat="44.50773" lon="5.36012">
        <ele>772.08</ele>
        <time>2022-04-03T14:19:08Z</time>
      </trkpt>
      <trkpt lat="44.50778" lon="5.36009">
        <ele>774</ele>
        <time>2022-04-03T14:19:23Z</time>
      </trkpt>
      <trkpt lat="44.50781" lon="5.36009">
        <ele>774.96</ele>
        <time>2022-04-03T14:19:41Z</time>
      </trkpt>
      <trkpt lat="44.50781" lon="5.36008">
        <ele>775.44</ele>
        <time>2022-04-03T14:19:42Z</time>
      </trkpt>
      <trkpt lat="44.50782" lon="5.35995">
        <ele>774.96</ele>
        <time>2022-04-03T14:19:52Z</time>
      </trkpt>
      <trkpt lat="44.50786" lon="5.35986">
        <ele>774.96</ele>
        <time>2022-04-03T14:20:06Z</time>
      </trkpt>
      <trkpt lat="44.50789" lon="5.35971">
        <ele>774.48</ele>
        <time>2022-04-03T14:20:23Z</time>
      </trkpt>
      <trkpt lat="44.5079" lon="5.35963">
        <ele>775.92</ele>
        <time>2022-04-03T14:20:28Z</time>
      </trkpt>
      <trkpt lat="44.50792" lon="5.35958">
        <ele>776.4</ele>
        <time>2022-04-03T14:20:32Z</time>
      </trkpt>
      <trkpt lat="44.5079" lon="5.35925">
        <ele>777.36</ele>
        <time>2022-04-03T14:20:50Z</time>
      </trkpt>
      <trkpt lat="44.50793" lon="5.35907">
        <ele>775.44</ele>
        <time>2022-04-03T14:21:00Z</time>
      </trkpt>
      <trkpt lat="44.50798" lon="5.35898">
        <ele>775.44</ele>
        <time>2022-04-03T14:21:06Z</time>
      </trkpt>
      <trkpt lat="44.50802" lon="5.35891">
        <ele>774.48</ele>
        <time>2022-04-03T14:21:11Z</time>
      </trkpt>
      <trkpt lat="44.50805" lon="5.35884">
        <ele>774.48</ele>
        <time>2022-04-03T14:21:16Z</time>
      </trkpt>
      <trkpt lat="44.50802" lon="5.35856">
        <ele>773.52</ele>
        <time>2022-04-03T14:21:33Z</time>
      </trkpt>
      <trkpt lat="44.50801" lon="5.35851">
        <ele>775.44</ele>
        <time>2022-04-03T14:21:37Z</time>
      </trkpt>
      <trkpt lat="44.50801" lon="5.35848">
        <ele>774</ele>
        <time>2022-04-03T14:21:39Z</time>
      </trkpt>
      <trkpt lat="44.508" lon="5.35835">
        <ele>770.63</ele>
        <time>2022-04-03T14:21:48Z</time>
      </trkpt>
      <trkpt lat="44.508" lon="5.35811">
        <ele>771.6</ele>
        <time>2022-04-03T14:22:03Z</time>
      </trkpt>
      <trkpt lat="44.50801" lon="5.35779">
        <ele>769.19</ele>
        <time>2022-04-03T14:22:20Z</time>
      </trkpt>
      <trkpt lat="44.50802" lon="5.35749">
        <ele>768.23</ele>
        <time>2022-04-03T14:22:37Z</time>
      </trkpt>
      <trkpt lat="44.50802" lon="5.35731">
        <ele>769.67</ele>
        <time>2022-04-03T14:22:47Z</time>
      </trkpt>
      <trkpt lat="44.50802" lon="5.35726">
        <ele>768.23</ele>
        <time>2022-04-03T14:22:50Z</time>
      </trkpt>
      <trkpt lat="44.50797" lon="5.35702">
        <ele>767.75</ele>
        <time>2022-04-03T14:23:05Z</time>
      </trkpt>
      <trkpt lat="44.50795" lon="5.35698">
        <ele>769.19</ele>
        <time>2022-04-03T14:23:08Z</time>
      </trkpt>
      <trkpt lat="44.50791" lon="5.3568">
        <ele>769.67</ele>
        <time>2022-04-03T14:23:20Z</time>
      </trkpt>
      <trkpt lat="44.50788" lon="5.35655">
        <ele>770.15</ele>
        <time>2022-04-03T14:23:37Z</time>
      </trkpt>
      <trkpt lat="44.50788" lon="5.35645">
        <ele>769.19</ele>
        <time>2022-04-03T14:23:44Z</time>
      </trkpt>
      <trkpt lat="44.50784" lon="5.35614">
        <ele>767.27</ele>
        <time>2022-04-03T14:24:02Z</time>
      </trkpt>
      <trkpt lat="44.50779" lon="5.35588">
        <ele>767.27</ele>
        <time>2022-04-03T14:24:18Z</time>
      </trkpt>
      <trkpt lat="44.5078" lon="5.35575">
        <ele>768.23</ele>
        <time>2022-04-03T14:24:27Z</time>
      </trkpt>
      <trkpt lat="44.50783" lon="5.35555">
        <ele>770.63</ele>
        <time>2022-04-03T14:24:40Z</time>
      </trkpt>
      <trkpt lat="44.50781" lon="5.35545">
        <ele>773.04</ele>
        <time>2022-04-03T14:24:48Z</time>
      </trkpt>
      <trkpt lat="44.50774" lon="5.35531">
        <ele>771.6</ele>
        <time>2022-04-03T14:25:01Z</time>
      </trkpt>
      <trkpt lat="44.50769" lon="5.35526">
        <ele>770.15</ele>
        <time>2022-04-03T14:25:13Z</time>
      </trkpt>
      <trkpt lat="44.50767" lon="5.35524">
        <ele>769.19</ele>
        <time>2022-04-03T14:25:16Z</time>
      </trkpt>
      <trkpt lat="44.50765" lon="5.35512">
        <ele>764.87</ele>
        <time>2022-04-03T14:25:27Z</time>
      </trkpt>
      <trkpt lat="44.50762" lon="5.35491">
        <ele>764.87</ele>
        <time>2022-04-03T14:25:41Z</time>
      </trkpt>
      <trkpt lat="44.50761" lon="5.35466">
        <ele>761.98</ele>
        <time>2022-04-03T14:25:56Z</time>
      </trkpt>
      <trkpt lat="44.50761" lon="5.35448">
        <ele>763.9</ele>
        <time>2022-04-03T14:26:08Z</time>
      </trkpt>
      <trkpt lat="44.50761" lon="5.35443">
        <ele>762.46</ele>
        <time>2022-04-03T14:26:12Z</time>
      </trkpt>
      <trkpt lat="44.50762" lon="5.35437">
        <ele>761.5</ele>
        <time>2022-04-03T14:26:26Z</time>
      </trkpt>
      <trkpt lat="44.50763" lon="5.35434">
        <ele>761.02</ele>
        <time>2022-04-03T14:26:40Z</time>
      </trkpt>
      <trkpt lat="44.5077" lon="5.35423">
        <ele>760.06</ele>
        <time>2022-04-03T14:26:49Z</time>
      </trkpt>
      <trkpt lat="44.50772" lon="5.35416">
        <ele>759.58</ele>
        <time>2022-04-03T14:26:53Z</time>
      </trkpt>
      <trkpt lat="44.50779" lon="5.354">
        <ele>761.5</ele>
        <time>2022-04-03T14:27:04Z</time>
      </trkpt>
      <trkpt lat="44.50787" lon="5.35396">
        <ele>757.66</ele>
        <time>2022-04-03T14:27:11Z</time>
      </trkpt>
      <trkpt lat="44.50789" lon="5.35396">
        <ele>756.21</ele>
        <time>2022-04-03T14:27:13Z</time>
      </trkpt>
      <trkpt lat="44.50791" lon="5.35397">
        <ele>755.25</ele>
        <time>2022-04-03T14:27:15Z</time>
      </trkpt>
      <trkpt lat="44.50798" lon="5.35397">
        <ele>755.73</ele>
        <time>2022-04-03T14:27:21Z</time>
      </trkpt>
      <trkpt lat="44.50802" lon="5.35396">
        <ele>755.73</ele>
        <time>2022-04-03T14:27:25Z</time>
      </trkpt>
      <trkpt lat="44.50804" lon="5.35397">
        <ele>754.29</ele>
        <time>2022-04-03T14:27:27Z</time>
      </trkpt>
      <trkpt lat="44.50805" lon="5.35397">
        <ele>753.81</ele>
        <time>2022-04-03T14:27:28Z</time>
      </trkpt>
      <trkpt lat="44.50808" lon="5.35393">
        <ele>753.33</ele>
        <time>2022-04-03T14:27:32Z</time>
      </trkpt>
      <trkpt lat="44.50809" lon="5.35362">
        <ele>753.33</ele>
        <time>2022-04-03T14:27:49Z</time>
      </trkpt>
      <trkpt lat="44.50809" lon="5.35355">
        <ele>753.33</ele>
        <time>2022-04-03T14:27:53Z</time>
      </trkpt>
      <trkpt lat="44.50818" lon="5.35329">
        <ele>754.77</ele>
        <time>2022-04-03T14:28:09Z</time>
      </trkpt>
      <trkpt lat="44.50822" lon="5.35327">
        <ele>755.25</ele>
        <time>2022-04-03T14:28:14Z</time>
      </trkpt>
      <trkpt lat="44.50824" lon="5.35325">
        <ele>755.73</ele>
        <time>2022-04-03T14:28:16Z</time>
      </trkpt>
      <trkpt lat="44.50828" lon="5.3532">
        <ele>756.69</ele>
        <time>2022-04-03T14:28:21Z</time>
      </trkpt>
      <trkpt lat="44.50846" lon="5.35318">
        <ele>758.62</ele>
        <time>2022-04-03T14:28:37Z</time>
      </trkpt>
      <trkpt lat="44.50862" lon="5.3532">
        <ele>758.62</ele>
        <time>2022-04-03T14:28:51Z</time>
      </trkpt>
      <trkpt lat="44.50869" lon="5.3532">
        <ele>757.18</ele>
        <time>2022-04-03T14:28:57Z</time>
      </trkpt>
      <trkpt lat="44.50871" lon="5.35319">
        <ele>756.21</ele>
        <time>2022-04-03T14:29:00Z</time>
      </trkpt>
      <trkpt lat="44.50875" lon="5.35313">
        <ele>755.73</ele>
        <time>2022-04-03T14:29:05Z</time>
      </trkpt>
      <trkpt lat="44.50877" lon="5.35297">
        <ele>758.14</ele>
        <time>2022-04-03T14:29:14Z</time>
      </trkpt>
      <trkpt lat="44.50888" lon="5.35279">
        <ele>754.77</ele>
        <time>2022-04-03T14:29:28Z</time>
      </trkpt>
      <trkpt lat="44.50897" lon="5.35264">
        <ele>751.41</ele>
        <time>2022-04-03T14:29:39Z</time>
      </trkpt>
      <trkpt lat="44.50912" lon="5.35241">
        <ele>749.49</ele>
        <time>2022-04-03T14:29:57Z</time>
      </trkpt>
      <trkpt lat="44.50927" lon="5.35221">
        <ele>749</ele>
        <time>2022-04-03T14:30:14Z</time>
      </trkpt>
      <trkpt lat="44.50931" lon="5.35215">
        <ele>749</ele>
        <time>2022-04-03T14:30:19Z</time>
      </trkpt>
      <trkpt lat="44.50933" lon="5.35214">
        <ele>750.45</ele>
        <time>2022-04-03T14:30:21Z</time>
      </trkpt>
      <trkpt lat="44.50937" lon="5.3521">
        <ele>750.93</ele>
        <time>2022-04-03T14:30:25Z</time>
      </trkpt>
      <trkpt lat="44.50949" lon="5.35205">
        <ele>751.41</ele>
        <time>2022-04-03T14:30:36Z</time>
      </trkpt>
      <trkpt lat="44.50951" lon="5.35203">
        <ele>749.97</ele>
        <time>2022-04-03T14:30:38Z</time>
      </trkpt>
      <trkpt lat="44.50968" lon="5.35187">
        <ele>748.52</ele>
        <time>2022-04-03T14:30:54Z</time>
      </trkpt>
      <trkpt lat="44.50982" lon="5.35156">
        <ele>746.6</ele>
        <time>2022-04-03T14:31:13Z</time>
      </trkpt>
      <trkpt lat="44.50991" lon="5.35128">
        <ele>745.16</ele>
        <time>2022-04-03T14:31:30Z</time>
      </trkpt>
      <trkpt lat="44.50995" lon="5.35122">
        <ele>745.16</ele>
        <time>2022-04-03T14:31:35Z</time>
      </trkpt>
      <trkpt lat="44.51011" lon="5.35115">
        <ele>744.2</ele>
        <time>2022-04-03T14:31:50Z</time>
      </trkpt>
      <trkpt lat="44.51029" lon="5.35106">
        <ele>743.24</ele>
        <time>2022-04-03T14:32:05Z</time>
      </trkpt>
      <trkpt lat="44.51032" lon="5.35103">
        <ele>744.68</ele>
        <time>2022-04-03T14:32:08Z</time>
      </trkpt>
      <trkpt lat="44.51037" lon="5.35099">
        <ele>745.16</ele>
        <time>2022-04-03T14:32:13Z</time>
      </trkpt>
      <trkpt lat="44.51046" lon="5.35083">
        <ele>746.12</ele>
        <time>2022-04-03T14:32:25Z</time>
      </trkpt>
      <trkpt lat="44.51053" lon="5.35076">
        <ele>748.04</ele>
        <time>2022-04-03T14:32:40Z</time>
      </trkpt>
      <trkpt lat="44.51055" lon="5.35074">
        <ele>749</ele>
        <time>2022-04-03T14:33:33Z</time>
      </trkpt>
      <trkpt lat="44.5106" lon="5.35071">
        <ele>750.45</ele>
        <time>2022-04-03T14:33:38Z</time>
      </trkpt>
      <trkpt lat="44.51065" lon="5.35063">
        <ele>749.97</ele>
        <time>2022-04-03T14:33:52Z</time>
      </trkpt>
      <trkpt lat="44.51065" lon="5.35062">
        <ele>749</ele>
        <time>2022-04-03T14:33:53Z</time>
      </trkpt>
      <trkpt lat="44.51064" lon="5.35054">
        <ele>748.04</ele>
        <time>2022-04-03T14:33:58Z</time>
      </trkpt>
      <trkpt lat="44.51064" lon="5.35046">
        <ele>748.52</ele>
        <time>2022-04-03T14:34:04Z</time>
      </trkpt>
      <trkpt lat="44.5107" lon="5.35018">
        <ele>745.64</ele>
        <time>2022-04-03T14:34:24Z</time>
      </trkpt>
      <trkpt lat="44.51073" lon="5.35002">
        <ele>742.28</ele>
        <time>2022-04-03T14:34:36Z</time>
      </trkpt>
      <trkpt lat="44.51071" lon="5.34993">
        <ele>740.35</ele>
        <time>2022-04-03T14:34:44Z</time>
      </trkpt>
      <trkpt lat="44.51073" lon="5.3498">
        <ele>736.99</ele>
        <time>2022-04-03T14:34:55Z</time>
      </trkpt>
      <trkpt lat="44.51073" lon="5.34955">
        <ele>734.1</ele>
        <time>2022-04-03T14:35:12Z</time>
      </trkpt>
      <trkpt lat="44.51073" lon="5.34953">
        <ele>733.62</ele>
        <time>2022-04-03T14:35:13Z</time>
      </trkpt>
      <trkpt lat="44.51071" lon="5.34936">
        <ele>730.74</ele>
        <time>2022-04-03T14:35:25Z</time>
      </trkpt>
      <trkpt lat="44.51075" lon="5.34907">
        <ele>728.34</ele>
        <time>2022-04-03T14:35:42Z</time>
      </trkpt>
      <trkpt lat="44.51086" lon="5.3488">
        <ele>725.45</ele>
        <time>2022-04-03T14:35:59Z</time>
      </trkpt>
      <trkpt lat="44.51099" lon="5.34866">
        <ele>724.49</ele>
        <time>2022-04-03T14:36:14Z</time>
      </trkpt>
      <trkpt lat="44.51101" lon="5.34857">
        <ele>724.01</ele>
        <time>2022-04-03T14:36:25Z</time>
      </trkpt>
      <trkpt lat="44.51098" lon="5.34841">
        <ele>725.45</ele>
        <time>2022-04-03T14:36:38Z</time>
      </trkpt>
      <trkpt lat="44.51097" lon="5.3484">
        <ele>725.45</ele>
        <time>2022-04-03T14:36:39Z</time>
      </trkpt>
      <trkpt lat="44.51092" lon="5.3483">
        <ele>728.82</ele>
        <time>2022-04-03T14:36:51Z</time>
      </trkpt>
      <trkpt lat="44.51088" lon="5.34826">
        <ele>730.26</ele>
        <time>2022-04-03T14:36:59Z</time>
      </trkpt>
      <trkpt lat="44.51082" lon="5.34826">
        <ele>732.18</ele>
        <time>2022-04-03T14:37:08Z</time>
      </trkpt>
      <trkpt lat="44.5107" lon="5.3483">
        <ele>734.58</ele>
        <time>2022-04-03T14:37:24Z</time>
      </trkpt>
      <trkpt lat="44.51054" lon="5.34833">
        <ele>736.03</ele>
        <time>2022-04-03T14:37:41Z</time>
      </trkpt>
      <trkpt lat="44.51049" lon="5.34832">
        <ele>738.43</ele>
        <time>2022-04-03T14:37:46Z</time>
      </trkpt>
      <trkpt lat="44.51036" lon="5.34831">
        <ele>741.31</ele>
        <time>2022-04-03T14:38:00Z</time>
      </trkpt>
      <trkpt lat="44.5103" lon="5.34828">
        <ele>742.76</ele>
        <time>2022-04-03T14:38:09Z</time>
      </trkpt>
      <trkpt lat="44.51019" lon="5.34823">
        <ele>745.16</ele>
        <time>2022-04-03T14:38:23Z</time>
      </trkpt>
      <trkpt lat="44.51011" lon="5.34817">
        <ele>747.56</ele>
        <time>2022-04-03T14:38:38Z</time>
      </trkpt>
      <trkpt lat="44.51006" lon="5.34815">
        <ele>749.97</ele>
        <time>2022-04-03T14:38:53Z</time>
      </trkpt>
      <trkpt lat="44.50993" lon="5.3481">
        <ele>752.37</ele>
        <time>2022-04-03T14:39:09Z</time>
      </trkpt>
      <trkpt lat="44.50989" lon="5.34808">
        <ele>752.85</ele>
        <time>2022-04-03T14:39:22Z</time>
      </trkpt>
      <trkpt lat="44.50977" lon="5.34795">
        <ele>753.81</ele>
        <time>2022-04-03T14:42:07Z</time>
      </trkpt>
      <trkpt lat="44.50972" lon="5.3479">
        <ele>754.77</ele>
        <time>2022-04-03T14:42:13Z</time>
      </trkpt>
      <trkpt lat="44.50963" lon="5.34782">
        <ele>757.66</ele>
        <time>2022-04-03T14:42:23Z</time>
      </trkpt>
      <trkpt lat="44.50962" lon="5.34773">
        <ele>759.58</ele>
        <time>2022-04-03T14:42:35Z</time>
      </trkpt>
      <trkpt lat="44.50956" lon="5.34771">
        <ele>760.06</ele>
        <time>2022-04-03T14:42:55Z</time>
      </trkpt>
      <trkpt lat="44.50941" lon="5.34754">
        <ele>760.06</ele>
        <time>2022-04-03T14:43:14Z</time>
      </trkpt>
      <trkpt lat="44.50935" lon="5.34748">
        <ele>759.1</ele>
        <time>2022-04-03T14:43:21Z</time>
      </trkpt>
      <trkpt lat="44.50928" lon="5.34744">
        <ele>758.62</ele>
        <time>2022-04-03T14:43:37Z</time>
      </trkpt>
    </trkseg>
  </trk>
</gpx>